[[{"header":{"parameterUnit":"m.s-1","parameterCategory":1,"la1":30.6,"la2":28.766,"lo1":-90.7593,"lo2":-88.6598,"dx":0.0162,"dy":0.0183,"nx":116,"ny":114,"refTime":"2022-12-04T18:00:00:Z","depth":0,"parameterNumber":2,"parameterNumberName":"U-component_of_WINDS"},"data":[0.0,0.0,0.0,0.0,0.0,0.0,0.0,0.0,0.0,0.0,0.0,0.0,0.0,0.0,0.0,0.0,0.0,0.0,0.0,0.0,0.0,0.0,0.0,0.0,0.0,0.0,0.0,0.0,0.0,0.0,0.0,0.0,0.0,0.0,0.0,0.0,0.0,0.0,0.0,0.0,0.0,0.0,0.0,0.0,0.0,0.0,0.0,0.0,0.0,0.0,0.0,0.0,0.0,0.0,0.0,0.0,0.0,0.0,0.0,0.0,0.0,0.0,0.0,0.0,0.0,0.0,0.0,0.0,0.0,0.0,0.0,0.0,0.0,0.0,0.0,0.0,0.0,0.0,0.0,0.0,0.0,0.0,0.0,0.0,0.0,0.0,0.0,0.0,0.0,0.0,0.0,0.0,0.0,0.0,0.0,0.0,0.0,0.0,0.0,0.0,0.0,0.0,0.0,0.0,0.0,0.0,0.0,0.0,0.0,0.0,0.0,0.0,0.0,0.0,0.0,0.0,0.0,0.0,0.0,0.0,0.0,0.0,0.0,0.0,0.0,0.0,0.0,0.0,0.0,0.0,0.0,0.0,0.0,0.0,0.0,0.0,0.0,0.0,0.0,0.0,0.0,0.0,0.0,0.0,0.0,0.0,0.0,0.0,0.0,0.0,0.0,0.0,0.0,0.0,0.0,0.0,0.0,0.0,0.0,0.0,0.0,0.0,0.0,0.0,0.0,0.0,0.0,0.0,0.0,0.0,0.0,0.0,0.0,0.0,0.0,0.0,0.0,0.0,0.0,0.0,0.0,0.0,0.0,0.0,0.0,0.0,0.0,0.0,0.0,0.0,0.0,0.0,0.0,0.0,0.0,0.0,0.0,0.0,0.0,0.0,0.0,0.0,0.0,0.0,0.0,0.0,0.0,0.0,0.0,0.0,0.0,0.0,0.0,0.0,0.0,0.0,0.0,0.0,0.0,0.0,0.0,0.0,0.0,0.0,0.0,0.0,0.0,0.0,0.0,0.0,0.0,0.0,0.0,0.0,0.0,0.0,0.0,0.0,0.0,0.0,0.0,0.0,0.0,0.0,0.0,0.0,0.0,0.0,0.0,0.0,0.0,0.0,0.0,0.0,0.0,0.0,0.0,0.0,0.0,0.0,0.0,0.0,0.0,0.0,0.0,0.0,0.0,0.0,0.0,0.0,0.0,0.0,0.0,0.0,0.0,0.0,0.0,0.0,0.0,0.0,0.0,0.0,0.0,0.0,0.0,0.0,0.0,0.0,0.0,0.0,0.0,0.0,0.0,0.0,0.0,0.0,0.0,0.0,0.0,0.0,0.0,0.0,0.0,0.0,0.0,0.0,0.0,0.0,0.0,0.0,0.0,0.0,0.0,0.0,0.0,0.0,0.0,0.0,0.0,0.0,0.0,0.0,0.0,0.0,0.0,0.0,0.0,0.0,0.0,0.0,0.0,0.0,0.0,0.0,0.0,0.0,0.0,0.0,0.0,0.0,0.0,0.0,0.0,0.0,0.0,0.0,0.0,0.0,0.0,0.0,0.0,0.0,0.0,0.0,0.0,0.0,0.0,0.0,0.0,0.0,0.0,0.0,0.0,0.0,0.0,0.0,0.0,0.0,0.0,0.0,0.0,0.0,0.0,0.0,0.0,0.0,0.0,0.0,0.0,0.0,0.0,0.0,0.0,0.0,0.0,0.0,0.0,0.0,0.0,0.0,0.0,0.0,0.0,0.0,0.0,0.0,0.0,0.0,0.0,0.0,0.0,0.0,0.0,0.0,0.0,0.0,0.0,0.0,0.0,0.0,0.0,0.0,0.0,0.0,0.0,0.0,0.0,0.0,0.0,0.0,0.0,0.0,0.0,0.0,0.0,0.0,0.0,0.0,0.0,0.0,0.0,0.0,0.0,0.0,0.0,0.0,0.0,0.0,0.0,0.0,0.0,0.0,0.0,0.0,0.0,0.0,0.0,0.0,0.0,0.0,0.0,0.0,0.0,0.0,0.0,0.0,0.0,0.0,0.0,0.0,0.0,0.0,0.0,0.0,0.0,0.0,0.0,0.0,0.0,0.0,0.0,0.0,0.0,0.0,0.0,0.0,0.0,0.0,0.0,0.0,0.0,0.0,0.0,0.0,0.0,0.0,0.0,0.0,0.0,0.0,0.0,0.0,0.0,0.0,0.0,0.0,0.0,0.0,0.0,0.0,0.0,0.0,0.0,0.0,0.0,0.0,0.0,0.0,0.0,0.0,0.0,0.0,0.0,0.0,0.0,0.0,0.0,0.0,0.0,0.0,0.0,0.0,0.0,0.0,0.0,0.0,0.0,0.0,0.0,0.0,0.0,0.0,0.0,0.0,0.0,0.0,0.0,0.0,0.0,0.0,0.0,0.0,0.0,0.0,0.0,0.0,0.0,0.0,0.0,0.0,0.0,0.0,0.0,0.0,0.0,0.0,0.0,0.0,0.0,0.0,0.0,0.0,0.0,0.0,0.0,0.0,0.0,0.0,0.0,0.0,0.0,0.0,0.0,0.0,0.0,0.0,0.0,0.0,0.0,0.0,0.0,0.0,0.0,0.0,0.0,0.0,0.0,0.0,0.0,0.0,0.0,0.0,0.0,0.0,0.0,0.0,0.0,0.0,0.0,0.0,0.0,0.0,0.0,0.0,0.0,0.0,0.0,0.0,0.0,0.0,0.0,0.0,0.0,0.0,0.0,0.0,0.0,0.0,0.0,0.0,0.0,0.0,0.0,0.0,0.0,0.0,0.0,0.0,0.0,0.0,0.0,0.0,0.0,0.0,0.0,0.0,0.0,0.0,0.0,0.0,0.0,0.0,0.0,0.0,0.0,0.0,0.0,0.0,0.0,0.0,0.0,0.0,0.0,0.0,0.0,0.0,0.0,0.0,0.0,0.0,0.0,0.0,0.0,0.0,0.0,0.0,0.0,0.0,0.0,0.0,0.0,0.0,0.0,0.0,0.0,0.0,0.0,0.0,0.0,0.0,0.0,0.0,0.0,0.0,0.0,0.0,0.0,0.0,0.0,0.0,0.0,0.0,0.0,0.0,0.0,0.0,0.0,0.0,0.0,0.0,0.0,0.0,0.0,0.0,0.0,0.0,0.0,0.0,0.0,0.0,0.0,0.0,0.0,0.0,0.0,0.0,0.0,0.0,0.0,0.0,0.0,0.0,0.0,0.0,0.0,0.0,0.0,0.0,0.0,0.0,0.0,0.0,0.0,0.0,0.0,0.0,0.0,0.0,0.0,0.0,0.0,0.0,0.0,0.0,0.0,0.0,0.0,0.0,0.0,0.0,0.0,0.0,0.0,0.0,0.0,0.0,0.0,0.0,0.0,0.0,0.0,0.0,0.0,0.0,0.0,0.0,0.0,0.0,0.0,0.0,0.0,0.0,0.0,0.0,0.0,0.0,0.0,0.0,0.0,0.0,0.0,0.0,0.0,0.0,0.0,0.0,0.0,0.0,0.0,0.0,0.0,0.0,0.0,0.0,0.0,0.0,0.0,0.0,0.0,0.0,0.0,0.0,0.0,0.0,0.0,0.0,0.0,0.0,0.0,0.0,0.0,0.0,0.0,0.0,0.0,0.0,0.0,0.0,0.0,0.0,0.0,0.0,0.0,0.0,0.0,0.0,0.0,0.0,0.0,0.0,0.0,0.0,0.0,0.0,0.0,0.0,0.0,0.0,0.0,0.0,0.0,0.0,0.0,0.0,0.0,0.0,0.0,0.0,0.0,0.0,0.0,0.0,0.0,0.0,0.0,0.0,0.0,0.0,0.0,0.0,0.0,0.0,0.0,0.0,0.0,0.0,0.0,0.0,0.0,0.0,0.0,0.0,0.0,0.0,0.0,0.0,0.0,0.0,0.0,0.0,0.0,0.0,0.0,0.0,0.0,0.0,0.0,0.0,0.0,0.0,0.0,0.0,0.0,0.0,0.0,0.0,0.0,0.0,0.0,0.0,0.0,0.0,0.0,0.0,0.0,0.0,0.0,0.0,0.0,0.0,0.0,0.0,0.0,0.0,0.0,0.0,0.0,0.0,0.0,0.0,0.0,0.0,0.0,0.0,0.0,0.0,0.0,0.0,0.0,0.0,0.0,0.0,0.0,0.0,0.0,0.0,0.0,0.0,0.0,0.0,0.0,0.0,0.0,0.0,0.0,0.0,0.0,0.0,0.0,0.0,0.0,0.0,0.0,0.0,0.0,0.0,0.0,0.0,0.0,0.0,0.0,0.0,0.0,0.0,0.0,0.0,0.0,0.0,0.0,0.0,0.0,0.0,0.0,0.0,0.0,0.0,0.0,0.0,0.0,0.0,0.0,0.0,0.0,0.0,0.0,0.0,0.0,0.0,0.0,0.0,0.0,0.0,0.0,0.0,0.0,0.0,0.0,0.0,0.0,0.0,0.0,0.0,0.0,0.0,0.0,0.0,0.0,0.0,0.0,0.0,0.0,0.0,0.0,0.0,0.0,0.0,0.0,0.0,0.0,0.0,0.0,0.0,0.0,0.0,0.0,0.0,0.0,0.0,0.0,0.0,0.0,0.0,0.0,0.0,0.0,0.0,0.0,0.0,0.0,0.0,0.0,0.0,0.0,0.0,0.0,0.0,0.0,0.0,0.0,0.0,0.0,0.0,0.0,0.0,0.0,0.0,0.0,0.0,0.0,0.0,0.0,0.0,0.0,0.0,0.0,0.0,0.0,0.0,0.0,0.0,0.0,0.0,0.0,0.0,0.0,0.0,0.0,0.0,0.0,0.0,0.0,0.0,0.0,0.0,0.0,0.0,0.0,0.0,0.0,0.0,0.0,0.0,0.0,0.0,0.0,0.0,0.0,0.0,0.0,0.0,0.0,0.0,0.0,0.0,0.0,0.0,0.0,0.0,0.0,0.0,0.0,0.0,0.0,0.0,0.0,0.0,0.0,0.0,0.0,0.0,0.0,0.0,0.0,0.0,0.0,0.0,0.0,0.0,0.0,0.0,0.0,0.0,0.0,0.0,0.0,0.0,0.0,0.0,0.0,0.0,0.0,0.0,0.0,0.0,0.0,0.0,0.0,0.0,0.0,0.0,0.0,0.0,0.0,0.0,0.0,0.0,0.0,0.0,0.0,0.0,0.0,0.0,0.0,0.0,0.0,0.0,0.0,0.0,0.0,0.0,0.0,0.0,0.0,0.0,0.0,0.0,0.0,0.0,0.0,0.0,0.0,0.0,0.0,0.0,0.0,0.0,0.0,0.0,0.0,0.0,0.0,0.0,0.0,0.0,0.0,0.0,0.0,0.0,0.0,0.0,0.0,0.0,0.0,0.0,0.0,0.0,0.0,0.0,0.0,0.0,0.0,0.0,0.0,0.0,0.0,0.0,0.0,0.0,0.0,0.0,0.0,0.0,0.0,0.0,0.0,0.0,0.0,0.0,0.0,0.0,0.0,0.0,0.0,0.0,0.0,0.0,0.0,0.0,0.0,0.0,0.0,0.0,0.0,0.0,0.0,0.0,0.0,0.0,0.0,0.0,0.0,0.0,0.0,0.0,0.0,0.0,0.0,0.0,0.0,0.0,0.0,0.0,0.0,0.0,0.0,0.0,0.0,0.0,0.0,0.0,0.0,0.0,0.0,0.0,0.0,0.0,0.0,0.0,0.0,0.0,0.0,0.0,0.0,0.0,0.0,0.0,0.0,0.0,0.0,0.0,0.0,0.0,0.0,0.0,0.0,0.0,0.0,0.0,0.0,0.0,0.0,0.0,0.0,0.0,0.0,0.0,0.0,0.0,0.0,0.0,0.0,0.0,0.0,0.0,0.0,0.0,0.0,0.0,0.0,0.0,0.0,0.0,0.0,0.0,0.0,0.0,0.0,0.0,0.0,0.0,0.0,0.0,0.0,0.0,0.0,0.0,0.0,0.0,0.0,0.0,0.0,0.0,0.0,0.0,0.0,0.0,0.0,0.0,0.0,0.0,0.0,0.0,0.0,0.0,0.0,0.0,0.0,0.0,0.0,0.0,0.0,0.0,0.0,0.0,0.0,0.0,0.0,0.0,0.0,0.0,0.0,0.0,0.0,0.0,0.0,0.0,0.0,0.0,0.0,0.0,-3.5582,-3.5552,0.0,0.0,0.0,0.0,0.0,0.0,0.0,0.0,0.0,0.0,0.0,0.0,0.0,0.0,0.0,0.0,0.0,0.0,0.0,0.0,0.0,0.0,0.0,-2.566,-2.5703,-2.5703,-2.5703,0.0,0.0,0.0,0.0,0.0,0.0,0.0,0.0,0.0,-2.4551,-2.4961,-2.543,-2.6758,-2.8867,-2.8418,-2.7754,-2.6914,0.0,0.0,0.0,0.0,0.0,0.0,0.0,0.0,0.0,0.0,0.0,0.0,0.0,0.0,0.0,0.0,0.0,0.0,0.0,0.0,0.0,0.0,0.0,0.0,0.0,0.0,0.0,0.0,0.0,0.0,0.0,0.0,0.0,0.0,0.0,0.0,0.0,0.0,0.0,0.0,0.0,0.0,0.0,0.0,0.0,0.0,0.0,0.0,0.0,0.0,0.0,0.0,0.0,0.0,0.0,0.0,0.0,0.0,0.0,0.0,0.0,0.0,0.0,0.0,0.0,0.0,0.0,0.0,0.0,0.0,-3.5936,-3.5528,0.0,0.0,0.0,0.0,0.0,0.0,0.0,0.0,0.0,0.0,0.0,0.0,0.0,0.0,0.0,0.0,0.0,0.0,0.0,0.0,0.0,-2.5605,-2.5854,-2.5781,-2.582,-2.6133,-2.5879,-2.5762,-2.5918,-2.5781,0.0,0.0,0.0,0.0,0.0,-2.5703,-2.6191,-2.7226,-2.8535,-2.9922,-3.1348,-3.1348,-3.0566,-2.9101,-2.7383,0.0,0.0,0.0,0.0,0.0,0.0,0.0,0.0,0.0,0.0,0.0,0.0,0.0,0.0,0.0,0.0,0.0,0.0,0.0,0.0,0.0,0.0,0.0,0.0,0.0,0.0,0.0,0.0,0.0,0.0,0.0,0.0,0.0,0.0,0.0,0.0,0.0,0.0,0.0,0.0,0.0,0.0,0.0,0.0,0.0,0.0,0.0,0.0,0.0,0.0,0.0,0.0,0.0,0.0,0.0,0.0,0.0,0.0,0.0,0.0,0.0,0.0,0.0,-3.791,-3.8223,-3.7578,-3.8984,-3.9157,-3.8228,-3.6679,-3.5875,-3.5692,-3.5558,0.0,0.0,0.0,0.0,0.0,0.0,0.0,0.0,0.0,0.0,0.0,0.0,0.0,0.0,0.0,0.0,0.0,0.0,0.0,-2.5792,-2.6569,-2.6082,-2.6309,-2.7832,-2.6562,-2.6016,-2.6777,-2.6113,0.0,0.0,0.0,0.0,-2.5703,-2.5703,-2.6504,-2.8125,-3.1211,-3.2851,-3.3066,-3.3066,-3.2949,-3.2656,-3.0976,-3.0215,-3.0117,0.0,0.0,0.0,0.0,0.0,0.0,0.0,0.0,0.0,0.0,0.0,0.0,0.0,0.0,0.0,0.0,0.0,0.0,0.0,0.0,0.0,0.0,0.0,0.0,0.0,0.0,0.0,0.0,0.0,0.0,0.0,0.0,0.0,0.0,0.0,0.0,0.0,0.0,0.0,0.0,0.0,-3.6328,-3.7207,0.0,0.0,0.0,0.0,0.0,0.0,0.0,0.0,0.0,0.0,0.0,0.0,0.0,-3.7559,-3.8418,-3.8301,-3.8262,-3.8262,-3.8496,-3.8535,-3.8437,-3.8542,-3.8523,-3.8372,-3.8063,0.0,-3.6481,-3.5788,0.0,0.0,0.0,0.0,0.0,0.0,0.0,0.0,0.0,0.0,0.0,0.0,0.0,0.0,0.0,0.0,0.0,0.0,0.0,0.0,0.0,-2.7043,-2.7676,-2.8926,-2.8789,-2.8379,-2.7773,-2.7363,0.0,0.0,0.0,-2.5703,-2.5703,-2.666,-2.8476,-3.1172,-3.3164,-3.4375,-3.4863,-3.4863,-3.4863,-3.4824,-3.4082,-3.2695,-3.0859,-3.0098,0.0,0.0,0.0,0.0,0.0,0.0,0.0,0.0,0.0,0.0,0.0,0.0,0.0,0.0,0.0,0.0,0.0,0.0,0.0,0.0,0.0,0.0,0.0,0.0,0.0,0.0,0.0,0.0,0.0,0.0,0.0,0.0,0.0,0.0,0.0,0.0,0.0,0.0,0.0,-3.7773,-3.7969,-3.9336,-3.9394,-3.918,0.0,0.0,0.0,0.0,0.0,0.0,0.0,0.0,0.0,-3.8027,-3.8027,-3.8203,-3.8594,-3.8594,-3.8594,-3.8613,-3.9101,-3.9336,-3.9355,-3.9782,-3.9926,-3.9825,-3.9319,-3.8795,-3.8262,-3.7381,-3.6974,-3.6815,0.0,0.0,0.0,0.0,-3.4365,-3.4308,0.0,0.0,0.0,0.0,0.0,0.0,0.0,0.0,0.0,0.0,0.0,0.0,-2.7443,-2.8393,-2.9394,-3.0488,-3.0762,-3.0449,-2.9375,-2.8672,-2.7715,-2.6426,-2.5937,-2.5703,-2.5703,-2.7851,-3.043,-3.3398,-3.4492,-3.5351,-3.5996,-3.5996,-3.5996,-3.5996,-3.5996,-3.459,-3.2187,-3.1738,-3.0781,-2.9473,0.0,0.0,0.0,0.0,0.0,0.0,0.0,0.0,0.0,0.0,0.0,0.0,0.0,0.0,0.0,0.0,0.0,0.0,0.0,0.0,0.0,0.0,0.0,0.0,0.0,0.0,0.0,0.0,0.0,0.0,0.0,0.0,0.0,0.0,0.0,0.0,0.0,-3.8965,-3.8906,-4.0664,-4.0098,-3.957,0.0,0.0,0.0,0.0,0.0,0.0,-3.7969,-3.8574,-3.8926,-3.8926,-3.8926,-3.9043,-3.9258,-3.9277,-3.9277,-3.9277,-3.9922,-4.0234,-4.0254,-4.0898,-4.1149,-4.1013,-4.0372,-4.0036,-3.9867,-3.868,-3.8129,-3.7982,-3.7298,-3.7019,-3.6962,-3.6365,-3.6135,-3.6135,0.0,0.0,0.0,0.0,0.0,0.0,0.0,0.0,0.0,0.0,0.0,-2.8294,-2.918,-3.0164,-3.1426,-3.3066,-3.1797,-3.1211,-3.1953,-2.9687,-2.8262,-2.8164,-2.6582,-2.5703,-2.5703,-2.9023,-3.1621,-3.3398,-3.5098,-3.5957,-3.5996,-3.5996,-3.5996,-3.5996,-3.5996,-3.5898,-3.5644,-3.3984,-3.3223,-3.2851,-2.9551,0.0,0.0,0.0,0.0,0.0,0.0,0.0,0.0,0.0,0.0,0.0,0.0,0.0,0.0,0.0,0.0,0.0,0.0,0.0,0.0,0.0,0.0,0.0,0.0,0.0,0.0,0.0,0.0,0.0,0.0,0.0,0.0,0.0,0.0,0.0,0.0,0.0,0.0,-3.9766,-3.9199,0.0,0.0,0.0,0.0,-3.9766,-3.9766,-3.9766,-3.9766,-3.9805,-3.9824,-3.9824,-3.9824,-4.0234,-4.1055,-4.1074,-4.1074,-4.1074,-4.1113,-4.1133,-4.1133,-4.1172,-4.1191,-4.1191,-4.1133,-4.1048,-4.0788,-3.895,-3.8197,-3.8175,-3.8008,-3.793,-3.793,-3.7892,-3.7873,-3.7873,0.0,0.0,0.0,-2.5346,-2.5308,-2.5308,-2.5308,-2.5308,-2.5308,-2.5308,-2.6925,-2.843,-2.9292,-3.1257,-3.2988,-3.4141,-3.4199,-3.3848,-3.3027,-3.1094,-2.9726,-2.916,-2.7461,-2.7598,-2.9824,-3.1601,-3.3359,-3.5078,-3.5703,-3.5996,-3.5996,-3.5996,-3.5996,-3.5996,-3.5996,-3.5996,-3.5957,-3.5332,-3.4434,-3.3281,-3.207,-3.0254,0.0,0.0,0.0,0.0,0.0,0.0,0.0,0.0,0.0,0.0,0.0,0.0,0.0,0.0,0.0,0.0,0.0,0.0,0.0,0.0,0.0,0.0,0.0,0.0,0.0,0.0,0.0,0.0,0.0,0.0,0.0,0.0,0.0,0.0,0.0,0.0,0.0,-4.123,-4.0273,0.0,-4.0215,-4.0059,-3.9902,-3.9902,-3.9902,-3.9902,-3.9902,-4.043,-4.0742,-4.0742,-4.0742,-4.0898,-4.1191,-4.1191,-4.1191,-4.1191,-4.1191,-4.1191,-4.1191,-4.1191,-4.1191,-4.1191,-4.1191,-4.1171,-4.1067,-4.0306,-3.9956,-3.9858,-3.977,-3.9747,-3.9657,-3.9059,-3.9161,-3.9457,0.0,0.0,0.0,-2.5308,-2.5308,-2.5308,-2.5308,-2.5308,-2.5519,-2.6096,-2.7805,-2.9406,-3.0553,-3.2837,-3.4512,-3.5098,-3.5664,-3.5371,-3.3926,-3.1992,-3.0508,-2.9648,-2.8203,-2.9062,-3.2539,-3.3125,-3.4258,-3.5996,-3.5996,-3.5996,-3.5996,-3.5996,-3.5996,-3.5996,-3.5996,-3.5996,-3.5996,-3.5996,-3.5332,-3.4238,-3.3633,-3.2031,-2.9961,0.0,0.0,0.0,0.0,0.0,0.0,0.0,0.0,0.0,0.0,0.0,0.0,0.0,0.0,0.0,0.0,0.0,0.0,0.0,0.0,0.0,0.0,0.0,0.0,0.0,0.0,0.0,0.0,0.0,0.0,0.0,0.0,0.0,0.0,-4.0469,-3.9863,-4.2129,-4.0918,-4.0234,-4.1113,-4.0684,-4.0332,-4.0332,-4.0332,-4.0332,-4.0332,-4.0898,-4.1191,-4.1191,-4.1191,-4.1191,-4.1191,-4.1191,-4.1191,-4.1191,-4.1191,-4.1191,-4.1191,-4.1191,-4.1191,-4.1191,-4.1191,-4.1191,-4.1191,-4.1104,-4.1021,-4.0914,-4.0757,-4.0697,-4.0622,-3.9947,-4.0035,-4.0342,0.0,0.0,-2.5308,-2.5308,-2.5308,-2.5308,-2.5308,-2.5308,-2.5923,-2.7659,-2.952,-3.1339,-3.3017,-3.4886,-3.5996,-3.5996,-3.5996,-3.5625,-3.4726,-3.2305,-3.0508,-2.9648,-2.8887,-3.0059,-3.3379,-3.3476,-3.4316,-3.5996,-3.5996,-3.5996,-3.5996,-3.5996,-3.5996,-3.5996,-3.5996,-3.5996,-3.5996,-3.5996,-3.5996,-3.5859,-3.416,-3.3457,-3.3223,0.0,0.0,0.0,0.0,0.0,0.0,0.0,0.0,0.0,0.0,0.0,0.0,0.0,0.0,0.0,0.0,0.0,0.0,0.0,0.0,0.0,0.0,0.0,0.0,0.0,0.0,0.0,0.0,0.0,0.0,0.0,0.0,0.0,-4.2012,-4.0937,-4.0508,-4.2168,-4.0937,-4.0273,-4.1113,-4.1191,-4.1191,-4.1191,-4.1191,-4.1191,-4.1191,-4.1191,-4.1191,-4.1191,-4.1191,-4.1191,-4.1191,-4.1191,-4.1191,-4.1191,-4.1191,-4.1191,-4.1191,-4.1191,-4.1191,-4.1191,-4.1191,-4.1191,-4.1191,-4.1191,-4.1191,-4.117,-4.085,-4.0709,-4.0686,-4.0559,-4.0504,-4.0496,-2.5788,-2.5462,-2.5308,-2.5308,-2.5308,-2.5308,-2.5308,-2.5308,-2.5923,-2.7659,-2.952,-3.1339,-3.3017,-3.4886,-3.5996,-3.5996,-3.5996,-3.5351,-3.3867,-3.1953,-3.0508,-2.9648,-3.1758,-3.3379,-3.4316,-3.4961,-3.5527,-3.5996,-3.5996,-3.5996,-3.5996,-3.5996,-3.5996,-3.5996,-3.5996,-3.5996,-3.5996,-3.5996,-3.5996,-3.5957,-3.5488,-3.4531,-3.3359,0.0,0.0,0.0,0.0,0.0,0.0,0.0,0.0,0.0,0.0,0.0,0.0,0.0,0.0,0.0,0.0,0.0,0.0,0.0,0.0,0.0,0.0,0.0,0.0,0.0,0.0,0.0,0.0,0.0,0.0,0.0,-3.9121,-4.0019,-4.1348,-4.0586,-4.0312,-4.1406,-4.1113,-4.0937,-4.1172,-4.1191,-4.1191,-4.1191,-4.1191,-4.1191,-4.1191,-4.1191,-4.1191,-4.1191,-4.1191,-4.1191,-4.1191,-4.1191,-4.1191,-4.1191,-4.1191,-4.1191,-4.1191,-4.1191,-4.1191,-4.1191,-4.1191,-4.1191,-4.1191,-4.1191,-4.1191,-4.1171,-4.0983,-4.0863,-4.0757,-4.0672,-4.0575,-4.0496,-2.5404,-2.5308,-2.5308,-2.5308,-2.5308,-2.5308,-2.5308,-2.5308,-2.6173,-2.864,-2.9915,-3.155,-3.3981,-3.5279,-3.5973,-3.5996,-3.5664,-3.4726,-3.3008,-3.1309,-3.0605,-3.1172,-3.3105,-3.4492,-3.5234,-3.5742,-3.5996,-3.5996,-3.5996,-3.5996,-3.5996,-3.5996,-3.5996,-3.5996,-3.5996,-3.5996,-3.5996,-3.5996,-3.5996,-3.5996,-3.5996,-3.5391,-3.4492,-3.4492,-3.3652,-3.248,-3.248,-3.1991,-3.1474,-3.2287,0.0,0.0,0.0,0.0,0.0,0.0,0.0,0.0,0.0,0.0,0.0,0.0,0.0,0.0,0.0,0.0,0.0,0.0,0.0,0.0,0.0,0.0,0.0,0.0,-3.9883,-4.0625,-4.1133,-4.0762,-4.0625,-4.1133,-4.1191,-4.1191,-4.1191,-4.1191,-4.1191,-4.1191,-4.1191,-4.1191,-4.1191,-4.1191,-4.1191,-4.1191,-4.1191,-4.1191,-4.1191,-4.1191,-4.1191,-4.1191,-4.1191,-4.1191,-4.1191,-4.1191,-4.1191,-4.1191,-4.1191,-4.1191,-4.1191,-4.1191,-4.1191,-4.1191,0.0,0.0,0.0,0.0,-4.0642,-4.0581,-2.5596,-2.5519,-2.5442,-2.5442,-2.5365,-2.5308,-2.5308,-2.5385,-2.6635,-2.9962,-3.0535,-3.1942,-3.5327,-3.5812,-3.5938,-3.5996,-3.5293,-3.4121,-3.2441,-3.0898,-3.1035,-3.3301,-3.3594,-3.4414,-3.5976,-3.5996,-3.5996,-3.5996,-3.5996,-3.5996,-3.5996,-3.5996,-3.5996,-3.5996,-3.5996,-3.5996,-3.5996,-3.5996,-3.5996,-3.5996,-3.5996,-3.5996,-3.5996,-3.5996,-3.5527,-3.4863,-3.4941,-3.3935,-3.2711,-3.3667,0.0,0.0,0.0,0.0,0.0,0.0,0.0,0.0,0.0,0.0,0.0,0.0,0.0,0.0,0.0,0.0,0.0,0.0,0.0,0.0,0.0,0.0,0.0,0.0,-4.0625,-4.1191,-4.1191,-4.1191,-4.1191,-4.1191,-4.1191,-4.1191,-4.1191,-4.1191,-4.1191,-4.1191,-4.1191,-4.1191,-4.1191,-4.1191,0.0,0.0,0.0,-4.1191,-4.1191,-4.1191,-4.1191,-4.1191,-4.1191,-4.1191,-4.1191,-4.1191,-4.1191,-4.1191,-4.1191,-4.1191,-4.1191,-4.1191,-4.1191,-4.1191,-4.1052,-4.0996,-4.0981,-4.0767,-4.0697,-4.0674,-2.739,-2.6832,-2.6351,-2.6351,-2.5769,-2.5308,-2.5308,-2.5904,-2.7327,-3.0038,-3.1071,-3.2617,-3.5405,-3.5812,-3.5938,-3.5996,-3.5859,-3.5019,-3.3281,-3.2851,-3.2871,-3.3379,-3.4746,-3.5644,-3.5996,-3.5996,-3.5996,-3.5996,-3.5996,-3.5996,-3.5996,-3.5996,-3.5996,-3.5996,-3.5996,-3.5996,-3.5996,-3.5996,-3.5996,-3.5996,-3.5996,-3.5996,-3.5996,-3.5996,-3.5898,-3.584,-3.6428,-3.6411,-3.6328,-3.7732,-3.7195,-3.6024,-3.6607,-3.5963,0.0,0.0,0.0,0.0,0.0,0.0,0.0,0.0,0.0,0.0,0.0,0.0,0.0,0.0,0.0,0.0,0.0,0.0,0.0,-3.9902,-4.0625,-4.1191,-4.1191,-4.1191,-4.1191,-4.1191,-4.1191,-4.1191,-4.1191,-4.1191,-4.1191,-4.1191,-4.1191,-4.1191,-4.1191,-4.1191,-4.1191,-4.1191,-4.1191,-4.1191,-4.1191,-4.1191,-4.1191,-4.1191,-4.1191,0.0,-4.1191,-4.1191,-4.1191,-4.1191,-4.1191,-4.1191,-4.1191,-4.1191,-4.1191,-4.1191,-4.1052,-4.0996,-4.0981,-4.0767,-4.0697,-4.0674,-2.9063,-2.8121,-2.7255,-2.7255,-2.689,-2.6601,-2.6601,-2.6967,-2.8179,-3.0712,-3.1466,-3.2575,-3.4764,-3.474,-3.4402,-3.4035,-3.3651,-3.3262,-3.2832,-3.3184,-3.3789,-3.4668,-3.5547,-3.5996,-3.5996,-3.5996,-3.5996,-3.5996,-3.5996,-3.5996,-3.5996,-3.5996,-3.5996,-3.5996,-3.5996,-3.5996,-3.5996,-3.5996,-3.625,-3.6641,-3.6641,-3.6914,-3.7207,-3.6328,-3.6269,-3.6699,-3.6986,-3.7381,-3.7912,-3.9029,-3.8847,-3.8202,-3.8534,-3.8084,-3.7238,0.0,0.0,0.0,0.0,0.0,0.0,0.0,0.0,0.0,0.0,0.0,0.0,0.0,0.0,-3.9258,-3.9258,0.0,-4.0547,-4.0547,-4.0918,-4.1191,-4.1191,-4.1191,-4.1191,-4.1191,-4.1191,-4.1191,-4.1191,-4.1191,-4.1191,-4.1191,-4.1191,-4.1191,-4.1191,-4.1191,-4.1191,-4.1191,-4.1191,-4.1387,-4.1797,-4.1406,-4.1406,-4.1797,-4.1387,-4.1191,-4.1191,-4.1191,-4.1191,-4.1191,-4.1191,-4.1191,-4.1191,-4.1191,-4.1191,-4.1191,-4.1127,-4.1103,-4.1078,-4.0909,-4.0803,-4.0747,-3.05,-2.9563,-2.8525,-2.8184,-2.8011,-2.7895,-2.7895,-2.803,-2.8929,-3.116,-3.1583,-3.2303,-3.3897,-3.3386,-3.2599,-3.1825,-3.1539,-3.168,-3.2383,-3.3359,-3.4531,-3.5937,-3.6152,-3.625,-3.625,-3.6426,-3.6426,-3.625,-3.625,-3.625,-3.625,-3.625,-3.6348,-3.6504,-3.6504,-3.6504,-3.6504,-3.6504,-3.6914,-3.7559,-3.7559,-3.7969,-3.8457,-3.7031,-3.6934,-3.7558,-3.7593,-3.8065,-3.8758,-3.9437,-3.9655,-3.9646,-3.9597,-3.9545,-3.94,-3.8681,-3.8488,0.0,0.0,0.0,0.0,0.0,0.0,0.0,0.0,-3.9328,-3.8889,-3.906,-3.9668,-4.0156,-4.0156,-4.0723,-4.1191,-4.1191,-4.1191,-4.1191,-4.1191,-4.1191,-4.1269,-4.1406,-4.1308,-4.1269,-4.1426,-4.1426,-4.1504,-4.168,-4.1699,-4.1699,-4.1699,-4.1699,-4.1699,-4.1699,-4.1699,-4.1992,-4.2656,-4.2012,-4.1933,-4.2383,-4.1738,-4.1348,-4.1191,-4.1191,-4.1191,-4.1191,-4.1191,-4.1191,-4.1191,-4.1191,-4.1191,-4.1191,-4.1191,-4.1191,-4.1172,-4.1052,-4.0917,-4.0781,-3.1545,-3.141,-3.0794,-2.9242,-2.8376,-2.7895,-2.7895,-2.8511,-2.9352,-3.0404,-3.1212,-3.2091,-3.3117,-3.2467,-3.1679,-3.0989,-3.2263,-3.3164,-3.3262,-3.4805,-3.5801,-3.5996,-3.6738,-3.7148,-3.7148,-3.791,-3.793,-3.7148,-3.7148,-3.7148,-3.7148,-3.7148,-3.7578,-3.8301,-3.8301,-3.8301,-3.8301,-3.8301,-3.8379,-3.8457,-3.8457,-3.8516,-3.8574,-3.8379,-3.8379,-3.8535,-3.9175,-3.947,-3.9676,-4.0408,-4.0592,-4.0543,-4.0544,-4.0454,-4.0342,-4.0246,-4.0227,-4.0419,-4.1277,-4.154,-4.1389,-4.0712,-4.0581,-4.068,0.0,-4.0771,-4.073,-4.0878,-4.0996,-4.1055,-4.1055,-4.1133,-4.1191,-4.1191,-4.1191,-4.1191,-4.1191,-4.1191,-4.1465,-4.2187,-4.1621,-4.1484,-4.2207,-4.2266,-4.2598,-4.3359,-4.3418,-4.3418,-4.3418,-4.3418,-4.3418,-4.3418,-4.3418,-4.3457,-4.3555,-4.3476,-4.3086,-4.2402,-4.2305,-4.1894,-4.1191,-4.1191,-4.1191,-4.1191,-4.1191,-4.1191,-4.1191,-4.1191,-4.1191,-4.1191,-4.1191,-4.1191,-4.1172,-4.1052,-4.0917,-4.0781,-3.1698,-3.2083,-3.2179,-3.1429,-3.0641,-2.9948,-2.9429,-3.0063,-3.0737,-3.1115,-3.1468,-3.1844,-3.224,-3.067,-2.9304,-2.8586,-3.0594,-3.2126,-3.2676,-3.4766,-3.623,-3.6738,-3.7109,-3.7539,-3.8047,-3.8418,-3.8418,-3.8066,-3.8066,-3.8066,-3.8066,-3.8066,-3.8242,-3.8594,-3.8594,-3.8594,-3.8594,-3.8594,-3.8887,-3.9355,-3.9355,-3.9668,-4.0117,-4.0117,-4.0117,-4.0078,-3.9801,-4.0075,0.0,-4.0753,-4.0828,-4.0844,-4.0735,-4.0307,-4.0043,-4.0989,-4.0893,-4.0712,-4.1663,-4.2305,-4.24,-4.1072,-4.0784,-4.0843,-4.0964,-4.0996,-4.1048,-4.1171,-4.1191,-4.1191,-4.1191,-4.1191,-4.1191,-4.1191,-4.1191,-4.1191,-4.1191,-4.1191,-4.1504,-4.2305,-4.2109,-4.2226,-4.3066,-4.3164,-4.3301,-4.3672,-4.3691,-4.3691,-4.3691,-4.3691,-4.3691,-4.3691,-4.3691,-4.3945,-4.4453,-4.3945,-4.3769,-4.3906,-4.2871,-4.2226,-4.1875,-4.1406,-4.1191,-4.1191,-4.1191,-4.1191,-4.1191,-4.1191,-4.1191,-4.1191,-4.1191,-4.1191,-4.1172,-4.1052,-4.0917,-4.0781,-3.2025,-3.2699,-3.3179,-3.2949,-3.2429,-3.1737,-3.0885,-3.1096,-3.1346,-3.1346,-3.1141,-3.0814,-3.0333,-2.871,-2.7429,-2.6885,-2.905,-3.0925,-3.2068,-3.4336,-3.6133,-3.7246,-3.7539,-3.8066,-3.8945,-3.9199,-3.9199,-3.8965,-3.8965,-3.8965,-3.8965,-3.8965,-3.9082,-3.9316,-3.9316,-3.9316,-3.9316,-3.9316,-3.9687,-4.0254,-4.0254,-4.0644,-4.1191,-4.1191,-4.0898,-4.0429,-3.9929,-4.0227,-4.0741,-4.0067,-4.0036,-4.0218,-3.9835,-3.9427,-3.942,-4.1055,-4.1414,-4.1402,-4.1879,-4.248,-4.2675,-4.1505,-4.1052,-4.0986,-4.1301,-4.121,-4.108,-4.1171,-4.1387,-4.1465,-4.123,-4.1582,-4.1816,-4.1562,-4.1738,-4.1894,-4.1894,-4.1894,-4.2187,-4.3027,-4.3125,-4.3457,-4.4336,-4.4199,-4.416,-4.4394,-4.4414,-4.4414,-4.4414,-4.4414,-4.4414,-4.4414,-4.4414,-4.4726,-4.5351,-4.4726,-4.4609,-4.498,-4.3711,-4.2988,-4.2734,-4.1914,-4.1406,-4.1191,-4.1191,-4.1191,-4.1191,-4.1191,-4.1191,-4.1191,-4.1191,-4.1191,-4.1172,-4.1052,-4.0917,-4.0789,-3.2852,-3.3564,-3.3898,-3.3045,-3.2872,-3.2583,-3.1775,-3.0962,-3.0442,-3.0442,-2.9698,-2.8569,-2.6928,-2.6745,-2.6734,-2.6703,-2.8442,-3.0232,-3.1909,-3.3727,-3.5508,-3.7226,-3.8105,-3.8965,-3.9844,-4.0684,-4.0703,-3.9863,-3.9863,-3.9863,-3.9863,-3.9863,-4.0312,-4.1113,-4.1113,-4.1113,-4.1113,-4.1113,-4.1133,-4.1152,-4.1152,-4.1172,-4.1191,-4.1191,-4.0156,-3.8789,-3.9609,-3.9902,-3.9687,-3.7988,-3.7881,-3.8337,-3.7472,-3.7734,-3.8653,-4.0345,-4.2017,-4.3126,-4.2243,-4.2166,-4.2312,-4.2262,-4.1727,-4.1387,-4.2187,-4.1758,-4.1191,-4.1191,-4.1816,-4.2129,-4.1348,-4.2539,-4.3359,-4.25,-4.3066,-4.3613,-4.3613,-4.3613,-4.3945,-4.4824,-4.4922,-4.5254,-4.6133,-4.5469,-4.5312,-4.6152,-4.6211,-4.6211,-4.6211,-4.6211,-4.6211,-4.6211,-4.6211,-4.623,-4.6269,-4.623,-4.5801,-4.5,-4.4941,-4.4473,-4.3633,-4.2754,-4.1933,-4.1191,-4.1191,-4.1191,-4.1191,-4.1191,-4.1191,-4.1191,-4.1191,-4.1191,-4.1172,-4.1052,-4.0917,-4.0797,-3.2981,-3.4064,-3.4968,-3.4673,-3.4141,-3.3468,-3.2622,-3.1795,-3.1058,-3.0481,-3.0135,0.0,0.0,0.0,0.0,0.0,-2.9472,-3.0939,-3.2745,-3.4516,-3.6284,-3.8086,-3.9004,-3.9863,-4.0742,-4.1055,-4.1055,-4.0762,-4.0762,-4.0762,-4.0762,-4.0762,-4.0918,-4.1191,-4.1191,-4.1191,-4.1191,-4.1191,-4.1191,-4.1191,-4.1191,-4.1191,-4.1269,-4.1797,-4.0586,-3.8633,0.0,-3.8281,-3.7226,-3.6641,-3.66,-3.6847,-3.7038,-3.6918,-3.7144,-3.9365,-4.1621,-4.3342,-4.3112,-4.3103,-4.3166,-4.3214,-4.2616,-4.207,-4.2344,-4.2187,-4.1992,-4.1992,-4.2676,-4.3183,-4.291,-4.332,-4.3594,-4.3301,-4.3516,-4.3691,-4.3691,-4.3691,-4.4023,-4.4902,-4.5,-4.5332,-4.6211,-4.6035,-4.5976,-4.6289,-4.6308,-4.6308,-4.6308,-4.6308,-4.6308,-4.6308,-4.6308,-4.6308,-4.6308,-4.6308,-4.6152,-4.5859,-4.5273,-4.4531,-4.3672,-4.2793,-4.2246,-4.1973,-4.1426,-4.1191,-4.1191,-4.1191,-4.1191,-4.1191,-4.1191,-4.1191,-4.1172,-4.1052,-4.0917,-4.0789,-3.3832,-3.4962,-3.5846,-3.5558,-3.4776,0.0,0.0,0.0,0.0,0.0,0.0,0.0,0.0,0.0,0.0,0.0,0.0,-3.0812,-3.2633,-3.3865,-3.5434,-3.7536,-3.789,-3.8594,-3.9785,-3.9492,-3.9648,-4.0273,-4.0273,-4.0586,-4.1191,-4.1191,-4.1191,-4.1191,-4.1191,-4.1191,-4.1191,-4.1191,-4.1367,-4.1582,-4.0976,-4.0918,-4.1191,-4.1074,-3.9648,0.0,-3.7676,-3.6543,-3.5039,-3.4746,-3.5039,-3.5625,-3.6082,-3.6742,-3.7635,-3.9174,-4.1058,-4.2682,-4.3036,-4.3154,-4.3326,-4.4003,-4.3281,-4.248,-4.2793,-4.2617,-4.2402,-4.2402,-4.334,-4.4062,-4.3769,-4.4219,-4.4531,-4.4219,-4.4687,-4.498,-4.4668,-4.4902,-4.5195,-4.543,-4.5469,-4.5683,-4.625,-4.6308,-4.6308,-4.6308,-4.6308,-4.6308,-4.6308,-4.6308,-4.6308,-4.6308,-4.6308,-4.6308,-4.6308,-4.6308,-4.6308,-4.6289,-4.5723,-4.5019,-4.4141,-4.3574,-4.3164,-4.2812,-4.1992,-4.1621,-4.1601,-4.1328,-4.1191,-4.1191,-4.1191,-4.1171,-4.1126,-4.1026,-4.0899,-4.0762,-3.5273,-3.6154,-3.6462,0.0,0.0,0.0,0.0,0.0,0.0,0.0,0.0,0.0,0.0,0.0,0.0,0.0,0.0,0.0,-3.1683,-3.1963,-3.3193,-3.5719,-3.5133,-3.5547,-3.7207,-3.6465,-3.6875,-3.8535,-3.8574,-3.9453,-4.1074,-4.1074,-4.1074,-4.1074,-4.1113,-4.1133,-4.1133,-4.1172,-4.1601,-4.2129,-4.0547,-4.0371,-4.0898,-3.9277,-3.7559,-3.6016,-3.6055,-3.4922,-3.3281,-3.2578,-3.3476,-3.4902,-3.4902,-3.7266,-3.9999,-3.9839,-4.0479,-4.1425,-4.2165,-4.2393,-4.2812,-4.4551,-4.3691,-4.2617,-4.3437,-4.3027,-4.2461,-4.2461,-4.3848,-4.4805,-4.3984,-4.5176,-4.6035,-4.5195,-4.6445,-4.7246,-4.6426,-4.7012,-4.7226,-4.6406,-4.6308,-4.6308,-4.6308,-4.6308,-4.6308,-4.6308,-4.6308,-4.6308,-4.6308,-4.6308,-4.6308,-4.6308,-4.6308,-4.6308,-4.6308,-4.6308,-4.6308,-4.6308,-4.6308,-4.5879,-4.5078,-4.5019,-4.4512,-4.3652,-4.2773,-4.2383,-4.2285,-4.1504,-4.1191,-4.1191,-4.1191,-4.1126,-4.0996,-4.0992,-4.0875,-4.0697,0.0,0.0,0.0,0.0,0.0,0.0,0.0,0.0,0.0,0.0,0.0,0.0,0.0,0.0,0.0,0.0,0.0,0.0,-3.1736,-3.2443,-3.3445,-3.4875,-3.5355,-3.5834,-3.6328,-3.6758,-3.7187,-3.7637,-3.8281,-3.8828,-3.9258,-3.9258,-3.9258,-3.9297,-3.9941,-4.0234,-4.0273,-4.0918,-4.0937,-4.0508,-4.0078,-3.9648,-3.9297,-3.9492,-3.8086,-3.6094,-3.6738,-3.543,-3.3476,-3.3906,-3.5644,-3.7617,-3.7617,-3.9512,-4.1641,-4.0994,-4.1425,-4.2285,-4.3123,-4.287,-4.2812,-4.4551,-4.3691,-4.2461,-4.2676,-4.3066,-4.3379,-4.3379,-4.4766,-4.5898,-4.5683,-4.5996,-4.623,-4.5996,-4.6348,-4.6543,-4.6328,-4.6484,-4.6543,-4.6328,-4.6308,-4.6308,-4.6308,-4.6308,-4.6308,-4.6308,-4.6308,-4.6308,-4.6308,-4.6308,-4.6308,-4.6308,-4.6308,-4.6308,-4.6308,-4.6308,-4.6308,-4.6308,-4.6308,-4.6172,-4.5957,-4.5293,-4.4512,-4.3652,-4.2773,-4.2051,-4.1484,-4.1289,-4.1191,-4.1191,-4.1191,-4.1126,-4.099,-4.0899,-4.079,-4.068,0.0,0.0,0.0,0.0,0.0,0.0,0.0,0.0,0.0,0.0,0.0,0.0,0.0,0.0,0.0,0.0,0.0,0.0,0.0,-3.1671,-3.2384,-3.3323,-3.353,-3.3811,-3.4233,-3.4413,-3.5234,-3.6738,-3.6445,-3.7109,-3.8574,-3.7812,-3.7461,-3.75,-3.8379,-3.8769,-3.8828,-3.9687,-4.0,0.0,0.0,-3.8691,-3.8574,-3.8281,-3.7285,-3.6055,-3.6543,-3.6523,-3.6387,-3.7266,-3.8262,-3.9297,-4.0039,-4.125,-4.2305,-4.1855,-4.1797,-4.2051,-4.2891,-4.2773,-4.2734,-4.4082,-4.3418,-4.2402,-4.2402,-4.2773,-4.3125,-4.3125,-4.4512,-4.5605,-4.5234,-4.5781,-4.6172,-4.5781,-4.6367,-4.6738,-4.6348,-4.6621,-4.6738,-4.6348,-4.6308,-4.6308,-4.6308,-4.6308,-4.6308,-4.6308,-4.6308,-4.6308,-4.6308,-4.6308,-4.6308,-4.6308,-4.6308,-4.6308,-4.6308,-4.6308,-4.6308,-4.6308,-4.6308,-4.6308,-4.6269,-4.5391,-4.4726,-4.4199,-4.2949,-4.2148,-4.1699,-4.1348,-4.1191,-4.1191,-4.1191,-4.108,-4.0908,-4.0839,-4.0727,-4.0596,0.0,0.0,0.0,0.0,0.0,0.0,0.0,0.0,0.0,-3.1154,-3.0885,-3.0731,-3.0731,-3.0731,0.0,0.0,0.0,0.0,0.0,0.0,-3.0993,-3.1775,-3.107,-3.1094,-3.1983,-3.1362,-3.2519,-3.5508,-3.4082,-3.4941,-3.7871,-3.6367,-3.5723,-3.5879,-3.6738,-3.7187,-3.7363,-3.8223,-3.8965,-3.9434,-3.8027,-3.7851,-3.8262,0.0,-3.623,-3.6348,-3.6348,-3.7871,-4.0059,-4.1035,-4.1016,-4.082,-4.2285,-4.2812,-4.2871,-4.2637,-4.207,-4.166,-4.2246,-4.2324,-4.2441,-4.3301,-4.2871,-4.2246,-4.2246,-4.2324,-4.2402,-4.2402,-4.3691,-4.4609,-4.3848,-4.4941,-4.5742,-4.5098,0.0,-4.7031,-4.6387,-4.6953,-4.7148,-4.6387,-4.6308,-4.6308,-4.6308,-4.6308,-4.6308,-4.6308,-4.6308,-4.6308,-4.6308,-4.6308,-4.6308,-4.6308,-4.6308,-4.6308,-4.6308,-4.6308,-4.6308,-4.6308,-4.6308,-4.6308,-4.6269,-4.5391,-4.4941,-4.4746,-4.3105,-4.2344,-4.2187,-4.1484,-4.1191,-4.1191,-4.1171,-4.1023,-4.0797,-4.0781,-4.0663,-4.0496,0.0,0.0,0.0,0.0,0.0,0.0,0.0,0.0,0.0,0.0,-3.3365,-3.2468,0.0,0.0,0.0,0.0,0.0,0.0,0.0,0.0,0.0,-3.1796,-3.0982,-3.0996,-3.1973,-3.187,-3.214,-3.2851,-3.3223,-3.3711,-3.4297,-3.3984,-3.4238,-3.4961,-3.584,-3.6621,-3.7363,-3.8223,-3.8262,-3.7793,-3.8203,-3.8027,-3.748,-3.7187,0.0,0.0,-3.8144,-3.8906,-4.0137,-4.168,-4.3047,-4.418,-4.4453,-4.5039,-4.5332,-4.3906,-4.3379,-4.3144,-4.2558,-4.1914,-4.1601,-4.2422,-4.2012,-4.1406,-4.1406,-4.1914,-4.2402,-4.2402,-4.3203,-4.3887,-4.373,-4.3945,-4.4336,-4.4902,-4.5254,-4.5644,-4.6211,-4.6426,-4.6465,0.0,-4.6308,-4.6308,-4.6308,-4.6308,-4.6308,-4.6308,-4.6308,-4.6308,-4.6308,-4.6308,-4.6308,-4.6308,-4.6308,-4.6308,-4.6308,-4.6308,-4.6308,-4.6308,-4.6308,-4.6308,-4.6269,-4.5391,-4.4609,-4.3867,-4.2832,-4.2012,-4.1406,-4.1269,-4.1191,-4.1191,-4.108,-4.0947,-4.0789,-4.0742,-4.0623,-4.0496,0.0,0.0,0.0,0.0,0.0,0.0,0.0,-3.5238,-3.5988,-3.7296,-3.7103,-3.618,-3.4449,-3.3853,-3.3391,0.0,0.0,0.0,0.0,0.0,0.0,-3.1744,0.0,0.0,-3.1216,-3.1293,-3.1797,-3.2766,0.0,-3.2559,-3.3398,-3.2969,-3.3008,-3.3457,-3.4746,-3.5566,-3.5996,-3.6875,-3.7012,-3.6699,-3.7578,-3.7676,-3.7344,0.0,0.0,0.0,-3.9101,-3.9844,-4.0762,-4.1992,-4.3555,-4.5078,-4.5527,-4.5644,-4.5371,-4.4082,-4.3379,-4.2832,-4.1992,-4.1484,-4.1289,-4.168,-4.1484,-4.1191,-4.1191,-4.1504,-4.1777,-4.1777,-4.2441,-4.2891,-4.248,-4.3105,-4.3848,-4.4258,-4.4707,-4.5293,-4.6172,-4.6308,-4.6308,-4.6308,-4.6308,-4.6308,-4.6308,-4.6308,-4.6308,-4.6308,-4.6308,-4.6308,-4.6308,-4.6308,-4.6308,-4.6308,-4.6308,-4.6308,-4.6308,-4.6308,-4.6308,-4.6308,-4.6308,-4.6055,-4.5586,-4.4726,-4.3848,-4.2988,-4.2148,-4.1562,-4.1191,-4.1191,-4.1191,-4.1191,-4.1052,-4.0917,-4.0785,-4.0715,-4.0616,-4.0496,0.0,0.0,0.0,0.0,0.0,0.0,0.0,-3.7142,-3.795,-3.9854,-4.0669,-3.9969,-3.7154,-3.5911,-3.4879,0.0,0.0,0.0,0.0,0.0,0.0,0.0,0.0,0.0,0.0,0.0,0.0,-3.3292,-3.2047,0.0,0.0,0.0,0.0,0.0,-3.4101,-3.4805,-3.5019,-3.5703,-3.5996,0.0,0.0,-3.7578,-3.7715,0.0,0.0,0.0,0.0,-4.0879,-4.1543,-4.2187,-4.3301,-4.4609,-4.5469,-4.5527,-4.5078,-4.4004,-4.3223,-4.2461,-4.1465,-4.1191,-4.1191,-4.1191,-4.1191,-4.1191,-4.1191,-4.1191,-4.1191,-4.1191,-4.1699,-4.1953,-4.1328,-4.2285,-4.3281,-4.3633,-4.4277,-4.5098,-4.6152,-4.6308,-4.6308,-4.6308,-4.6308,0.0,-4.6308,-4.6308,-4.6308,-4.6308,-4.6308,-4.6308,-4.6308,-4.6308,-4.6308,-4.6308,-4.6308,-4.6308,-4.6308,-4.6308,-4.6308,-4.6308,-4.6308,-4.584,-4.4961,-4.4101,-4.3223,-4.2363,-4.1543,-4.1191,-4.1191,-4.1191,-4.1191,-4.1172,-4.1023,-4.0883,-4.0781,-4.0682,-4.0582,-4.0496,0.0,0.0,0.0,0.0,0.0,0.0,0.0,-3.8546,-3.995,-4.2431,-4.2816,-4.2431,-4.1346,-3.9796,-3.8161,0.0,0.0,0.0,0.0,0.0,0.0,0.0,0.0,0.0,0.0,0.0,0.0,-3.3303,-3.3219,0.0,0.0,0.0,0.0,0.0,0.0,-3.5137,-3.5898,-3.5976,0.0,0.0,0.0,0.0,0.0,0.0,0.0,0.0,0.0,-4.2226,-4.2305,-4.2383,-4.2519,-4.2793,-4.3652,-4.4961,-4.5859,-4.4199,-4.3633,-4.3223,-4.1621,-4.1191,-4.1191,-4.1191,-4.1191,-4.1191,-4.1191,-4.1191,-4.1191,-4.1191,-4.1269,-4.1289,-4.1211,-4.1328,-4.1933,-4.3457,-4.3769,-4.4394,-4.6074,-4.6308,-4.6308,-4.6308,0.0,0.0,-4.6308,-4.6308,-4.6308,-4.6308,-4.6308,-4.6308,-4.6308,-4.6308,-4.6308,-4.6308,-4.6308,-4.6308,-4.6308,-4.6308,-4.6308,-4.6308,-4.6308,-4.584,-4.4961,-4.4101,-4.3223,-4.2363,-4.1543,-4.1191,-4.1191,-4.1191,-4.1191,-4.1171,-4.0917,-4.0809,-4.0773,-4.0597,-4.0512,-4.0496,0.0,0.0,0.0,0.0,0.0,0.0,-3.995,-4.0142,-4.1131,-4.4201,-4.4143,-4.3682,-4.3335,-4.2277,-4.0469,-3.7719,0.0,0.0,0.0,0.0,0.0,0.0,0.0,0.0,0.0,0.0,-3.3907,-3.4018,-3.4615,0.0,0.0,0.0,0.0,0.0,0.0,-3.6172,-3.5996,-3.5996,0.0,0.0,0.0,0.0,0.0,0.0,0.0,0.0,0.0,0.0,-4.3105,-4.2578,-4.2754,-4.3144,-4.2969,-4.375,-4.4609,-4.3906,-4.3691,-4.3437,-4.2246,-4.1562,-4.1191,-4.1191,-4.1191,-4.1191,-4.1191,-4.1191,-4.1191,-4.1191,-4.1191,-4.1191,-4.1191,-4.1191,-4.1758,-4.3437,-4.3691,-4.4316,-4.6055,-4.6308,-4.6308,-4.6308,-4.6308,-4.6308,-4.6308,-4.6308,-4.6308,-4.6308,-4.6308,-4.6308,-4.6308,-4.6308,-4.6308,-4.6308,-4.6308,-4.6055,-4.5527,-4.6035,-4.6035,-4.5527,-4.5527,-4.5058,-4.4199,-4.3301,-4.2461,-4.166,-4.1348,-4.1191,-4.1191,-4.1191,-4.115,-4.1055,-4.087,-4.0775,-4.0726,-4.0554,-4.0496,-4.0496,0.0,0.0,0.0,0.0,0.0,-3.8777,-4.1066,-4.1104,-4.1931,-4.4844,-4.4682,-4.4297,-4.4297,-4.3585,-4.2124,-3.9719,-3.8257,0.0,0.0,0.0,0.0,0.0,0.0,0.0,0.0,0.0,-3.549,-3.5616,-3.6555,-3.6935,0.0,0.0,-3.7598,-3.6777,0.0,0.0,0.0,0.0,0.0,0.0,0.0,0.0,0.0,0.0,0.0,0.0,0.0,0.0,0.0,0.0,0.0,-4.3164,-4.2305,-4.2637,-4.3379,-4.3613,-4.3516,-4.3183,-4.2578,-4.1816,-4.1191,-4.1191,-4.1191,-4.1191,-4.1191,-4.1191,-4.1191,-4.1191,-4.1191,-4.1191,-4.1191,-4.1191,-4.166,-4.3086,-4.3535,-4.4219,-4.5703,-4.6133,-4.6308,-4.6308,0.0,-4.6308,-4.6308,-4.6308,-4.6308,-4.6308,-4.6308,-4.6308,-4.6308,-4.6308,-4.6308,-4.6308,-4.6308,-4.6016,-4.5391,-4.5996,-4.5859,-4.5,-4.5,-4.4414,-4.3281,-4.2676,-4.1953,-4.1191,-4.1191,-4.1191,-4.1191,-4.1191,-4.1126,-4.099,-4.0857,-4.0767,-4.068,-4.0545,-4.0496,-4.0496,0.0,0.0,0.0,0.0,0.0,0.0,-4.0265,-4.1239,-4.2393,-4.4085,-4.4316,-4.4297,-4.4297,-4.3585,-4.3085,-4.3047,-4.0719,0.0,0.0,0.0,0.0,0.0,0.0,0.0,0.0,0.0,-3.8132,-3.8256,-3.919,-3.9298,-3.8594,-3.9473,-3.9414,-3.8535,0.0,0.0,0.0,0.0,0.0,0.0,0.0,0.0,-4.3789,0.0,0.0,0.0,0.0,0.0,0.0,0.0,0.0,0.0,0.0,-4.1777,-4.2578,-4.3457,-4.3086,-4.2402,-4.2402,-4.1816,-4.1191,-4.1191,-4.1191,-4.1191,-4.1191,-4.1191,-4.1191,-4.1191,-4.1191,-4.1191,-4.1191,-4.1191,-4.1465,-4.2285,-4.3144,-4.4004,-4.4883,-4.5762,-4.6308,0.0,-4.6308,-4.6308,-4.6308,-4.6308,-4.6308,-4.6308,-4.6308,-4.6308,-4.6308,-4.6308,-4.6308,-4.6308,-4.6308,-4.6308,-4.6289,-4.6308,-4.5859,-4.5,-4.5,-4.4082,-4.2402,-4.2402,-4.1953,-4.1191,-4.1191,-4.1191,-4.1191,-4.1191,-4.1126,-4.099,-4.0857,-4.0767,-4.068,-4.0545,-4.0496,-4.0496,0.0,0.0,0.0,0.0,0.0,0.0,0.0,-4.1123,-4.172,-4.3989,-4.3297,-4.3258,-4.4998,-4.3932,-4.3316,-4.3874,-4.1593,0.0,0.0,0.0,0.0,0.0,0.0,0.0,0.0,-3.9225,-3.9937,-4.0073,-4.1615,-4.2268,-4.207,-4.1758,-4.1172,-4.0332,-3.9473,-3.875,0.0,0.0,0.0,0.0,0.0,-4.4101,-4.4551,0.0,0.0,0.0,0.0,0.0,0.0,0.0,0.0,0.0,0.0,0.0,0.0,-4.2578,-4.2617,-4.2402,-4.2402,-4.1816,-4.1191,-4.1191,-4.1191,-4.1191,-4.1191,-4.1191,-4.1191,-4.1191,-4.1191,-4.1191,-4.1191,-4.1191,-4.166,-4.3066,-4.3516,-4.4219,-4.5683,0.0,0.0,-4.6308,-4.6308,-4.6308,-4.6308,-4.6308,-4.6308,-4.6308,-4.6308,-4.6308,-4.6308,-4.6308,-4.6308,-4.6308,-4.6308,-4.5723,-4.4531,-4.5703,-4.5254,-4.3223,-4.3828,-4.3516,-4.2383,-4.1836,-4.1445,-4.1191,-4.1191,-4.1191,-4.1191,-4.1191,-4.1076,-4.086,-4.0813,-4.0692,-4.0559,-4.0519,-4.0496,-4.0496,0.0,0.0,0.0,0.0,0.0,0.0,0.0,-4.0931,-4.1431,-4.2701,-4.2239,-4.2643,-4.4883,-4.3912,-4.3566,-4.4682,-4.3036,0.0,0.0,0.0,0.0,0.0,0.0,0.0,-3.8999,-4.0145,-4.0963,-4.1428,-4.2897,-4.3636,-4.3691,-4.3476,-4.2754,-4.1621,-4.0762,-3.9902,0.0,0.0,0.0,0.0,-4.4238,-4.5195,-4.5391,0.0,0.0,0.0,0.0,0.0,0.0,0.0,0.0,0.0,0.0,0.0,0.0,0.0,-4.1465,-4.1582,-4.2226,-4.1816,-4.1191,-4.1191,-4.1191,-4.1191,-4.1191,-4.1191,-4.1191,-4.1191,-4.1191,-4.1191,-4.1191,-4.1191,-4.1543,-4.2598,-4.3281,-4.4082,-4.5176,0.0,0.0,-4.6308,-4.6308,-4.6308,-4.6308,-4.6308,-4.6308,-4.6308,-4.6308,-4.6308,-4.6308,-4.5996,-4.5801,-4.5801,-4.5801,-4.5137,-4.3711,-4.4785,-4.4336,-4.2402,-4.2949,-4.2773,-4.1933,-4.1426,-4.1191,-4.1191,-4.1191,-4.1191,0.0,-4.1149,-4.0994,-4.0793,-4.077,-4.0653,-4.0496,-4.0496,-4.0496,-4.0496,0.0,0.0,0.0,0.0,0.0,0.0,0.0,-4.0623,-4.1354,-4.0593,-4.12,-4.2374,-4.4105,-4.3585,-4.3778,-4.546,0.0,0.0,0.0,0.0,0.0,0.0,0.0,0.0,-4.0678,-4.0906,-4.1458,-4.2383,-4.3326,-4.3814,-4.3906,-4.4648,-4.4101,-4.2461,-4.1641,-4.0801,0.0,0.0,0.0,0.0,-4.4726,-4.5547,0.0,0.0,0.0,0.0,0.0,0.0,0.0,0.0,0.0,0.0,0.0,0.0,0.0,0.0,0.0,0.0,0.0,-4.168,-4.1113,-4.1172,-4.1191,-4.1191,-4.1191,-4.1191,0.0,-4.1191,-4.1191,-4.1211,-4.1269,-4.123,-4.123,-4.1367,-4.2676,-4.3711,-4.3789,-4.5234,0.0,0.0,-4.6308,-4.6308,-4.6308,-4.6308,-4.6308,-4.6308,-4.6308,-4.6308,-4.6308,-4.5469,-4.4961,-4.4902,-4.4844,-4.4433,-4.3613,-4.3672,-4.3223,-4.2324,-4.2363,-4.1973,-4.1191,-4.1191,-4.1191,-4.1191,-4.1191,-4.1191,-4.1191,-4.1076,-4.0925,-4.0789,-4.0731,-4.061,-4.0496,-4.0496,-4.0496,-4.0496,0.0,0.0,0.0,0.0,0.0,0.0,0.0,0.0,0.0,0.0,-4.0689,-4.17,-4.4047,-4.3585,-4.3778,0.0,0.0,0.0,0.0,0.0,0.0,0.0,0.0,0.0,-4.0697,-4.2174,-4.3056,-4.3283,-4.4894,-4.5663,-4.5683,-4.5215,-4.4433,-4.3359,-4.25,-4.166,0.0,0.0,0.0,0.0,-4.5371,-4.5723,0.0,0.0,0.0,0.0,-4.207,-4.2187,0.0,0.0,0.0,0.0,0.0,0.0,0.0,0.0,-3.9434,-3.9141,-4.0195,0.0,-4.0371,-4.1035,-4.1191,-4.1191,0.0,-4.1191,-4.1191,-4.1191,-4.1191,-4.1387,-4.1992,-4.1601,-4.1621,-4.2891,-4.3437,-4.3926,-4.4609,-4.5625,0.0,-4.6308,-4.6308,-4.6308,-4.6308,-4.6308,-4.6308,-4.6308,-4.6308,-4.6308,-4.6308,-4.5469,-4.4687,-4.4023,-4.3359,-4.291,-4.2715,-4.3379,-4.2949,-4.1484,-4.2109,-4.1973,-4.1191,-4.1191,-4.1191,-4.1191,-4.1191,-4.1191,-4.1191,-4.1171,-4.1002,-4.0797,-4.0788,-4.0657,-4.0496,-4.0496,-4.0496,-4.0419,0.0,0.0,0.0,0.0,0.0,0.0,0.0,0.0,0.0,0.0,0.0,-4.1189,-4.297,-4.3124,0.0,0.0,0.0,0.0,0.0,0.0,0.0,0.0,0.0,-4.0767,-4.0843,-4.228,-4.325,-4.3642,-4.5038,-4.5918,-4.6289,-4.582,-4.4922,-4.3652,-4.2402,-4.1601,0.0,0.0,0.0,-4.3828,-4.5156,0.0,0.0,0.0,0.0,0.0,-4.1484,-4.1484,0.0,-4.2734,-4.248,-4.1973,0.0,0.0,0.0,0.0,-3.8691,-3.8105,-3.8574,-3.957,-4.0703,-4.1543,-4.1758,-4.1641,-4.1289,-4.0898,-4.0605,-4.0605,-4.0605,-4.0859,-4.1699,-4.1797,-4.2051,-4.2969,-4.3769,-4.4609,0.0,0.0,-4.6308,-4.6308,-4.6308,-4.6308,-4.6308,-4.6308,-4.6308,-4.6308,-4.6308,-4.6133,-4.5723,-4.4883,-4.4004,-4.3125,-4.2285,-4.1855,-4.1855,-4.2324,-4.2109,-4.1211,-4.1641,-4.1621,-4.1191,-4.1191,-4.1191,-4.1191,-4.1191,-4.1191,-4.1191,-4.1076,-4.0925,-4.0789,-4.0698,-4.0597,-4.0496,-4.0496,-4.0265,-3.99,0.0,0.0,0.0,0.0,0.0,0.0,0.0,0.0,0.0,0.0,0.0,0.0,0.0,0.0,0.0,0.0,0.0,0.0,0.0,0.0,0.0,0.0,-4.1388,-4.0922,-4.1189,-4.2125,-4.3027,-4.3906,-4.4902,-4.5703,-4.6308,-4.6445,-4.5508,-4.3633,-4.207,-4.1308,0.0,0.0,-4.3574,-4.3769,-4.4492,0.0,0.0,0.0,0.0,0.0,0.0,0.0,0.0,-4.2695,-4.2266,-4.1406,-4.2558,0.0,0.0,0.0,0.0,0.0,-3.7598,-3.9414,-4.1328,-4.1875,-4.2129,-4.1992,-4.1191,-4.0332,-3.9746,-3.9863,-3.9902,-4.0234,-4.1367,-4.2031,-4.248,-4.2754,-4.4043,-4.5293,-4.6172,-4.6308,-4.6308,-4.6308,-4.6308,-4.6308,-4.6308,-4.6308,-4.6308,-4.6308,-4.6172,-4.5781,-4.5039,-4.4043,-4.3164,-4.2422,-4.1621,-4.1191,-4.1191,-4.1191,-4.1191,-4.1191,-4.1191,-4.1191,-4.1191,-4.1191,-4.1191,-4.1191,-4.1191,-4.1191,-4.1171,-4.0925,-4.0813,-4.0777,-4.0597,-4.0519,-4.0496,-4.0496,-3.9996,-3.9265,0.0,0.0,0.0,0.0,0.0,0.0,0.0,0.0,0.0,0.0,0.0,0.0,0.0,0.0,0.0,0.0,0.0,0.0,0.0,0.0,0.0,-4.4278,-4.2054,-4.1218,-4.2089,-4.3023,-4.3926,-4.4805,-4.6406,-4.6894,-4.6328,-4.7051,-4.6074,-4.3652,-4.2656,-4.1836,-4.1269,-4.2207,-4.3027,-4.3711,-4.3848,0.0,0.0,0.0,0.0,0.0,0.0,0.0,0.0,-4.0644,-4.0801,-4.0996,-3.9766,0.0,0.0,0.0,0.0,0.0,-3.8906,-4.0332,-4.1055,-4.0449,-4.084,-4.1152,-4.0293,-3.9434,-3.9004,-3.9746,-3.9902,-4.0605,-4.2891,-4.2812,-4.2871,-4.4355,-4.4824,-4.5293,-4.6172,-4.6308,-4.6308,-4.6308,-4.6308,-4.6308,-4.6308,-4.6308,-4.6308,-4.6308,-4.5625,-4.5137,-4.5019,-4.3476,-4.2539,-4.2402,-4.1621,-4.1191,-4.1191,-4.1191,-4.1191,-4.1191,-4.1191,-4.1191,-4.1191,-4.1191,-4.1191,-4.1191,-4.1191,-4.1191,-4.1191,-4.1026,-4.0908,-4.0785,-4.0693,-4.0596,-4.0496,-4.0496,-3.9996,-3.9092,0.0,0.0,0.0,0.0,0.0,0.0,0.0,0.0,0.0,0.0,0.0,0.0,0.0,0.0,0.0,0.0,0.0,0.0,0.0,0.0,0.0,-4.4699,-4.3169,-4.2549,-4.3058,-4.3944,-4.4824,-4.5703,-4.6973,-4.7637,-4.7676,-4.668,-4.5293,-4.3633,-4.2324,-4.1543,-4.125,-4.2051,-4.2637,-4.3008,0.0,0.0,0.0,0.0,0.0,0.0,0.0,0.0,0.0,0.0,-4.0176,-4.0351,-3.9551,0.0,0.0,0.0,0.0,0.0,-3.7461,-3.9121,-4.0391,-4.0,-4.1582,-4.3027,-4.2148,-4.1289,-4.0644,-4.0605,-4.0605,-4.1094,-4.2695,-4.3066,-4.3672,-4.543,-4.5703,-4.584,-4.623,-4.6308,-4.6308,-4.6308,-4.6308,-4.6308,-4.6308,-4.6308,-4.6094,-4.5625,-4.5234,-4.459,-4.3652,-4.2832,-4.2207,-4.1777,-4.1387,-4.1191,-4.1191,-4.1191,-4.1191,-4.1191,-4.1191,-4.1191,-4.1191,-4.1191,-4.1191,-4.1191,-4.1191,-4.1191,-4.1172,-4.0986,-4.086,-4.0781,-4.0648,-4.0282,-3.9746,-3.8796,-3.8219,-3.7719,0.0,0.0,0.0,0.0,0.0,0.0,0.0,0.0,0.0,0.0,0.0,0.0,0.0,0.0,0.0,0.0,0.0,0.0,0.0,0.0,-4.486,-4.5013,-4.4484,-4.4123,-4.4004,-4.4863,-4.5723,-4.6601,-4.7676,-4.8457,-4.8848,-4.6211,-4.4531,-4.3633,-4.2148,-4.1387,-4.123,-4.1855,-4.2226,-4.2383,0.0,0.0,0.0,0.0,0.0,0.0,0.0,0.0,0.0,0.0,0.0,0.0,0.0,0.0,0.0,-3.7246,-3.6523,-3.6094,-3.6504,-3.8066,-3.9687,-4.0098,-4.2012,-4.373,-4.3457,-4.2422,-4.1504,-4.1484,-4.1484,-4.1797,-4.2812,-4.3711,-4.4746,-4.6074,-4.6308,-4.6308,-4.6308,-4.6308,-4.6308,-4.6308,-4.6308,-4.6308,-4.6308,-4.6308,-4.5937,-4.5078,-4.4805,-4.4023,-4.248,-4.2226,-4.1836,-4.1211,-4.1191,-4.1191,-4.1191,-4.1191,-4.1191,-4.1191,-4.1191,-4.1191,-4.1191,-4.1191,-4.1191,-4.1191,-4.1191,-4.1171,-4.1129,-4.0905,-4.0785,-4.0757,-4.057,-4.0015,-3.9092,-3.7334,-3.6692,-3.6577,0.0,0.0,0.0,0.0,0.0,0.0,0.0,0.0,0.0,0.0,0.0,0.0,0.0,0.0,0.0,0.0,0.0,0.0,0.0,0.0,-4.5783,-4.5999,-4.595,-4.5605,-4.4922,-4.5762,-4.6621,-4.7519,-4.9199,-4.9629,-4.8848,-4.6211,-4.4531,-4.3652,-4.2734,-4.1894,-4.1191,-4.1269,-4.1719,-4.2324,-4.1582,0.0,0.0,0.0,0.0,0.0,0.0,0.0,0.0,0.0,0.0,0.0,0.0,0.0,-3.7226,-3.6348,-3.6055,-3.6348,-3.7969,-3.8555,-3.9082,-4.0703,-4.0684,-4.0664,-4.2148,-4.0625,-3.9531,-4.1836,-4.2305,-4.2832,-4.4492,-4.5527,-4.6152,-4.6289,-4.6308,-4.6308,-4.6308,-4.6308,-4.6308,-4.6308,-4.6308,-4.6308,-4.6308,-4.6308,-4.5937,-4.5078,-4.4258,-4.3398,-4.2441,-4.1699,-4.1269,-4.1191,-4.1191,-4.1191,-4.1191,-4.1191,-4.1191,-4.1191,-4.1191,-4.1191,-4.1191,-4.1191,-4.1191,-4.1191,-4.1191,-4.1128,-4.0996,-4.086,-4.0757,-4.0697,-4.0559,-4.0015,-3.9092,-3.7334,-3.6692,-3.6577,0.0,0.0,0.0,0.0,0.0,0.0,0.0,0.0,0.0,0.0,0.0,0.0,0.0,0.0,0.0,0.0,0.0,0.0,0.0,-4.5434,-4.6011,-4.6106,-4.6175,-4.5837,-4.5019,-4.6387,-4.7793,-4.9219,-4.9883,-4.9746,-4.8848,-4.6777,-4.5058,-4.3652,-4.2793,-4.2226,-4.1914,-4.1406,-4.166,-4.2324,-4.1523,-4.1387,0.0,0.0,0.0,0.0,0.0,0.0,0.0,0.0,-3.7344,-3.7637,-3.6777,-3.6855,-3.7129,-3.6269,-3.5625,-3.5332,-3.5996,-3.7363,-3.8769,-3.9414,-4.0156,-4.1152,-4.2832,-4.2871,-4.2851,-4.3828,-4.4023,-4.4219,-4.4883,-4.5703,-4.6308,-4.6308,-4.6308,-4.6308,-4.6308,-4.6308,-4.6308,-4.6308,-4.6308,-4.6308,-4.6308,-4.5801,-4.5137,-4.4258,-4.3379,-4.2539,-4.1699,-4.1367,-4.1191,-4.1191,-4.1191,-4.1191,-4.1191,-4.1191,-4.1191,-4.1191,-4.1191,-4.1191,-4.1191,-4.1191,-4.1191,-4.1191,-4.1191,-4.1127,-4.0992,-4.086,-4.0441,-3.9762,-3.8605,-3.795,-3.7546,-3.6385,-3.5942,-3.5904,0.0,0.0,0.0,0.0,0.0,0.0,0.0,0.0,0.0,0.0,0.0,0.0,0.0,0.0,0.0,0.0,0.0,0.0,-4.3738,-4.4686,-4.5277,-4.535,-4.5427,-4.5469,-4.541,-4.6582,-4.791,-4.9375,-4.9648,-4.9336,-4.8457,-4.6719,-4.5254,-4.4062,-4.3203,-4.2812,-4.2754,-4.1933,-4.1894,-4.2324,-4.1523,-4.1191,0.0,0.0,0.0,0.0,0.0,0.0,0.0,0.0,-3.6621,-3.6836,-3.6504,-3.6621,-3.6719,-3.5859,-3.5742,-3.5879,-3.5605,-3.7031,-3.873,-3.9277,-4.0117,-4.1308,-4.3262,-4.3945,-4.4414,-4.5234,-4.5195,-4.5078,-4.5351,-4.5664,-4.5976,-4.6269,-4.6308,-4.6308,-4.6308,-4.6308,-4.6308,-4.6308,-4.6308,-4.6191,-4.5918,-4.5351,-4.4512,-4.3379,-4.2734,-4.2051,-4.123,-4.1191,-4.1191,-4.1191,-4.1191,-4.1191,-4.1191,-4.1191,-4.1191,-4.1191,-4.1191,-4.1191,-4.1191,-4.1191,-4.1191,-4.1191,-4.1191,-4.1103,-4.0925,-4.0847,-4.0228,-3.9193,-3.7403,-3.6692,-3.6596,-3.5808,-3.55,-3.55,0.0,0.0,0.0,0.0,0.0,0.0,0.0,0.0,0.0,0.0,0.0,0.0,0.0,0.0,0.0,0.0,0.0,0.0,-4.2097,-4.2926,-4.3493,-4.3691,-4.3711,-4.4512,-4.623,-4.6289,-4.6738,-4.7617,-4.8457,-4.8437,-4.7558,-4.582,-4.5,-4.4961,-4.4101,-4.3711,-4.3633,-4.2773,-4.2402,-4.2324,-4.1523,-4.1191,-4.1016,0.0,0.0,0.0,0.0,0.0,0.0,0.0,-3.6719,-3.6152,-3.7012,-3.6699,-3.584,-3.4961,-3.6523,-3.8379,-3.75,-3.793,-3.9004,-4.0742,-4.0566,-4.0605,-4.3144,-4.3047,-4.3164,-4.5762,-4.5605,-4.5273,-4.6133,-4.5586,-4.5293,-4.6152,-4.6308,-4.6308,-4.6308,-4.6308,-4.6308,-4.6308,-4.6308,-4.5957,-4.5078,-4.498,-4.4277,-4.2539,-4.2383,-4.2031,-4.123,-4.1191,-4.1191,-4.1191,-4.1191,-4.1191,-4.1191,-4.1191,-4.1191,-4.1191,-4.1191,-4.1191,-4.1191,-4.1191,-4.1191,-4.1191,-4.1191,-4.1051,-4.0797,-4.0778,-4.0186,-3.9111,-3.7373,-3.6692,-3.6596,-3.5788,-3.55,-3.55,0.0,0.0,0.0,0.0,0.0,0.0,0.0,0.0,0.0,0.0,0.0,0.0,0.0,0.0,0.0,0.0,0.0,0.0,-4.3015,-4.3387,-4.3645,-4.3691,-4.4297,-4.457,-4.4473,-4.5664,-4.7031,-4.8516,-4.7558,-4.7246,-4.7558,-4.582,-4.5,-4.498,-4.4726,-4.4277,-4.3633,-4.2773,-4.2402,-4.2324,-4.1523,-4.1191,-4.1016,0.0,0.0,0.0,0.0,0.0,0.0,0.0,0.0,0.0,-3.6309,-3.6621,-3.6621,-3.5137,-3.5254,-3.5664,-3.4785,-3.6543,-3.8711,-3.9238,-4.1445,-4.3691,-4.4433,-4.4414,-4.4629,-4.6016,-4.6094,-4.5996,-4.625,-4.6094,-4.5996,-4.6269,-4.6308,-4.6308,-4.6308,-4.6308,-4.6308,-4.6308,-4.6308,-4.5957,-4.5078,-4.4453,-4.3613,-4.248,-4.1875,-4.1445,-4.1211,-4.1191,-4.1191,-4.1191,-4.1191,-4.1191,-4.1191,-4.1191,-4.1191,-4.1191,-4.1191,-4.1191,-4.1191,-4.1191,-4.1191,-4.1191,-4.1191,-4.1051,-4.0692,-3.9387,-3.8285,-3.7353,-3.6269,-3.5865,-3.5827,-3.5596,-3.55,-3.55,0.0,0.0,0.0,0.0,0.0,0.0,0.0,0.0,0.0,0.0,-4.5056,-4.5267,0.0,0.0,0.0,-4.4369,-4.3445,-4.2873,-4.2958,-4.2744,-4.279,-4.3164,-4.3691,-4.4043,-4.4219,-4.5254,-4.6308,-4.7344,-4.6641,-4.6387,-4.6543,-4.5488,-4.5176,-4.5527,-4.5527,-4.4844,-4.3633,-4.2773,-4.2226,-4.1875,-4.1406,-4.0996,-4.0566,0.0,0.0,0.0,0.0,0.0,0.0,0.0,0.0,0.0,-3.5996,-3.6113,-3.6191,-3.584,-3.6211,-3.6797,-3.6934,-3.8769,-4.0781,-4.1484,-4.3086,-4.4668,-4.5351,-4.5527,-4.5664,-4.6191,-4.6016,-4.5898,-4.623,-4.6016,-4.5898,-4.623,-4.6308,-4.6308,-4.6308,-4.6308,-4.6308,-4.6308,-4.6308,-4.582,-4.4609,-4.4004,-4.3203,-4.2012,-4.1465,-4.1191,-4.1191,-4.1191,-4.1191,-4.1191,-4.1191,-4.1191,-4.1191,-4.1191,-4.1191,-4.1191,-4.1191,-4.1191,-4.1191,-4.1191,-4.1191,-4.1191,-4.1081,-4.0779,-4.0202,-3.8646,-3.7488,-3.6615,-3.5808,-3.55,-3.55,-3.55,-3.55,-3.55,0.0,0.0,0.0,0.0,0.0,0.0,0.0,0.0,0.0,-4.4201,-4.4932,-4.5152,0.0,0.0,0.0,-4.4376,-4.2935,-4.2107,-4.2297,-4.1507,-4.143,-4.2363,-4.2558,-4.3418,-4.5078,-4.5039,-4.4961,-4.4883,-4.5605,-4.5625,-4.5,-4.4922,-4.5391,-4.6308,-4.6211,-4.5215,-4.3516,-4.2656,-4.1777,-4.0957,-4.0957,-4.0488,-3.9766,-3.9687,0.0,0.0,0.0,0.0,0.0,0.0,0.0,0.0,-3.5996,-3.5469,-3.5098,-3.6523,-3.8242,-3.998,-4.1426,-4.2676,-4.3984,-4.5644,-4.498,-4.4355,-4.5937,-4.6308,-4.6308,-4.6308,-4.5664,-4.5351,-4.6152,-4.5644,-4.5371,-4.6172,-4.6308,-4.6308,-4.6308,-4.6308,-4.6308,-4.6308,-4.6308,-4.5625,-4.3867,-4.3691,-4.3008,-4.1328,-4.1191,-4.1191,-4.1191,-4.1191,-4.1191,-4.1191,-4.1191,-4.1191,-4.1191,-4.1191,-4.1191,-4.1191,-4.1191,-4.1191,-4.1191,-4.1191,-4.1191,-4.1191,-4.0917,-4.0295,-3.9393,-3.8415,-3.745,-3.6519,-3.5788,-3.55,-3.55,-3.55,-3.55,-3.55,0.0,0.0,0.0,0.0,0.0,0.0,0.0,0.0,-4.4066,-4.3431,-4.4066,-4.4259,-4.3451,-4.3419,0.0,-4.3479,-4.273,-4.2248,-4.2297,-4.1571,-4.1522,-4.2363,-4.3711,-4.4941,-4.5996,-4.5351,-4.4668,-4.3984,-4.3476,-4.3848,-4.498,-4.4297,-4.4805,-4.6269,-4.5586,-4.4316,-4.2637,-4.1816,-4.0566,-3.916,-3.916,-3.9043,-3.8809,-3.8125,-3.7637,0.0,0.0,0.0,0.0,0.0,0.0,0.0,-3.5996,-3.5879,-3.5527,-3.4531,-3.5957,-3.7793,-3.7461,-3.9961,-4.293,-4.3984,-4.5019,-4.584,-4.6211,-4.6308,-4.6308,-4.6308,-4.6152,-4.6074,-4.6269,-4.6152,-4.6074,-4.6269,-4.6308,-4.6308,-4.6308,-4.6308,-4.6308,-4.6308,-4.6308,-4.5625,-4.3867,-4.3691,-4.3008,-4.1328,-4.1191,-4.1191,-4.1191,-4.1191,-4.1191,-4.1191,-4.1191,-4.1191,-4.1191,-4.1191,-4.1191,-4.1191,-4.1191,-4.1191,-4.1191,-4.1191,-4.1191,-4.1191,-4.0917,-3.9949,-3.8548,-3.817,-3.7103,-3.5731,-3.5577,-3.55,-3.55,-3.55,-3.55,-3.55,0.0,0.0,0.0,0.0,0.0,0.0,0.0,0.0,-4.4143,-4.372,-4.4047,-4.4143,-4.372,-4.339,0.0,0.0,-4.2682,-4.2309,-4.235,-4.1639,-4.1758,-4.2969,-4.4687,-4.5644,-4.5683,-4.4824,-4.3945,-4.3086,-4.1816,-4.207,-4.375,-4.3281,-4.3789,-4.5019,-4.4141,-4.2793,-4.1152,-4.0312,-3.9199,-3.8008,-3.8437,-3.8105,-3.7344,-3.7305,-3.6777,-3.5996,-3.5547,0.0,0.0,0.0,0.0,0.0,0.0,0.0,-3.4824,-3.5176,-3.5937,-3.7031,-3.8633,-4.0996,-4.332,-4.4629,-4.5625,-4.6308,-4.6308,-4.6308,-4.6308,-4.6308,-4.6308,-4.6308,-4.6308,-4.6308,-4.6308,-4.6308,-4.6308,-4.6308,-4.6308,-4.6308,-4.6308,-4.6308,-4.6308,-4.5781,-4.4453,-4.3945,-4.3164,-4.1875,-4.1426,-4.1191,-4.1191,-4.1191,-4.1191,-4.1191,-4.1191,-4.1191,-4.1191,-4.1191,-4.1191,-4.1191,-4.1191,-4.1191,-4.1191,-4.1191,-4.1191,-4.1152,-4.051,-3.9485,-3.8259,-3.7629,-3.6635,-3.55,-3.55,-3.55,-3.55,-3.55,-3.55,-3.55,0.0,0.0,0.0,0.0,0.0,0.0,0.0,0.0,0.0,-4.4085,-4.41,-4.4105,-4.4105,-4.3189,-4.2636,0.0,0.0,0.0,-4.1953,-4.1621,-4.2031,-4.3418,-4.5,-4.5508,-4.4785,-4.3789,-4.293,-4.2187,-4.0508,-4.0547,-4.2187,-4.2187,-4.2734,-4.3652,-4.2637,-4.1269,-3.9609,-3.8574,-3.7559,-3.6699,-3.7402,-3.6836,-3.5625,-3.6348,-3.5723,-3.4473,-3.4473,-3.4941,-3.5566,-3.5723,0.0,0.0,0.0,0.0,-3.3613,-3.5781,-3.6113,-3.6523,-3.9922,-4.2031,-4.3769,-4.5781,-4.6308,-4.6308,-4.6308,-4.6308,-4.6308,-4.6308,-4.6308,-4.6308,-4.6308,-4.6308,-4.6308,-4.6308,-4.6308,-4.6308,-4.6308,-4.6308,-4.6308,-4.6308,-4.6308,-4.5898,-4.4863,-4.4121,-4.3281,-4.2266,-4.1582,-4.1191,-4.1191,-4.1191,-4.1191,-4.1191,-4.1191,-4.1191,-4.1191,-4.1191,-4.1191,-4.1191,-4.1191,-4.1191,-4.1191,-4.1191,-4.1113,-4.0918,-4.0006,-3.9022,-3.8003,-3.7088,-3.6231,-3.55,-3.55,-3.55,-3.55,-3.55,-3.55,-3.55,0.0,0.0,0.0,0.0,0.0,0.0,0.0,0.0,0.0,0.0,-4.3311,-4.335,-4.335,-4.1442,-4.017,-4.0181,-4.0203,-4.0214,-4.0234,0.0,0.0,-4.2558,-4.3516,-4.3984,-4.3887,-4.2344,-4.1484,-4.1367,-3.9629,-3.9668,-4.1367,-4.1367,-4.2207,-4.3633,-4.2051,-4.0391,-3.8672,-3.7031,-3.541,-3.3926,-3.4043,-3.3945,-3.3769,-3.3887,-3.3789,-3.3574,-3.3574,-3.3652,-3.3867,-3.4629,-3.4375,0.0,0.0,0.0,-3.2422,-3.2773,-3.3828,-3.4824,-3.4648,-3.7988,-4.2305,-4.5508,-4.6308,-4.6308,-4.6308,-4.6308,-4.6308,-4.6308,-4.6308,-4.6308,-4.6308,-4.6308,-4.6308,-4.6308,-4.6308,-4.6308,-4.6308,-4.6308,-4.6308,-4.6308,-4.6308,-4.5664,-4.4023,-4.3769,-4.3047,-4.1484,-4.1269,-4.1191,-4.1191,-4.1191,-4.1191,-4.1191,-4.1191,-4.1191,-4.1191,-4.1191,-4.1191,-4.1191,-4.1191,-4.1191,-4.1191,-4.1191,-4.0781,-4.0058,-3.9736,-3.8675,-3.714,-3.6831,-3.6231,-3.55,-3.55,-3.55,-3.55,-3.55,-3.55,-3.55,0.0,0.0,0.0,0.0,0.0,0.0,0.0,0.0,0.0,0.0,0.0,-4.2548,-4.2586,-4.1279,-4.0233,-3.9745,-3.9818,-3.9687,-3.9199,-4.0312,-4.1211,-4.1719,-4.2539,-4.2754,-4.2305,-4.1582,-4.0723,-3.9746,-3.8008,-3.8281,-4.0449,-3.9473,-4.043,-4.2871,-4.0703,-3.9043,-3.7754,-3.6016,-3.4551,-3.3398,-3.3398,-3.3984,-3.4707,-3.3262,-3.3613,-3.4668,-3.3242,-3.3027,-3.3457,-3.3848,-3.3711,-3.3476,-3.3848,0.0,0.0,0.0,-3.2715,-3.3848,-3.6367,-3.9414,-4.2598,-4.5566,-4.6308,-4.6308,-4.6308,-4.6308,-4.6308,-4.6308,-4.6308,-4.6308,-4.6308,-4.6308,-4.6308,-4.6308,-4.6308,-4.6308,-4.6308,-4.6308,-4.6308,-4.6308,-4.6308,-4.5801,-4.4551,-4.3984,-4.3183,-4.1953,-4.1445,-4.1191,-4.1191,-4.1191,-4.1191,-4.1191,-4.1191,-4.1191,-4.1191,-4.1191,-4.1191,-4.1191,-4.1191,-4.1191,-4.1172,-4.0684,-4.0254,-3.9863,-3.9173,-3.815,-3.6945,-3.6309,-3.5827,-3.55,-3.55,-3.55,-3.55,-3.55,-3.55,-3.55,0.0,0.0,0.0,0.0,0.0,0.0,0.0,0.0,0.0,0.0,0.0,-4.2102,-4.2144,0.0,0.0,0.0,-3.9313,-3.9062,-3.8633,-3.9219,-3.9863,-4.0508,-4.1328,-4.1387,-4.0566,-4.0312,-3.9453,-3.7949,-3.6426,-3.7012,-3.9531,-3.8242,-3.9336,-4.2305,-3.9961,-3.832,-3.7187,-3.5449,-3.4199,-3.3418,-3.3633,-3.4512,-3.5527,-3.4297,-3.5019,-3.6309,-3.3516,-3.3027,-3.3633,-3.2988,-3.2754,-3.2754,-3.2754,-3.2207,0.0,0.0,0.0,-3.1953,-3.6914,-3.9004,-4.0684,-4.4394,-4.5312,-4.5488,-4.6152,-4.6308,-4.6308,-4.6308,-4.6308,-4.6308,-4.6308,-4.6308,-4.6308,-4.6308,-4.6308,-4.6308,-4.6308,-4.6308,-4.6308,-4.6308,-4.6308,-4.5879,-4.4785,-4.4082,-4.3242,-4.2187,-4.1543,-4.1191,-4.1191,-4.1191,-4.1191,-4.1191,-4.1191,-4.1191,-4.1191,-4.1191,-4.1191,-4.1191,-4.1191,-4.1191,-4.1172,-4.0293,-3.9785,-3.9511,-3.8434,-3.7488,-3.6611,-3.5821,-3.55,-3.55,-3.55,-3.55,-3.55,-3.55,-3.55,-3.55,0.0,0.0,0.0,0.0,0.0,0.0,0.0,0.0,0.0,0.0,0.0,-4.2288,-4.2293,-4.0166,-3.8711,-3.8652,-3.791,-3.7773,-3.8555,-3.8633,-3.8691,-3.873,-3.957,0.0,-3.875,-3.793,-3.7051,-3.6133,-3.5215,-3.6113,-3.8672,-3.8574,-3.9922,-4.2324,-4.0605,-3.8887,-3.7187,-3.5449,-3.4199,-3.3476,-3.4297,-3.4687,-3.5019,-3.7363,-3.8359,-3.8008,-3.457,-3.3906,-3.4258,-3.1836,-3.1035,-3.1035,-3.1035,-3.043,-2.957,0.0,0.0,0.0,-3.2559,-3.3242,-3.4316,-4.0957,-4.2598,-4.3242,-4.5723,-4.6308,-4.6308,-4.6308,-4.6308,-4.6308,-4.6308,-4.6308,-4.6308,-4.6308,-4.6308,-4.6308,-4.6308,-4.6308,-4.6308,-4.6308,-4.6308,-4.5625,-4.3926,-4.373,-4.3027,-4.1387,-4.1211,-4.1191,-4.1191,-4.1191,-4.1191,-4.1191,-4.1191,-4.1191,-4.1191,-4.1191,-4.1191,-4.1191,-4.1191,-4.1191,-4.1172,-4.0293,-3.9453,-3.8613,-3.7532,-3.6566,-3.5748,-3.557,-3.55,-3.55,-3.55,-3.55,-3.55,-3.55,-3.55,-3.55,0.0,0.0,0.0,0.0,0.0,0.0,0.0,0.0,0.0,0.0,0.0,0.0,0.0,-3.9979,-3.8769,-3.707,-3.6133,-3.5996,-3.6875,-3.6934,-3.7187,-3.7734,-3.8066,-3.8086,-3.7773,-3.6914,-3.6035,-3.5176,-3.3789,-3.4414,-3.6914,-3.6367,-3.7187,-3.9101,-3.8496,-3.7578,-3.6328,-3.4043,-3.2598,-3.1973,-3.3926,-3.5703,-3.7305,-3.8242,-3.9629,-4.0664,-3.7773,0.0,-3.4551,-3.3652,-3.1875,-3.0078,-3.0078,-2.9473,-2.8691,-2.8398,-2.8086,-2.8535,-3.1758,-3.2422,-3.3301,-3.7969,-4.0391,-4.2012,-4.3476,-4.5098,-4.6308,-4.6308,-4.6308,-4.6308,-4.6308,-4.6308,-4.6308,-4.6308,-4.6308,-4.6308,-4.6308,-4.6308,-4.6308,-4.6308,-4.5801,-4.5,-4.3808,-4.3183,-4.2402,-4.1289,-4.1191,-4.1191,-4.1191,-4.1191,-4.1191,-4.1191,-4.1191,-4.1191,-4.1191,-4.1191,-4.1191,-4.1191,-4.1191,-4.0918,-4.0332,-3.9453,-3.8572,-3.764,-3.6615,-3.5999,-3.5689,-3.5564,-3.55,-3.55,-3.55,-3.55,-3.55,-3.55,-3.55,-3.55,0.0,0.0,0.0,0.0,0.0,0.0,0.0,0.0,-4.0905,-4.099,0.0,0.0,0.0,0.0,-3.8535,-3.6191,-3.5469,-3.5371,-3.5957,-3.5996,-3.6269,-3.6836,-3.7148,-3.7168,-3.6875,-3.6309,-3.543,-3.4258,-3.3144,-3.3476,-3.5117,-3.4824,-3.5469,-3.6836,-3.625,-3.5996,-3.5879,-3.3887,-3.2539,-3.1992,-3.4863,-3.6699,-3.793,-3.9648,-4.1016,-4.1699,-3.9414,-3.7676,-3.6367,-3.5762,-3.4258,-3.2363,-3.0937,-2.9062,-2.7422,-2.7422,-2.7422,-2.7871,-2.9902,-3.0449,-3.1484,-3.5781,-3.7539,-3.9062,-4.248,-4.3945,-4.4902,-4.6055,-4.6308,-4.6308,-4.6308,-4.6308,-4.6308,-4.6308,-4.6308,-4.6308,-4.6308,-4.6308,-4.6308,-4.6308,-4.5527,-4.4668,-4.3789,-4.291,-4.207,-4.1269,-4.1191,-4.1191,-4.1191,-4.1191,-4.1191,-4.1191,-4.1191,-4.1191,-4.1191,-4.1191,-4.1191,-4.1191,-4.1191,-4.0742,-3.9863,-3.9004,-3.8081,-3.7131,-3.6134,-3.5686,-3.5659,-3.5546,-3.55,-3.55,-3.55,-3.55,-3.55,-3.55,-3.55,-3.55,0.0,0.0,0.0,0.0,0.0,0.0,0.0,0.0,-4.1017,-4.1017,0.0,0.0,0.0,0.0,0.0,-3.6172,-3.6016,-3.5996,-3.5996,-3.5976,-3.5976,-3.5996,-3.6797,-3.6836,-3.6016,-3.5957,-3.5098,-3.3398,-3.332,-3.3301,-3.334,-3.418,-3.5039,-3.5801,-3.4121,-3.4297,-3.5781,0.0,-3.4082,-3.3652,-3.707,-3.7519,-3.668,-4.1738,-4.2695,-4.1133,-3.9434,-3.9316,-3.9726,-3.8027,-3.7871,-3.7656,-3.3359,-2.9101,-2.5703,-2.5703,-2.5703,-2.5879,0.0,0.0,0.0,-3.4277,-3.3926,-3.4355,-4.2754,0.0,-4.2012,-4.5469,-4.6172,-4.6172,-4.6289,-4.6308,-4.6308,-4.6308,-4.6308,-4.6308,-4.6308,-4.6308,-4.6308,-4.6308,-4.5508,-4.4629,-4.3789,-4.2891,-4.2031,-4.1269,-4.1191,-4.1191,-4.1191,-4.1191,-4.1191,-4.1191,-4.1191,-4.1191,-4.1191,-4.1191,-4.1191,-4.1191,-4.1191,-4.0723,-3.9824,-3.8984,-3.8062,-3.7109,-3.6111,-3.5667,-3.559,-3.5534,-3.55,-3.55,-3.55,-3.55,-3.55,-3.55,-3.55,-3.55,0.0,0.0,0.0,0.0,0.0,-4.354,-4.354,-4.2184,-4.1149,0.0,0.0,0.0,-3.9199,-3.7617,-3.6777,-3.6934,-3.6367,-3.5996,-3.5996,-3.541,-3.5332,-3.5976,-3.5625,-3.5605,-3.5996,-3.4766,-3.3887,-3.3398,-3.1543,-3.0976,-3.1582,-3.1191,-3.1816,-3.3223,-3.2754,-3.2441,-3.2246,-3.1387,0.0,-3.2676,-3.4219,-3.6445,-3.9101,-4.1758,-4.3652,-4.4824,-4.4336,-4.3105,-4.1621,-4.1152,-3.7851,-3.3203,-2.8867,-2.668,-2.5703,-2.5703,-2.5703,-2.5742,-2.5996,0.0,0.0,0.0,0.0,0.0,-3.5781,0.0,-3.8594,-4.2637,-4.3027,-4.3379,-4.584,-4.6308,-4.6308,-4.6308,-4.6308,-4.6308,-4.6308,-4.6308,-4.6308,-4.6308,-4.4961,-4.3965,-4.3711,-4.2383,-4.1445,-4.1211,-4.1191,-4.1191,-4.1191,-4.1191,-4.1191,-4.1191,-4.1191,-4.1191,-4.1191,-4.1191,-4.1191,-4.1191,-4.1191,-4.041,-3.8945,-3.8711,-3.7682,-3.6092,-3.5814,-3.5639,-3.5534,-3.5501,-3.55,-3.55,-3.55,-3.55,-3.55,-3.55,-3.55,-3.55,0.0,0.0,-4.5998,-4.6069,-4.5028,-4.4184,-4.4184,-4.3083,-4.2246,0.0,0.0,0.0,-3.9922,-3.8457,-3.7539,-3.7324,-3.6836,-3.6387,-3.6016,-3.5176,-3.4922,-3.5449,-3.4961,-3.4941,-3.5449,-3.4453,-3.3769,-3.3398,-3.1211,-3.0391,-3.0879,-3.0019,-3.0137,-3.1113,-3.1113,-3.0625,-2.9766,-2.8887,-2.9512,0.0,-3.4375,0.0,0.0,-4.1758,-4.3457,-4.4258,-4.4961,-4.3555,-4.1621,-4.3418,-3.9453,-3.334,-3.0801,-2.8027,-2.5703,-2.5703,-2.5703,-2.5703,-2.5703,-2.5703,-2.6074,-2.7695,0.0,0.0,-3.498,-3.6055,-3.7539,-4.293,-4.3652,-4.3945,-4.5937,-4.6308,-4.6308,-4.6308,-4.6308,-4.6308,-4.6308,-4.6308,-4.6172,-4.5801,-4.4531,-4.3555,-4.3183,-4.1973,-4.1191,-4.1191,-4.1191,-4.1191,-4.1191,-4.1191,-4.1191,-4.1191,-4.1191,-4.1191,-4.1191,-4.1191,-4.1191,-4.1191,-4.1191,-4.0293,-3.8594,-3.8532,-3.7487,-3.5703,-3.5659,-3.5605,-3.55,-3.55,-3.55,-3.55,-3.55,-3.55,-3.55,-3.55,-3.55,-3.55,0.0,0.0,-4.615,-4.6289,-4.5586,-4.5,-4.5,-4.4258,-4.3691,0.0,-4.3613,-4.3066,-4.1758,-4.0684,-3.9414,-3.7871,-3.7559,-3.7031,-3.6055,-3.5098,-3.4551,-3.4551,-3.4473,-3.4453,-3.4551,-3.4473,-3.4043,-3.3262,-3.1484,-3.0664,-3.0723,-2.9766,-2.9355,-2.9453,-2.9453,-2.8965,-2.8125,-2.7539,-2.8281,-3.0351,-3.5723,-3.7305,0.0,-4.1738,-4.2812,-4.1953,-4.3457,-4.2539,-4.1133,-4.457,-4.1641,-3.6445,-3.5684,-3.1484,-2.6699,-2.5937,-2.5977,-2.6191,-2.5801,-2.5703,-2.6269,-2.8594,-2.748,0.0,-3.6543,-3.6738,-3.6992,0.0,-4.4863,-4.498,-4.5371,-4.5527,-4.5566,-4.5469,-4.5762,-4.6055,-4.6133,-4.6152,-4.582,-4.4961,-4.4082,-4.3242,-4.248,-4.168,-4.1191,-4.1191,-4.1191,-4.1191,-4.1191,-4.1191,-4.1191,-4.1191,-4.1191,-4.1191,-4.1191,-4.1191,-4.1191,-4.1191,-4.1191,-4.0293,-3.8594,-3.8461,-3.7418,-3.57,-3.563,-3.5562,-3.55,-3.55,-3.55,-3.55,-3.55,-3.55,-3.55,-3.55,-3.55,-3.55,-4.4783,-4.5662,-4.6268,-4.6308,-4.5586,-4.5,-4.5,-4.4258,-4.3691,-4.3691,-4.3086,-4.3066,-4.4141,-4.2285,-4.0801,-4.0469,-3.916,-3.7676,-3.6094,-3.4531,-3.3652,-3.3652,-3.3027,-3.2988,-3.3633,-3.3027,-3.2598,-3.2422,-3.0,-2.918,-2.9824,-2.8242,-2.7871,-2.8555,-2.8555,-2.8066,-2.7324,-2.8506,-3.0051,-3.1797,-3.2969,-3.5723,-3.9394,-4.1758,-4.3769,-4.5351,-4.5683,-4.5469,-4.4766,-4.2832,-4.1308,-3.9219,-3.3652,-3.2851,0.0,-2.7324,-2.7695,-2.9277,-2.6465,-2.5703,-2.582,-2.6328,-2.6602,0.0,-2.9082,-2.9668,-3.0976,0.0,-3.5918,-3.6777,-3.959,-4.0684,-4.0918,-4.0215,-4.2402,-4.4453,-4.5156,-4.5254,-4.4922,-4.4062,-4.3183,-4.2598,-4.2422,-4.168,-4.1191,-4.1191,-4.1191,-4.1191,-4.1191,-4.1191,-4.1191,-4.1191,-4.1191,-4.1191,-4.1191,-4.1191,-4.1191,-4.1191,-4.1191,-4.0293,-3.8594,-3.8461,-3.7418,-3.57,-3.563,-3.5562,-3.55,-3.55,-3.55,-3.55,-3.55,-3.55,-3.55,-3.55,-3.55,-3.55,-4.3691,-4.5117,-4.6152,-4.5723,-4.5644,-4.5644,-4.5644,-4.5273,-4.5,-4.5,-4.4629,-4.4355,-4.4355,-4.2812,-4.1289,-4.0019,-3.8711,-3.7207,-3.5469,-3.4121,-3.3223,-3.2812,-3.2422,-3.2383,-3.2793,-3.2402,-3.2207,-3.2207,-3.0019,-2.918,-2.957,-2.8262,-2.8574,-3.0176,-2.8437,-2.8125,-2.8887,-2.7956,-2.8324,-2.9897,-3.3783,0.0,-4.1387,-4.3535,-4.5156,-4.6308,-4.6308,-4.6308,-4.584,-4.2812,-4.0957,-3.9453,-3.6855,-3.543,-3.3867,0.0,-2.9531,-3.0137,-2.6641,-2.5703,-2.5801,-2.623,-2.668,0.0,0.0,-3.0527,-3.1953,-3.584,-3.5957,-3.6133,-3.8769,-3.8887,-3.8887,-3.9766,-4.1328,-4.2617,-4.3047,-4.4199,-4.4512,-4.3203,-4.2676,-4.2246,-4.1836,-4.1445,-4.1191,-4.1191,-4.1191,-4.1191,-4.1191,-4.1191,-4.1191,-4.1191,-4.1191,-4.1191,-4.1191,-4.1191,-4.1191,-4.1191,-4.1191,-4.0508,-3.9238,-3.8656,-3.7654,-3.6326,-3.5824,-3.5562,-3.55,-3.55,-3.55,-3.55,-3.55,-3.55,-3.55,-3.55,-3.55,-3.55,-4.2734,-4.4355,-4.5586,-4.4863,-4.5469,-4.6055,-4.6055,-4.6191,-4.6308,-4.6308,-4.6308,-4.5762,-4.4355,-4.3418,-4.207,-4.0019,-3.8887,-3.748,-3.5586,-3.4473,-3.3613,-3.2969,-3.2305,-3.2187,-3.2676,-3.2207,-3.1953,-3.1953,-3.0195,-2.9434,-2.957,-2.8535,-2.918,-3.1094,-2.8965,-2.8809,0.0,0.0,0.0,-2.9404,0.0,-3.9082,-4.0781,-4.4062,-4.5312,-4.5391,-4.6055,-4.6308,-4.5937,-4.3476,-4.1289,-3.9648,-4.0078,-3.7988,0.0,0.0,0.0,0.0,0.0,0.0,0.0,0.0,0.0,-2.8281,0.0,0.0,0.0,0.0,0.0,0.0,0.0,0.0,0.0,-3.9121,0.0,0.0,0.0,-4.2266,0.0,-4.1836,-4.1953,-4.1855,-4.1035,-4.0644,-4.0664,-4.1152,-4.0723,-4.0664,-4.1172,-4.1191,-4.1191,-4.1191,-4.1191,-4.1191,-4.1191,-4.1191,-4.1191,-4.1191,-4.1191,-4.0742,-3.9863,-3.8851,-3.7888,-3.6956,-3.6003,-3.5562,-3.55,-3.55,-3.55,-3.55,-3.55,-3.55,-3.55,-3.55,-3.55,-3.55,-4.3281,-4.3789,-4.3965,-4.3867,-4.457,-4.5156,-4.5156,-4.5801,-4.6308,-4.6308,-4.6308,-4.6211,-4.6035,-4.5234,-4.459,-4.4297,-4.2773,-4.0781,-3.832,-3.6621,-3.5664,-3.5566,-3.2656,-3.2109,-3.4375,-3.2207,-3.1055,-3.1055,-2.9297,-2.8848,-2.9551,-2.793,-2.7305,-2.7715,-3.041,0.0,0.0,0.0,-3.3035,0.0,-3.6763,-3.5548,0.0,-3.9608,-4.1777,-4.2187,-4.5215,-4.6308,-4.6016,-4.418,-4.3359,-4.2363,0.0,-3.9316,-4.0996,-3.3184,0.0,0.0,0.0,0.0,0.0,0.0,-2.873,-2.8828,0.0,0.0,-2.9023,-2.9512,0.0,0.0,0.0,0.0,0.0,0.0,0.0,0.0,-3.6699,-3.8164,-3.9258,-3.9062,-4.0391,-4.0996,-4.0137,-3.8652,-3.8691,-4.1035,-3.9043,-3.875,-4.1074,-4.1191,-4.1191,-4.1191,-4.1191,-4.1191,-4.1191,-4.1191,-4.1191,-4.1191,-4.1191,-4.0742,-3.9863,-3.8851,-3.7888,-3.6956,-3.6003,-3.5562,-3.55,-3.55,-3.55,-3.55,-3.55,-3.55,-3.55,-3.55,-3.55,-3.55,-4.1152,-4.2695,-4.3535,-4.3027,-4.3672,-4.4414,-4.4922,-4.5742,-4.6308,-4.6308,-4.6308,-4.6113,-4.5605,-4.4766,-4.4043,-4.3535,-4.2402,-4.0605,-3.8008,-3.7168,-3.6074,-3.4551,-3.2676,-3.1914,-3.248,-3.0957,-2.9902,-2.9394,-2.8652,-2.8223,-2.8086,-2.7344,-2.8086,-3.0059,-3.1016,0.0,-3.2929,0.0,-3.2474,0.0,0.0,-3.2822,0.0,-4.0666,-4.3986,-4.4245,-4.5761,-4.6308,-4.6191,-4.5469,-4.3887,-4.2226,0.0,0.0,0.0,-3.6426,0.0,0.0,0.0,0.0,0.0,0.0,0.0,0.0,-2.7793,-2.8164,-2.9199,-2.9707,0.0,0.0,0.0,0.0,0.0,0.0,-3.4101,0.0,0.0,0.0,0.0,0.0,0.0,0.0,-3.9082,-3.8027,-3.8379,-4.0996,-3.8789,-3.8437,-4.1055,-4.1191,-4.1191,-4.1191,-4.1191,-4.1191,-4.1191,-4.1191,-4.1191,-4.1191,-4.1191,-4.0742,-3.9863,-3.8942,-3.8007,-3.7057,-3.6078,-3.5611,-3.5564,-3.5528,-3.55,-3.55,-3.55,-3.55,-3.55,-3.55,-3.55,-3.55,-3.8945,-4.1055,-4.2461,-4.1836,-4.2617,-4.3633,-4.4512,-4.5176,-4.5664,-4.5918,-4.5937,-4.5781,-4.5391,-4.4785,-4.416,-4.3516,-4.293,-4.1582,-3.9219,-3.8398,-3.748,-3.6289,-3.3848,-3.2676,-3.3008,-3.0996,-2.9531,-2.8652,-2.8184,-2.7734,-2.7344,-2.6875,-2.8125,-3.0801,-3.1348,-3.3163,-3.5756,0.0,-3.3706,-3.3798,-3.4075,-3.4372,-3.5367,-4.1985,-4.5163,-4.6115,-4.6202,-4.6268,-4.623,-4.5742,-4.3945,-4.2246,-4.4258,-4.2656,-3.9902,0.0,0.0,0.0,-3.2871,0.0,-3.3535,-2.9629,-3.0078,-3.0879,-2.8496,-2.8809,0.0,0.0,0.0,0.0,0.0,0.0,0.0,0.0,0.0,-3.3281,0.0,0.0,0.0,0.0,0.0,0.0,0.0,-3.6953,-3.7285,-4.0586,-3.7988,-3.7695,-4.1016,-4.1191,-4.1191,-4.1191,-4.1191,-4.1191,-4.1191,-4.1191,-4.1191,-4.1191,-4.1191,-4.0879,-4.0234,-3.9355,-3.841,-3.7444,-3.6475,-3.5864,-3.5579,-3.5515,-3.55,-3.55,-3.55,-3.55,-3.55,-3.55,-3.55,-3.55,-3.7363,-3.8809,-4.0019,-3.998,-4.1348,-4.2734,-4.3613,-4.3769,-4.4082,-4.4922,-4.5039,-4.5351,-4.6172,-4.623,-4.6211,-4.6172,-4.6152,-4.5371,-4.3613,-4.1191,-4.0879,-4.3262,-3.6934,-3.4922,-3.8281,-3.3437,-3.043,-2.9551,-2.7871,-2.7461,-2.8223,-2.6523,-2.625,-2.7344,-3.1484,-3.2883,-3.2439,-3.642,-3.9431,-4.1448,-4.0583,-4.2197,-4.4809,0.0,-4.3107,-4.6108,-4.6091,-4.6198,-4.6035,-4.4355,-4.3711,-4.3359,-4.1836,-4.2363,-4.3223,0.0,0.0,0.0,-3.8223,-3.7109,-3.5957,-3.082,-2.9629,-2.9219,-2.7441,-2.8379,-2.9844,0.0,0.0,0.0,0.0,0.0,0.0,0.0,0.0,0.0,0.0,0.0,0.0,0.0,0.0,0.0,0.0,0.0,-3.4473,0.0,-3.5957,-3.5762,-4.0937,-4.1191,-4.1191,-4.1191,-4.1191,-4.1191,-4.1191,-4.1191,-4.1191,-4.1191,-4.1191,-4.1191,-4.1133,-4.0254,-3.9281,-3.8218,-3.7332,-3.6406,-3.5507,-3.55,-3.55,-3.55,-3.55,-3.55,-3.55,-3.55,-3.55,-3.55,-3.6445,-3.7383,-3.8359,-3.8945,-3.9512,-4.0547,-4.2539,-4.332,-4.4219,-4.5664,-4.5351,-4.5332,-4.6191,-4.6308,-4.6308,-4.6308,-4.6308,-4.5566,-4.3808,-4.2344,-4.1699,-4.2031,-3.8144,-3.6269,-3.6875,-3.3516,-3.1055,-2.9609,-2.8437,-2.8008,-2.8262,-2.7109,-2.7031,-2.8008,-3.1191,-3.3644,0.0,0.0,0.0,0.0,0.0,-4.1527,-4.3156,-4.3841,-4.4876,-4.5981,-4.6075,-4.6196,-4.6211,-4.5625,-4.4648,-4.3808,-4.4394,-4.3418,-4.2148,-4.2695,-4.2461,-4.1601,-3.957,-4.0254,-4.0019,-3.3691,-3.2988,-3.2637,-2.8047,-2.8789,-3.0371,0.0,0.0,0.0,0.0,0.0,0.0,0.0,0.0,0.0,0.0,0.0,0.0,0.0,0.0,0.0,0.0,0.0,0.0,0.0,0.0,0.0,-4.1016,-4.1191,-4.1191,-4.1191,-4.1191,-4.1191,-4.1191,-4.1191,-4.1191,-4.1191,-4.1191,-4.0898,-4.0332,-3.9933,-3.9245,-3.831,-3.7358,-3.673,-3.6373,-3.5765,-3.55,-3.55,-3.55,-3.55,-3.55,-3.55,-3.55,-3.55,-3.6055,-3.6445,-3.7109,-3.7988,-3.8652,-3.9629,-4.1269,-4.248,-4.375,-4.5195,-4.5156,-4.5332,-4.6191,-4.6308,-4.6308,-4.6308,-4.6308,-4.5566,-4.3808,-4.3164,-4.2637,-4.2109,-3.9902,-3.8555,-3.8281,-3.5488,-3.3008,-3.0957,-2.9785,-2.9062,-2.873,-2.7559,-2.7461,-2.8398,-3.0391,-3.3266,-3.6693,-3.8112,-4.017,0.0,0.0,-4.2643,0.0,-4.5075,-4.5215,-4.4647,-4.5632,-4.6097,-4.6225,-4.6225,-4.5506,-4.4824,-4.5957,-4.4785,-4.3223,-4.4316,-4.3867,-4.2695,-4.1191,-4.1992,-4.1875,-3.6191,-3.5625,-3.5195,-3.0371,-3.1055,-3.2559,0.0,0.0,0.0,0.0,0.0,0.0,0.0,0.0,0.0,0.0,0.0,0.0,0.0,0.0,0.0,0.0,0.0,0.0,0.0,0.0,0.0,0.0,-4.1191,-4.1191,-4.1191,-4.1191,-4.1191,-4.1191,-4.1191,-4.1191,-4.1191,-4.1191,-4.0918,-4.0351,-4.0216,-3.9676,-3.8772,-3.7782,-3.7171,-3.676,-3.5874,-3.55,-3.55,-3.55,-3.55,-3.55,-3.55,-3.55,-3.55,-3.6152,-3.6035,-3.6348,-3.7207,-3.8691,-3.9824,-3.9941,-4.1328,-4.2676,-4.3633,-4.4492,-4.5332,-4.6191,-4.6308,-4.6308,-4.6308,-4.6308,-4.5605,-4.3945,-4.3789,-4.3789,-4.3828,-4.2226,-4.168,-4.2441,-3.9101,-3.6133,-3.3594,-3.1836,-3.0547,-2.9687,-2.7891,-2.7519,-2.834,-2.918,0.0,-3.5864,-3.8367,-4.182,-4.5594,-4.5594,-4.5518,-4.5441,-4.5556,-4.4106,-4.2317,-4.4873,-4.5935,-4.6108,-4.6108,-4.6198,-4.6308,-4.6308,-4.6308,-4.6308,-4.6308,-4.6308,-4.5762,-4.3262,-4.2598,-4.1777,-3.8398,-3.7519,-3.6816,-3.4199,-3.4941,-3.6172,-3.6133,0.0,0.0,0.0,0.0,0.0,0.0,0.0,0.0,0.0,0.0,0.0,0.0,0.0,0.0,0.0,0.0,0.0,0.0,0.0,0.0,0.0,0.0,-4.1074,-4.1191,-4.1191,-4.1191,-4.1191,-4.1191,-4.1191,-4.1191,-4.1191,-4.1191,-4.1191,-4.1052,-4.0493,-3.9595,-3.8661,-3.7693,-3.6692,-3.5885,-3.5538,-3.55,-3.55,-3.55,-3.55,-3.55,-3.55,-3.55,-3.6035,-3.6523,-3.7246,-3.8105,-3.8105,-3.8613,-4.0566,-4.123,-4.2266,-4.4394,-4.4863,-4.5332,-4.6191,-4.6308,-4.6308,-4.6308,-4.6308,-4.6113,-4.5664,-4.5039,-4.4961,-4.5605,-4.3984,-4.3144,-4.3359,-4.0019,-3.7617,-3.6309,-3.332,-3.1758,-3.1484,-2.9082,-2.8086,-2.8301,0.0,-3.1295,-3.5903,-3.7739,-4.1266,-4.5594,-4.5594,-4.447,-4.2989,-4.4883,-4.405,-4.2205,-4.4846,-4.5935,-4.6108,-4.6108,-4.6198,-4.6308,-4.6308,-4.6308,-4.6308,-4.6308,-4.6308,-4.6152,-4.5488,-4.5293,-4.4629,-4.1797,-4.0644,-3.9512,-3.6894,-3.7656,-3.8711,-3.8066,-3.8789,-3.9004,-3.7305,0.0,0.0,0.0,0.0,0.0,0.0,0.0,0.0,0.0,0.0,0.0,0.0,0.0,0.0,0.0,0.0,0.0,0.0,0.0,0.0,-4.1133,-4.1191,-4.1191,-4.1191,-4.1191,-4.1191,-4.1191,-4.1191,-4.115,-4.1051,-4.0914,-4.0684,-4.0366,-3.9438,-3.85,-3.7603,-3.6731,-3.6038,-3.55,-3.55,-3.55,-3.55,-3.55,-3.55,-3.55,-3.6562,-3.7578,-3.8594,-3.9082,-3.9082,-3.9492,-4.0976,-4.1191,-4.1836,-4.3633,-4.4199,-4.4629,-4.5117,-4.584,-4.6308,-4.6308,-4.6308,-4.5976,-4.5215,-4.543,-4.5449,-4.5176,-4.4941,-4.4844,-4.4844,-4.2578,-4.0234,-3.7871,-3.5176,-3.2891,-3.1016,-2.8789,0.0,0.0,0.0,-3.0479,-3.4386,-3.8203,-4.1403,-4.4047,-4.5152,-4.4739,0.0,-4.5056,-4.4701,-4.366,-4.5175,-4.5842,-4.6005,-4.6005,-4.6144,-4.6308,-4.6308,-4.6308,-4.6308,-4.6308,-4.6308,-4.6308,-4.6308,-4.6016,-4.5371,-4.3906,-4.3203,-4.2187,-3.959,-4.0039,-4.0859,-4.0351,-4.0156,-3.9922,-3.9453,-3.6504,0.0,0.0,0.0,0.0,0.0,0.0,0.0,0.0,0.0,0.0,0.0,0.0,0.0,0.0,0.0,0.0,0.0,0.0,0.0,-4.1133,-4.082,-4.0801,-4.1191,-4.082,-4.078,-4.1105,-4.1105,-4.1049,-4.0911,-4.0796,-4.0736,-4.0653,-3.9711,-3.8815,-3.793,-3.7065,-3.6231,-3.55,-3.55,-3.55,-3.55,-3.55,-3.55,-3.55,-3.7617,-3.8945,-4.0078,-4.0078,-4.0781,-4.1406,-4.1504,-4.1523,-4.1816,-4.2637,-4.3496,-4.4043,-4.4043,-4.5391,-4.6308,-4.6308,-4.6308,-4.5664,-4.4141,-4.5469,-4.5625,-4.4101,-4.5488,-4.6308,-4.6308,-4.5332,-4.2832,-3.8769,-3.6797,-3.375,-2.9726,0.0,0.0,0.0,0.0,0.0,0.0,-3.9286,-4.207,-4.2489,-4.4701,-4.5594,-4.5594,-4.5594,-4.5594,-4.5594,-4.5594,-4.5729,-4.59,-4.5894,-4.6075,-4.6288,-4.6289,-4.6308,-4.6308,-4.6308,-4.6308,-4.6289,-4.6152,-4.5586,-4.4961,-4.4863,-4.4824,-4.4277,-4.2187,-4.2246,-4.2773,-4.2891,-4.0976,-4.0078,-4.2715,-3.7832,0.0,0.0,0.0,0.0,0.0,0.0,0.0,0.0,0.0,0.0,0.0,0.0,0.0,0.0,0.0,0.0,0.0,0.0,0.0,-4.1133,-4.0469,-4.0371,-4.1016,-4.0391,-4.0327,-4.084,-4.0957,-4.0939,-4.0773,-4.074,-4.0686,-4.0623,-3.982,-3.8892,-3.795,-3.718,-3.6327,-3.55,-3.55,-3.55,-3.55,-3.55,-3.55,-3.55,-3.9297,-4.0273,-4.0976,-4.0976,-4.1641,-4.2422,-4.3144,-4.3262,-4.3574,-4.4433,-4.5293,-4.584,-4.584,-4.6113,-4.6308,-4.6308,-4.6308,-4.6172,-4.5859,-4.6133,-4.6152,-4.5859,-4.6133,-4.6308,-4.6308,-4.4746,-4.2539,-3.9668,-3.6484,-3.3476,-3.0625,-2.8144,-2.6992,0.0,0.0,0.0,-3.6316,-4.0353,-4.3176,-4.4979,-4.5421,-4.5594,-4.5594,-4.5594,-4.5594,-4.5594,-4.5594,-4.57,-4.5826,-4.5886,-4.5998,-4.6149,-4.6268,-4.6308,-4.6308,-4.6308,-4.6308,-4.6133,-4.543,-4.5117,-4.4824,-4.4101,-4.3926,-4.4004,-4.4277,-4.4433,-4.4746,-4.5469,-4.4121,-4.2344,-4.084,-3.6641,-3.2461,0.0,0.0,0.0,0.0,0.0,0.0,0.0,0.0,0.0,0.0,0.0,0.0,0.0,0.0,0.0,0.0,0.0,0.0,0.0,-4.1055,-4.0703,0.0,-4.0684,-4.062,-3.994,-4.0662,-4.0909,-4.0718,-4.0709,-4.0649,-4.0523,-4.0358,-3.9419,-3.7988,-3.7834,-3.6873,-3.55,-3.55,-3.55,-3.55,-3.55,-3.55,-3.55,-4.1113,-4.1523,-4.1953,-4.2422,-4.2812,-4.3379,-4.4238,-4.4766,-4.4863,-4.4394,-4.4687,-4.4941,-4.4941,-4.5762,-4.6308,-4.6308,-4.6308,-4.6308,-4.6308,-4.6308,-4.6308,-4.6308,-4.6308,-4.6308,-4.6308,-4.5488,-4.3144,-3.9238,-3.709,-3.3828,-2.9512,-2.7793,-2.6758,-2.6426,0.0,-3.1684,0.0,-4.0093,-4.2734,-4.3839,-4.5098,-4.5594,-4.5594,-4.5594,-4.5594,-4.5594,-4.5594,-4.5643,-4.5718,-4.5857,-4.6036,-4.6222,-4.6289,-4.6308,-4.6308,-4.6308,-4.6308,-4.6211,-4.5781,-4.5019,-4.4336,-4.4375,-4.3691,-4.3379,-4.4707,-4.5,-4.5254,-4.6113,-4.5273,-4.332,-3.9863,-3.6035,-3.3008,-3.1777,0.0,0.0,0.0,0.0,0.0,0.0,0.0,0.0,0.0,0.0,0.0,0.0,0.0,0.0,0.0,0.0,0.0,0.0,0.0,0.0,-4.0566,-4.0464,-4.0361,-4.0279,-4.0661,-4.0757,-4.0589,-4.0589,-4.0566,-4.0496,-4.0496,-3.9554,-3.793,-3.7065,-3.6231,-3.55,-3.55,-3.55,-3.55,-3.55,-3.55,-3.55,-4.2187,-4.2422,-4.2832,-4.334,-4.373,-4.4219,-4.4902,-4.5742,-4.5801,-4.4433,-4.4258,-4.4258,-4.4258,-4.5488,-4.6308,-4.6308,-4.6308,-4.6308,-4.6308,-4.6308,-4.6308,-4.6308,-4.6308,-4.6308,-4.6308,-4.6308,-4.4043,-3.9414,-3.7988,-3.4492,-2.9101,-2.7676,-2.6934,-2.6973,-3.0762,-3.3374,-3.5258,-4.0061,-4.2369,-4.2969,-4.485,-4.5594,-4.5594,-4.5594,-4.5594,-4.5594,-4.5594,-4.562,-4.5661,-4.5841,-4.6039,-4.6224,-4.6289,-4.6308,-4.6308,-4.6308,-4.6308,-4.6269,-4.6074,-4.4883,-4.3828,-4.4316,-4.3418,-4.2812,-4.4375,-4.4863,-4.5254,-4.6113,-4.5469,-4.3418,-3.9101,-3.6523,-3.4687,-3.3574,0.0,0.0,0.0,0.0,0.0,0.0,0.0,0.0,0.0,0.0,0.0,0.0,0.0,0.0,0.0,0.0,0.0,0.0,0.0,-3.959,-4.0098,0.0,-4.0162,-4.054,-4.0654,-4.0636,-4.0496,-4.0496,-4.0496,-4.0496,-4.0496,-3.9554,-3.7873,-3.6192,-3.55,-3.55,-3.55,-3.55,-3.55,-3.55,-3.55,-3.55,-4.1465,-4.2539,-4.3359,-4.2656,-4.3828,-4.4902,-4.498,-4.5742,-4.623,-4.6074,-4.6055,-4.6055,-4.6055,-4.6191,-4.6308,-4.6308,-4.6308,-4.6308,-4.6308,-4.6308,-4.6308,-4.6308,-4.6308,-4.6308,-4.6308,-4.6308,-4.4902,-4.2031,-3.8867,-3.543,-3.1758,-2.8516,-2.8223,-3.0508,-3.2422,-3.5891,-4.0359,-4.1579,-4.3393,-4.5454,-4.5571,-4.5594,-4.5594,-4.5594,-4.5594,-4.5594,-4.5594,-4.568,-4.5783,-4.5872,-4.5916,-4.5981,-4.6224,-4.6308,-4.6308,-4.6308,-4.6308,-4.6133,-4.5332,-4.4433,-4.3535,-4.2812,-4.2519,-4.2656,-4.3594,-4.4433,-4.5254,-4.6113,-4.498,-4.2519,-3.8203,-3.9082,-3.8926,-3.418,-3.5195,0.0,0.0,0.0,0.0,0.0,0.0,0.0,0.0,0.0,0.0,0.0,0.0,0.0,0.0,0.0,0.0,-3.7578,0.0,-3.7207,-3.6484,-3.9415,-4.0496,-3.9719,-4.0377,-4.0636,-4.0496,-4.0496,-4.0496,-4.0496,-4.0496,-3.9554,-3.7873,-3.6192,-3.55,-3.55,-3.55,-3.55,-3.55,-3.55,-3.55,-3.55,-4.2871,-4.2422,-4.2578,-4.375,-4.3672,-4.3965,-4.5547,-4.6074,-4.6308,-4.6308,-4.6308,-4.6308,-4.6308,-4.6308,-4.6308,-4.6308,-4.6308,-4.6308,-4.6308,-4.6308,-4.6308,-4.6308,-4.6308,-4.6308,-4.6308,-4.6308,-4.5019,-4.2402,-3.9492,-3.6309,-3.2891,-3.1484,-3.1953,-3.4082,-3.6855,-3.9218,-4.1259,-4.3445,-4.4948,-4.5845,-4.5677,-4.5594,-4.5594,-4.5594,-4.5594,-4.5594,-4.5594,-4.5696,-4.5809,-4.5877,-4.5944,-4.6047,-4.6246,-4.6308,-4.6308,-4.6308,-4.6308,-4.6211,-4.5879,-4.5137,-4.4394,-4.4043,-4.3574,-4.3418,-4.4277,-4.4746,-4.5254,-4.6113,-4.4902,-4.2871,-4.0137,-3.9219,-3.8691,-3.8164,-3.7637,0.0,0.0,0.0,0.0,0.0,0.0,0.0,0.0,0.0,0.0,0.0,0.0,0.0,0.0,0.0,0.0,-3.4922,0.0,-3.8711,-3.6797,-3.9505,-4.0682,-4.0326,-4.0505,-4.0552,-4.0496,-4.0496,-4.0496,-4.0477,-3.9996,-3.9104,-3.7911,-3.6712,-3.5942,-3.55,-3.55,-3.55,-3.55,-3.55,-3.5808,-3.6212,-4.3086,-4.2207,-4.2207,-4.4258,-4.3808,-4.3867,-4.5976,-4.6308,-4.6308,-4.6308,-4.6308,-4.6308,-4.6308,-4.6308,-4.6308,-4.6308,-4.6308,-4.6308,-4.6308,-4.6308,-4.6308,-4.6308,-4.6308,-4.6308,-4.6308,-4.6308,-4.5391,-4.3555,-4.0976,-3.834,-3.5684,-3.4902,-3.5605,-3.7656,-4.0351,-4.1973,-4.2832,-4.503,-4.5932,-4.5881,-4.5715,-4.5635,-4.5594,-4.5594,-4.5594,-4.5594,-4.5594,-4.5696,-4.5809,-4.5877,-4.5988,-4.6119,-4.6268,-4.6308,-4.6308,-4.6308,-4.6308,-4.6308,-4.6308,-4.5664,-4.4941,-4.4687,-4.416,-4.3789,-4.4141,-4.4629,-4.5098,-4.5469,-4.4355,-4.2871,-4.1465,-3.9687,-3.8809,-3.9883,-3.9141,-3.8828,0.0,-4.0273,0.0,0.0,-3.8711,-3.7656,-3.7324,0.0,0.0,0.0,0.0,0.0,0.0,0.0,0.0,0.0,0.0,0.0,-3.7324,-3.9635,-4.0797,-4.0797,-4.0597,-4.0496,-4.0496,-4.0496,-4.0496,-4.0458,-3.965,-3.8815,-3.793,-3.7065,-3.6231,-3.55,-3.55,-3.5635,-3.5846,-3.5846,-3.6365,-3.7084,-4.123,-4.1855,-4.2676,-4.3555,-4.4414,-4.5273,-4.6152,-4.6308,-4.6308,-4.6308,-4.6308,-4.6308,-4.6308,-4.6308,-4.6308,-4.6308,-4.6308,-4.6308,-4.6308,-4.6308,-4.6308,-4.6308,-4.6308,-4.6308,-4.6308,-4.6308,-4.6289,-4.625,-4.3633,-4.1933,-4.1055,-3.8457,-3.8633,-4.1172,-4.2012,-4.3828,-4.623,-4.6149,-4.603,-4.589,-4.5826,-4.5723,-4.5594,-4.5594,-4.5594,-4.5594,-4.5594,-4.5696,-4.5809,-4.5877,-4.5988,-4.6119,-4.6268,-4.6308,-4.6308,-4.6308,-4.6308,-4.6308,-4.6308,-4.5664,-4.4785,-4.3926,-4.3711,-4.3476,-4.2637,-4.3769,-4.4766,-4.3906,-4.3027,-4.2168,-4.1348,-4.1172,-4.0312,-3.7754,-3.9492,-4.0254,0.0,-3.8086,0.0,0.0,-3.2851,-3.1738,-3.6816,0.0,0.0,0.0,0.0,0.0,0.0,0.0,0.0,-3.7168,-3.7305,0.0,-3.7305,-3.9635,-4.0797,-4.0797,-4.0597,-4.0496,-4.0496,-4.0496,-4.0496,-4.0458,-3.965,-3.8815,-3.793,-3.7065,-3.6231,-3.55,-3.55,-3.5981,-3.6692,-3.6692,-3.7238,-3.7988,-4.1426,-4.1406,-4.2031,-4.3457,-4.3926,-4.4609,-4.6074,-4.6308,-4.6308,-4.6308,-4.6308,-4.6308,-4.6308,-4.6308,-4.6308,-4.6308,-4.6308,-4.6308,-4.6308,-4.6308,-4.6308,-4.6308,-4.6308,-4.6308,-4.6308,-4.6308,-4.6308,-4.6308,-4.3672,-4.2266,-4.1992,-4.1172,-4.2168,-4.4687,-4.4941,-4.5527,-4.6289,-4.617,-4.6077,-4.6027,-4.5853,-4.5763,-4.5737,-4.5635,-4.5668,-4.5733,-4.5733,-4.5842,-4.6001,-4.603,-4.6138,-4.6247,-4.6289,-4.6308,-4.6308,-4.6308,-4.6308,-4.6308,-4.6308,-4.6094,-4.5527,-4.4062,-4.4141,-4.4199,-4.2734,-4.3281,-4.3867,-4.2988,-4.2598,-4.2148,-4.1348,-4.1191,-4.0937,-4.0098,-4.0664,-4.0918,-4.0078,0.0,-4.0273,-3.998,-3.8516,-3.8144,-3.9805,-3.6601,0.0,0.0,0.0,0.0,0.0,0.0,0.0,0.0,-3.8105,0.0,-3.7324,-3.9635,-4.0797,-4.0797,-4.0597,-4.0496,-4.0496,-4.0496,-4.0496,-4.0496,-4.0227,-3.9323,-3.7988,-3.77,-3.675,-3.55,-3.55,-3.5981,-3.6692,-3.6692,-3.7623,-3.8892,-4.1406,-4.1445,-4.207,-4.3457,-4.3965,-4.4668,-4.6074,-4.6308,-4.6308,-4.6308,-4.6308,-4.6308,-4.6308,-4.6308,-4.6308,-4.6308,-4.6308,-4.6308,-4.6308,-4.6308,-4.6308,-4.6308,-4.6308,-4.6308,-4.6308,-4.6308,-4.6308,-4.6308,-4.4668,-4.3867,-4.3867,-4.3867,-4.4746,-4.6308,-4.6308,-4.6308,-4.6289,-4.6202,-4.6145,-4.608,-4.5906,-4.5814,-4.5783,-4.566,-4.564,-4.5725,-4.5776,-4.5901,-4.6036,-4.6082,-4.6198,-4.6308,-4.6308,-4.6308,-4.6308,-4.6308,-4.6308,-4.6308,-4.6308,-4.6308,-4.5879,-4.4141,-4.4101,-4.4141,-4.2715,-4.2598,-4.2695,-4.2441,-4.2168,-4.1797,-4.1289,-4.1191,-4.1191,-4.1191,-4.1191,-4.1191,-4.1191,-4.1191,-4.084,0.0,0.0,-3.9746,0.0,-3.8262,-3.7266,0.0,0.0,0.0,0.0,0.0,0.0,-3.6328,-3.9492,-4.043,-3.8789,-4.0123,-4.0797,-4.0797,-4.0597,-4.0496,-4.0496,-4.0496,-4.0496,-4.0496,-4.0496,-3.9554,-3.8007,-3.8007,-3.7007,-3.55,-3.55,-3.6192,-3.7199,-3.7199,-3.8277,-3.9746,-4.1308,-4.1894,-4.2676,-4.3555,-4.4414,-4.5293,-4.6172,-4.6308,-4.6308,-4.6308,-4.6308,-4.6308,-4.6308,-4.6308,-4.6308,-4.6308,-4.6308,-4.6308,-4.6308,-4.6308,-4.6308,-4.6308,-4.6308,-4.6308,-4.6308,-4.6308,-4.6308,-4.6308,-4.6308,-4.6308,-4.6308,-4.6308,-4.6308,-4.6308,-4.6308,-4.6308,-4.6308,-4.6308,-4.6225,-4.611,-4.5967,-4.5866,-4.5796,-4.5648,-4.5612,-4.5651,-4.5756,-4.5869,-4.5959,-4.6077,-4.62,-4.6308,-4.6308,-4.6308,-4.6308,-4.6308,-4.6308,-4.6308,-4.6308,-4.6308,-4.5898,-4.4219,-4.3691,-4.3379,-4.2519,-4.1738,-4.1406,-4.2168,-4.1719,-4.1191,-4.1191,-4.1191,-4.1191,-4.1191,-4.1191,-4.1191,-4.1191,-4.1191,-4.0293,-3.7851,-3.7578,-3.7578,-3.7578,-3.7578,-3.8496,0.0,0.0,0.0,0.0,0.0,-3.5976,-4.1035,-4.1191,-4.1191,-4.1191,-4.0925,-4.0789,-4.0773,-4.0584,-4.0496,-4.0496,-4.0496,-4.0496,-4.0496,-4.0496,-3.9592,-3.8084,-3.8027,-3.7046,-3.5577,-3.5519,-3.6519,-3.8007,-3.8007,-3.9065,-4.0496,-4.2246,-4.2266,-4.2676,-4.3555,-4.4414,-4.5293,-4.6172,-4.6308,-4.6308,-4.6308,-4.6308,-4.6308,-4.6308,-4.6308,-4.6308,-4.6308,-4.6308,-4.6308,-4.6308,-4.6308,-4.6308,-4.6308,-4.6308,-4.6308,-4.6308,-4.6308,-4.6308,-4.6308,-4.6308,-4.6308,-4.6308,-4.6308,-4.6308,-4.6308,-4.6308,-4.6308,-4.6308,-4.6308,-4.6289,-4.6226,-4.5992,-4.5885,-4.5852,-4.5665,-4.5699,-4.5831,-4.5867,-4.6018,-4.6202,-4.6246,-4.6269,-4.6308,-4.6308,-4.6308,-4.6308,-4.6308,-4.6308,-4.6308,-4.6308,-4.6308,-4.6035,-4.4961,-4.3691,-4.248,-4.168,-4.1348,-4.125,-4.1445,-4.1328,-4.1191,-4.1191,-4.1191,-4.1191,-4.1191,-4.1191,-4.1191,-4.1191,-4.1191,-4.0976,-4.0351,-4.0273,-4.0273,-4.0273,-4.0273,-3.9707,-3.832,0.0,-3.8223,-3.8223,-3.7051,-3.7851,-4.1094,-4.1191,-4.1191,-4.1191,-4.0925,-4.0728,-4.057,-4.0523,-4.0496,-4.0496,-4.0496,-4.0496,-4.0496,-4.0496,-3.9938,-3.8931,-3.8277,-3.7373,-3.6346,-3.5731,-3.6519,-3.8007,-3.8007,-3.9065,-4.0496,-4.3008,-4.332,-4.373,-4.4219,-4.5019,-4.5742,-4.623,-4.6308,-4.6308,-4.6308,-4.6308,-4.6308,-4.6308,-4.6308,-4.6308,-4.6308,-4.6308,-4.6308,-4.6308,-4.6308,-4.6308,-4.6308,-4.6308,-4.6308,-4.6308,-4.6308,-4.6308,-4.6308,-4.6308,-4.6308,-4.6308,-4.6308,-4.6308,-4.6308,-4.6308,-4.6308,-4.6308,-4.6308,-4.6308,-4.6288,-4.6001,-4.5899,-4.5881,-4.5743,-4.5757,-4.5866,-4.5959,-4.6082,-4.6223,-4.6289,-4.6308,-4.6308,-4.6308,-4.6308,-4.6308,-4.6308,-4.6308,-4.6308,-4.6308,-4.6308,-4.5996,-4.4726,-4.3398,-4.2187,-4.1387,-4.1191,-4.1191,-4.1191,-4.1191,-4.1191,-4.1191,-4.1191,-4.1191,-4.1191,-4.1191,-4.1191,-4.1191,-4.1191,-4.1191,-4.1191,-4.1191,-4.1191,-4.1191,-4.1191,-4.0605,-3.9199,-3.9082,-3.9082,-3.9082,-3.9082,-3.9726,-4.1152,-4.1191,-4.1191,-4.1191,-4.0925,-4.0698,-4.0496,-4.0496,-4.0496,-4.0496,-4.0496,-4.0496,-4.0496,-4.0496,-4.0035,-3.9227,-3.8354,-3.7488,-3.6615,-3.5808,-3.6519,-3.8007,-3.8007,-3.9065,-4.0496,-4.375,-4.4492,-4.5,-4.5,-4.5723,-4.6308,-4.6308,-4.6308,-4.6308,-4.6308,-4.6308,-4.6308,-4.6308,-4.6308,-4.6308,-4.6308,-4.6308,-4.6308,-4.6308,-4.6308,-4.6308,-4.6308,-4.6308,-4.6308,-4.6308,-4.6308,-4.6308,-4.6308,-4.6308,-4.6308,-4.6308,-4.6308,-4.6308,-4.6308,-4.6308,-4.6308,-4.6308,-4.6308,-4.6308,-4.6288,-4.6001,-4.5912,-4.5912,-4.5832,-4.5815,-4.5872,-4.6047,-4.6115,-4.6147,-4.6268,-4.6308,-4.6308,-4.6308,-4.6308,-4.6308,-4.6308,-4.6308,-4.6308,-4.6308,-4.6308,-4.5879,-4.4141,-4.3144,-4.2344,-4.1406,-4.1191,-4.1191,-4.1191,-4.1191,-4.1191,-4.1191,-4.1191,-4.1113,-4.0859,-4.1035,-4.1113,-4.084,-4.1035,-4.1191,-4.1191,-4.1191,-4.1191,-4.1191,-4.1191,-4.1191,-4.1191,-4.1191,-4.1191,-4.1191,-4.1191,-4.1191,-4.1191,-4.1191,-4.1171,-4.1149,-4.0914,-4.0698,-4.0496,-4.0496,-4.0496,-4.0496,-4.0496,-4.0496,-4.0496,-4.0496,-4.0112,-3.9419,-3.8546,-3.768,-3.6827,-3.6135,-3.6757,-3.8027,-3.8142,-3.9161,-4.0496,-4.4766,-4.4902,-4.5,-4.5,-4.5723,-4.6308,-4.6308,-4.6308,-4.6308,-4.6308,-4.6308,-4.6308,-4.6308,-4.6308,-4.6308,-4.6308,-4.6308,-4.6308,-4.6308,-4.6308,-4.6308,-4.6308,-4.6308,-4.6308,-4.6308,-4.6308,-4.6308,-4.6308,-4.6308,-4.6308,-4.6308,-4.6308,-4.6308,-4.6308,-4.6308,-4.6308,-4.6308,-4.6308,-4.6308,-4.6288,-4.6001,-4.5974,-4.6042,-4.5872,-4.5906,-4.6061,-4.6082,-4.6174,-4.6268,-4.6289,-4.6308,-4.6308,-4.6308,-4.6308,-4.6308,-4.6308,-4.6308,-4.6308,-4.6308,-4.6308,-4.5879,-4.4141,-4.3594,-4.3086,-4.1543,-4.1191,-4.1191,-4.1191,-4.1191,-4.1191,-4.1191,-4.1191,-4.0723,-3.9238,-4.0234,-4.0684,-3.9219,-4.0273,-4.1191,-4.1191,-4.1191,-4.1191,-4.1191,-4.1191,-4.1191,-4.1191,-4.1191,-4.1191,-4.1191,-4.1191,-4.1191,-4.1191,-4.1191,-4.1082,-4.0864,-4.0816,-4.0698,-4.0496,-4.0496,-4.0496,-4.0496,-4.0496,-4.0496,-4.0496,-4.0496,-4.0439,-4.0246,-3.9438,-3.8584,-3.7796,-3.7661,-3.7777,-3.8084,-3.8834,-3.9688,-4.0496,-4.5605,-4.5703,-4.5703,-4.5703,-4.6035,-4.6308,-4.6308,-4.6308,-4.6308,-4.6308,-4.6308,-4.6308,-4.6308,-4.6308,-4.6308,-4.6308,-4.6308,-4.6308,-4.6308,-4.6308,-4.6308,-4.6308,-4.6308,-4.6308,-4.6308,-4.6308,-4.6308,-4.6308,-4.6308,-4.6308,-4.6308,-4.6308,-4.6308,-4.6308,-4.6308,-4.6308,-4.6308,-4.6308,-4.6308,-4.6289,-4.6084,-4.6042,-4.6084,-4.601,-4.6011,-4.6113,-4.6177,-4.6247,-4.6308,-4.6308,-4.6308,-4.6308,-4.6308,-4.6308,-4.6308,-4.6308,-4.6308,-4.6308,-4.6308,-4.6308,-4.5879,-4.4141,-4.3691,-4.3262,-4.1582,-4.1191,-4.1191,-4.1191,-4.1191,-4.1191,-4.1191,-4.1191,-4.0937,-4.0137,-4.0684,-4.0918,-4.0117,-4.0684,-4.1191,-4.1191,-4.1191,-4.1191,-4.1191,-4.1191,-4.1191,-4.1191,-4.1191,-4.1191,-4.1191,-4.1191,-4.1191,-4.1191,-4.1191,-4.1104,-4.0914,-4.0847,-4.0733,-4.0603,-4.0523,-4.0496,-4.0496,-4.0496,-4.0496,-4.0496,-4.0496,-4.0496,-4.0439,-3.9631,-3.9073,-3.8642,-3.818,-3.8296,-3.8738,-3.915,-3.9804,-4.0496,-4.6172,-4.6308,-4.6308,-4.6308,-4.6308,-4.6308,-4.6308,-4.6308,-4.6308,-4.6308,-4.6308,-4.6308,-4.6308,-4.6308,-4.6308,-4.6308,-4.6308,-4.6308,-4.6308,-4.6308,-4.6308,-4.6308,-4.6308,-4.6308,-4.6308,-4.6308,-4.6308,-4.6308,-4.6308,-4.6308,-4.6308,-4.6308,-4.6308,-4.6308,-4.6308,-4.6308,-4.6308,-4.6308,-4.6308,-4.6289,-4.6117,-4.6084,-4.6144,-4.608,-4.6087,-4.615,-4.6268,-4.6308,-4.6308,-4.6308,-4.6308,-4.6308,-4.6308,-4.6308,-4.6308,-4.6308,-4.6308,-4.6308,-4.6308,-4.6308,-4.5937,-4.4394,-4.3848,-4.3301,-4.1816,-4.1328,-4.1191,-4.1191,-4.1191,-4.1191,-4.1191,-4.1191,-4.1074,-4.0664,-4.0937,-4.1055,-4.0644,-4.0937,-4.1191,-4.1191,-4.1191,-4.1191,-4.1191,-4.1191,-4.1191,-4.1191,-4.1191,-4.1191,-4.1191,-4.1191,-4.1191,-4.1191,-4.1191,-4.1148,-4.0996,-4.0867,-4.0781,-4.0697,-4.0566,-4.0496,-4.0496,-4.0496,-4.0496,-4.0496,-4.0496,-4.0496,-4.0458,-3.9823,-3.9477,-3.9246,-3.8777,-3.8873,-3.9323,-3.9515,-3.9977,-4.0496,-4.6289,-4.6308,-4.6308,-4.6308,-4.6308,-4.6308,-4.6308,-4.6308,-4.6308,-4.6308,-4.6308,-4.6308,-4.6308,-4.6308,-4.6308,-4.6308,-4.6308,-4.6308,-4.6308,-4.6308,-4.6308,-4.6308,-4.6308,-4.6308,-4.6308,-4.6308,-4.6308,-4.6308,-4.6308,-4.6308,-4.6308,-4.6308,-4.6308,-4.6308,-4.6308,-4.6308,-4.6308,-4.6308,-4.6308,-4.6289,-4.6027,-4.6053,-4.6268,-4.6001,-4.6075,-4.6289,-4.6308,-4.6308,-4.6308,-4.6308,-4.6308,-4.6308,-4.6308,-4.6308,-4.6308,-4.6308,-4.6308,-4.6308,-4.6308,-4.6308,-4.6074,-4.5137,-4.4297,-4.3457,-4.2519,-4.1738,-4.1191,-4.1191,-4.1191,-4.1191,-4.1191,-4.1191,-4.0664,-3.9043,-4.0156,-4.0644,-3.9023,-4.0176,-4.1191,-4.1191,-4.1191,-4.1191,-4.1191,-4.1191,-4.1191,-4.1191,-4.1191,-4.1191,-4.1191,-4.1191,-4.1191,-4.1191,-4.1191,-4.1148,-4.0996,-4.0867,-4.0781,-4.0697,-4.0566,-4.0496,-4.0496,-4.0496,-4.0496,-4.0496,-4.0496,-4.0496,-4.0496,-4.0439,-3.9977,-3.9381,-4.0054,-3.99,-3.94,-4.015,-4.0458,-4.0496,-4.6308,-4.6308,-4.6308,-4.6308,-4.6308,-4.6308,-4.6308,-4.6308,-4.6308,-4.6308,-4.6308,-4.6308,-4.6308,-4.6308,-4.6308,-4.6308,-4.6308,-4.6308,-4.6308,-4.6308,-4.6308,-4.6308,-4.6308,-4.6308,-4.6308,-4.6308,-4.6308,-4.6308,-4.6308,-4.6308,-4.6308,-4.6308,-4.6308,-4.6308,-4.6308,-4.6308,-4.6308,-4.6308,-4.6247,-4.6173,-4.6072,-4.6082,-4.6152,-4.6053,-4.6144,-4.6308,-4.6308,-4.6308,-4.6308,-4.6308,-4.6308,-4.6308,-4.6308,-4.6308,-4.6308,-4.6308,-4.6308,-4.6308,-4.6308,-4.6308,-4.6094,-4.5215,-4.4336,-4.3476,-4.2598,-4.1777,-4.1191,-4.1191,-4.1191,-4.1191,-4.1191,-4.1191,-4.0976,-4.0312,-4.0762,-4.0976,-4.0312,-4.0781,-4.1191,-4.1191,-4.1191,-4.1191,-4.1191,-4.1191,-4.1191,-4.1191,-4.1191,-4.1191,-4.1191,-4.1191,-4.1191,-4.1191,-4.1191,-4.1171,-4.1127,-4.0911,-4.0796,-4.0771,-4.0584,-4.0496,-4.0496,-4.0496,-4.0496,-4.0496,-4.0496,-4.0496,-4.0496,-4.0496,-4.0323,-4.0073,-4.0381,-4.0304,-4.0073,-4.04,-4.0496,-4.0496,-4.6308,-4.6308,-4.6308,-4.6308,-4.6308,-4.6308,-4.6308,-4.6308,-4.6308,-4.6308,-4.6308,-4.6308,-4.6308,-4.6308,-4.6308,-4.6308,-4.6308,-4.6308,-4.6308,-4.6308,-4.6308,-4.6308,-4.6308,-4.6308,-4.6308,-4.6308,-4.6308,-4.6308,-4.6308,-4.6308,-4.6308,-4.6308,-4.6308,-4.6308,-4.6308,-4.6308,-4.6308,-4.6308,-4.6247,-4.6168,-4.6075,-4.6053,-4.6106,-4.6047,-4.6117,-4.6247,-4.6289,-4.6308,-4.6308,-4.6308,-4.6308,-4.6308,-4.6308,-4.6308,-4.6308,-4.6308,-4.6308,-4.6308,-4.6308,-4.6308,-4.6152,-4.5566,-4.4551,-4.3535,-4.2949,-4.1973,-4.1191,-4.1191,-4.1191,-4.1289,-4.1523,-4.1367,-4.1289,-4.1543,-4.1367,-4.1191,-4.1191,-4.1191,-4.1191,-4.1191,-4.1191,-4.1191,-4.1191,-4.1191,-4.1191,-4.1191,-4.1191,-4.1191,-4.1191,-4.1191,-4.1191,-4.1191,-4.1191,-4.1191,-4.1191,-4.0986,-4.085,-4.0797,-4.0648,-4.0537,-4.0496,-4.0496,-4.0496,-4.0496,-4.0496,-4.0496,-4.0496,-4.0496,-4.0496,-4.0496,-4.0496,-4.0496,-4.0496,-4.0496,-4.0496,-4.0496,-4.6308,-4.6308,-4.6308,-4.6308,-4.6308,-4.6308,-4.6308,-4.6308,-4.6308,-4.6308,-4.6308,-4.6308,-4.6308,-4.6308,-4.6308,-4.6308,-4.6308,-4.6308,-4.6308,-4.6308,-4.6308,-4.6308,-4.6308,-4.6308,-4.6308,-4.6308,-4.6308,-4.6308,-4.6308,-4.6308,-4.6308,-4.6308,-4.6308,-4.6308,-4.6308,-4.6308,-4.6308,-4.6308,-4.6308,-4.6288,-4.6001,-4.5985,-4.6082,-4.5944,-4.5985,-4.6117,-4.6248,-4.6308,-4.6308,-4.6308,-4.6308,-4.6308,-4.6308,-4.6308,-4.6308,-4.6308,-4.6308,-4.6308,-4.6308,-4.6308,-4.6308,-4.6308,-4.498,-4.3711,-4.3691,-4.2402,-4.1211,-4.1211,-4.1211,-4.1465,-4.2266,-4.1758,-4.1484,-4.2285,-4.1738,-4.1211,-4.1211,-4.1191,-4.1191,-4.1191,-4.1191,-4.1191,-4.1191,-4.1191,-4.1191,-4.1191,-4.1191,-4.1191,-4.1191,-4.1191,-4.1191,-4.1191,-4.1191,-4.1191,-4.1191,-4.1076,-4.0925,-4.0797,-4.0731,-4.0636,-4.0496,-4.0496,-4.0496,-4.0496,-4.0496,-4.0496,-4.0496,-4.0496,-4.0496,-4.0496,-4.0496,-4.0496,-4.0496,-4.0496,-4.0496,-4.0496,-4.6308,-4.6308,-4.6308,-4.6308,-4.6308,-4.6308,-4.6308,-4.6308,-4.6308,-4.6308,-4.6308,-4.6308,-4.6308,-4.6308,-4.6308,-4.6308,-4.6308,-4.6308,-4.6308,-4.6308,-4.6308,-4.6308,-4.6308,-4.6308,-4.6308,-4.6308,-4.6308,-4.6308,-4.6308,-4.6308,-4.6308,-4.6308,-4.6308,-4.6308,-4.6308,-4.6308,-4.6308,-4.6308,-4.6247,-4.6149,-4.6077,-4.6053,-4.6106,-4.6067,-4.6119,-4.6247,-4.6289,-4.6308,-4.6308,-4.6308,-4.6308,-4.6308,-4.6308,-4.6308,-4.6308,-4.6308,-4.6308,-4.6308,-4.6308,-4.6308,-4.6308,-4.6308,-4.5449,-4.4453,-4.3848,-4.2832,-4.2031,-4.2031,-4.2031,-4.2305,-4.3164,-4.3125,-4.3027,-4.3262,-4.2598,-4.2031,-4.2031,-4.1562,-4.1191,-4.1191,-4.1191,-4.1191,-4.1191,-4.1191,-4.1191,-4.1191,-4.1191,-4.1191,-4.1191,-4.1191,-4.1191,-4.1191,-4.1191,-4.1191,-4.1191,-4.1076,-4.0925,-4.0797,-4.0731,-4.0636,-4.0496,-4.0496,-4.0496,-4.0496,-4.0496,-4.0496,-4.0496,-4.0496,-4.0496,-4.0496,-4.0496,-4.0496,-4.0496,-4.0496,-4.0496,-4.0496,-4.6308,-4.6308,-4.6308,-4.6308,-4.6308,-4.6308,-4.6308,-4.6308,-4.6308,-4.6308,-4.6308,-4.6308,-4.6308,-4.6308,-4.6308,-4.6308,-4.6308,-4.6308,-4.6308,-4.6308,-4.6308,-4.6308,-4.6308,-4.6308,-4.6308,-4.6308,-4.6308,-4.6308,-4.6308,-4.6308,-4.6308,-4.6308,-4.6308,-4.6308,-4.6308,-4.6308,-4.6308,-4.6308,-4.6248,-4.6174,-4.6119,-4.6108,-4.6108,-4.6108,-4.6147,-4.6225,-4.6289,-4.6308,-4.6308,-4.6308,-4.6308,-4.6308,-4.6308,-4.6308,-4.6308,-4.6308,-4.6308,-4.6308,-4.6308,-4.6308,-4.6308,-4.6308,-4.5644,-4.4766,-4.3906,-4.3027,-4.2402,-4.2402,-4.2402,-4.2773,-4.3984,-4.3926,-4.3808,-4.416,-4.3476,-4.2793,-4.2441,-4.1973,-4.1562,-4.123,-4.1191,-4.1191,-4.1191,-4.1191,-4.1191,-4.1191,-4.1191,-4.1191,-4.1191,-4.1191,-4.1191,-4.1191,-4.1191,-4.1191,-4.1191,-4.1126,-4.099,-4.0797,-4.0767,-4.066,-4.0496,-4.0496,-4.0496,-4.0496,-4.0496,-4.0496,-4.0496,-4.0496,-4.0496,-4.0496,-4.0496,-4.0496,-4.0496,-4.0496,-4.0496,-4.0496,-4.6308,-4.6308,-4.6308,-4.6308,-4.6308,-4.6308,-4.6308,-4.6308,-4.6308,-4.6308,-4.6308,-4.6308,-4.6308,-4.6308,-4.6308,-4.6308,-4.6308,-4.6308,-4.6308,-4.6308,-4.6308,-4.6308,-4.6308,-4.6308,-4.6308,-4.6308,-4.6308,-4.6308,-4.6308,-4.6308,-4.6308,-4.6308,-4.6308,-4.6308,-4.6308,-4.6289,-4.6289,-4.6289,-4.6289,-4.6268,-4.6147,-4.6108,-4.611,-4.6115,-4.6113,-4.6115,-4.6246,-4.6289,-4.6308,-4.6308,-4.6308,-4.6308,-4.6289,-4.6289,-4.6289,-4.6289,-4.6289,-4.6289,-4.6308,-4.6308,-4.6308,-4.6308,-4.5703,-4.4883,-4.4004,-4.3203,-4.2637,-4.2637,-4.2637,-4.3144,-4.4805,-4.4473,-4.4199,-4.498,-4.4375,-4.3535,-4.2734,-4.2578,-4.2246,-4.1504,-4.1348,-4.1308,-4.1308,-4.123,-4.1191,-4.1191,-4.1191,-4.1191,-4.1191,-4.1191,-4.1191,-4.1191,-4.1191,-4.1191,-4.1191,-4.1191,-4.1077,-4.0813,-4.0801,-4.0698,-4.0519,-4.0504,-4.0496,-4.0496,-4.0496,-4.0496,-4.0496,-4.0496,-4.0496,-4.0496,-4.0496,-4.0496,-4.0496,-4.0496,-4.0496,-4.0496,-4.6308,-4.6308,-4.6308,-4.6308,-4.6308,-4.6308,-4.6308,-4.6308,-4.6308,-4.6308,-4.6308,-4.6308,-4.6308,-4.6308,-4.6308,-4.6308,-4.6308,-4.6308,-4.6308,-4.6308,-4.6308,-4.6308,-4.6308,-4.6308,-4.6308,-4.6308,-4.6308,-4.6308,-4.6308,-4.6308,-4.6308,-4.6308,-4.6308,-4.6308,-4.6308,-4.6246,-4.6145,-4.6145,-4.6145,-4.6144,-4.6115,-4.6108,-4.6115,-4.6222,-4.6198,-4.6091,-4.6122,-4.6202,-4.6308,-4.6308,-4.6308,-4.6289,-4.6174,-4.6145,-4.6145,-4.6145,-4.6145,-4.6171,-4.6268,-4.6308,-4.6308,-4.6308,-4.6152,-4.5781,-4.4922,-4.457,-4.4433,-4.4433,-4.4433,-4.4766,-4.582,-4.5859,-4.5801,-4.5996,-4.5293,-4.4648,-4.4453,-4.3848,-4.3359,-4.3183,-4.2558,-4.2148,-4.2148,-4.1562,-4.1191,-4.1191,-4.1191,-4.1191,-4.1191,-4.1191,-4.1191,-4.1191,-4.1191,-4.1191,-4.1191,-4.1191,-4.1126,-4.0957,-4.0854,-4.0743,-4.0642,-4.0545,-4.0496,-4.0496,-4.0496,-4.0496,-4.0496,-4.0496,-4.0496,-4.0496,-4.0496,-4.0496,-4.0496,-4.0496,-4.0496,-4.0496,-4.6308,-4.6308,-4.6308,-4.6308,-4.6308,-4.6308,-4.6308,-4.6308,-4.6308,-4.6308,-4.6308,-4.6308,-4.6308,-4.6308,-4.6308,-4.6308,-4.6308,-4.6308,-4.6308,-4.6308,-4.6308,-4.6308,-4.6308,-4.6308,-4.6308,-4.6308,-4.6308,-4.6308,-4.6308,-4.6308,-4.6308,-4.6308,-4.6308,-4.6308,-4.6226,-4.6171,-4.6106,-4.6036,-4.5998,-4.5998,-4.5998,-4.5998,-4.6005,-4.6082,-4.6072,-4.5998,-4.5998,-4.6045,-4.6113,-4.6113,-4.6149,-4.6199,-4.6119,-4.6108,-4.6108,-4.6108,-4.6047,-4.6027,-4.6084,-4.6168,-4.6201,-4.6201,-4.6248,-4.6074,-4.5195,-4.5,-4.4883,-4.4473,-4.4707,-4.5137,-4.5605,-4.6016,-4.6308,-4.6308,-4.5918,-4.5469,-4.5058,-4.4609,-4.418,-4.375,-4.3301,-4.2851,-4.2441,-4.168,-4.1191,-4.1191,-4.1191,-4.1191,-4.1191,-4.1191,-4.1191,-4.1191,-4.1191,-4.1191,-4.1191,-4.1191,-4.1151,-4.1083,-4.0883,-4.0757,-4.0692,-4.0566,-4.0496,-4.0496,-4.0496,-4.0496,-4.0496,-4.0496,-4.0496,-4.0496,-4.0496,-4.0496,-4.0496,-4.0496,-4.0496,-4.0496,-4.6308,-4.6308,-4.6308,-4.6308,-4.6308,-4.6308,-4.6308,-4.6308,-4.6308,-4.6308,-4.6308,-4.6308,-4.6308,-4.6308,-4.6289,-4.6268,-4.6268,-4.6268,-4.6268,-4.6247,-4.6248,-4.6308,-4.6289,-4.6288,-4.6308,-4.6308,-4.6308,-4.6308,-4.6308,-4.6308,-4.6308,-4.6308,-4.6308,-4.6289,-4.615,-4.6084,-4.6069,-4.5939,-4.5886,-4.5886,-4.5886,-4.5886,-4.5872,-4.5894,-4.5885,-4.5886,-4.5886,-4.5886,-4.5872,-4.5894,-4.5978,-4.6053,-4.6059,-4.6056,-4.6056,-4.6056,-4.5963,-4.5896,-4.5894,-4.5985,-4.6072,-4.6072,-4.6147,-4.6051,-4.535,-4.5214,-4.4961,-4.4101,-4.4629,-4.5176,-4.5039,-4.5703,-4.6308,-4.6308,-4.6308,-4.6055,-4.5312,-4.5215,-4.4941,-4.4238,-4.3887,-4.3359,-4.248,-4.168,-4.1191,-4.1191,-4.1191,-4.1191,-4.1191,-4.1191,-4.1191,-4.1191,-4.1191,-4.1191,-4.1191,-4.1191,-4.1191,-4.1191,-4.0922,-4.077,-4.0713,-4.0581,-4.0496,-4.0496,-4.0496,-4.0496,-4.0496,-4.0496,-4.0496,-4.0496,-4.0496,-4.0496,-4.0496,-4.0496,-4.0496,-4.0496,-4.6308,-4.6308,-4.6308,-4.6308,-4.6308,-4.6308,-4.6308,-4.6308,-4.6308,-4.6308,-4.6308,-4.6308,-4.6308,-4.6308,-4.6248,-4.6144,-4.614,-4.614,-4.614,-4.6027,-4.6069,-4.6289,-4.6198,-4.6175,-4.6308,-4.6308,-4.6308,-4.6308,-4.6308,-4.6308,-4.6308,-4.6308,-4.6308,-4.6289,-4.615,-4.6036,-4.5916,-4.5842,-4.5815,-4.5815,-4.5815,-4.5815,-4.5808,-4.5881,-4.5852,-4.5815,-4.5815,-4.5815,-4.5814,-4.5886,-4.5912,-4.5927,-4.5853,-4.5846,-4.5846,-4.5846,-4.5834,-4.5826,-4.5872,-4.5912,-4.5924,-4.5924,-4.5932,-4.5946,-4.5952,-4.6047,-4.5879,-4.5,-4.5527,-4.5898,-4.5137,-4.5703,-4.6308,-4.6308,-4.6308,-4.6269,-4.6133,-4.6113,-4.6074,-4.5957,-4.4629,-4.3359,-4.248,-4.168,-4.1191,-4.1191,-4.1191,-4.1191,-4.1191,-4.1191,-4.1191,-4.1191,-4.1191,-4.1191,-4.1191,-4.1191,-4.1191,-4.1191,-4.0922,-4.0789,-4.0788,-4.0597,-4.0496,-4.0496,-4.0496,-4.0496,-4.0496,-4.0496,-4.0496,-4.0496,-4.0496,-4.0496,-4.0496,-4.0496,-4.0496,-4.0496,-4.6308,-4.6308,-4.6308,-4.6308,-4.6308,-4.6308,-4.6308,-4.6308,-4.6308,-4.6308,-4.6308,-4.6308,-4.6308,-4.6308,-4.6247,-4.6115,-4.6108,-4.6075,-4.5992,-4.5928,-4.5944,-4.6077,-4.6027,-4.6024,-4.6077,-4.6147,-4.6198,-4.6198,-4.6268,-4.6308,-4.6308,-4.6224,-4.6198,-4.6175,-4.6013,-4.5906,-4.5836,-4.5728,-4.5696,-4.5696,-4.5696,-4.5696,-4.5692,-4.5715,-4.572,-4.5696,-4.5696,-4.5696,-4.5692,-4.5722,-4.5776,-4.5836,-4.5803,-4.5803,-4.5803,-4.5803,-4.5747,-4.57,-4.5729,-4.5783,-4.5847,-4.5847,-4.5867,-4.5912,-4.5978,-4.6087,-4.5968,-4.5156,-4.5683,-4.6035,-4.5156,-4.5703,-4.6308,-4.6308,-4.6308,-4.6308,-4.6308,-4.6308,-4.6308,-4.6308,-4.4766,-4.3555,-4.3164,-4.1953,-4.1191,-4.1191,-4.1191,-4.1191,-4.1191,-4.1191,-4.1191,-4.1191,-4.1191,-4.1191,-4.1191,-4.1191,-4.1191,-4.1191,-4.0998,-4.087,-4.0793,-4.0591,-4.0496,-4.0496,-4.0496,-4.0496,-4.0496,-4.0496,-4.0496,-4.0496,-4.0496,-4.0496,-4.0554,-4.1046,-4.1239,-4.1296]},{"header":{"parameterUnit":"m.s-1","parameterCategory":1,"la1":30.6,"la2":28.766,"lo1":-90.7593,"lo2":-88.6598,"dx":0.0162,"dy":0.0183,"nx":116,"ny":114,"refTime":"2022-12-04T18:00:00:Z","depth":0,"parameterNumber":3,"parameterNumberName":"V-component_of_WINDS"},"data":[0.0,0.0,0.0,0.0,0.0,0.0,0.0,0.0,0.0,0.0,0.0,0.0,0.0,0.0,0.0,0.0,0.0,0.0,0.0,0.0,0.0,0.0,0.0,0.0,0.0,0.0,0.0,0.0,0.0,0.0,0.0,0.0,0.0,0.0,0.0,0.0,0.0,0.0,0.0,0.0,0.0,0.0,0.0,0.0,0.0,0.0,0.0,0.0,0.0,0.0,0.0,0.0,0.0,0.0,0.0,0.0,0.0,0.0,0.0,0.0,0.0,0.0,0.0,0.0,0.0,0.0,0.0,0.0,0.0,0.0,0.0,0.0,0.0,0.0,0.0,0.0,0.0,0.0,0.0,0.0,0.0,0.0,0.0,0.0,0.0,0.0,0.0,0.0,0.0,0.0,0.0,0.0,0.0,0.0,0.0,0.0,0.0,0.0,0.0,0.0,0.0,0.0,0.0,0.0,0.0,0.0,0.0,0.0,0.0,0.0,0.0,0.0,0.0,0.0,0.0,0.0,0.0,0.0,0.0,0.0,0.0,0.0,0.0,0.0,0.0,0.0,0.0,0.0,0.0,0.0,0.0,0.0,0.0,0.0,0.0,0.0,0.0,0.0,0.0,0.0,0.0,0.0,0.0,0.0,0.0,0.0,0.0,0.0,0.0,0.0,0.0,0.0,0.0,0.0,0.0,0.0,0.0,0.0,0.0,0.0,0.0,0.0,0.0,0.0,0.0,0.0,0.0,0.0,0.0,0.0,0.0,0.0,0.0,0.0,0.0,0.0,0.0,0.0,0.0,0.0,0.0,0.0,0.0,0.0,0.0,0.0,0.0,0.0,0.0,0.0,0.0,0.0,0.0,0.0,0.0,0.0,0.0,0.0,0.0,0.0,0.0,0.0,0.0,0.0,0.0,0.0,0.0,0.0,0.0,0.0,0.0,0.0,0.0,0.0,0.0,0.0,0.0,0.0,0.0,0.0,0.0,0.0,0.0,0.0,0.0,0.0,0.0,0.0,0.0,0.0,0.0,0.0,0.0,0.0,0.0,0.0,0.0,0.0,0.0,0.0,0.0,0.0,0.0,0.0,0.0,0.0,0.0,0.0,0.0,0.0,0.0,0.0,0.0,0.0,0.0,0.0,0.0,0.0,0.0,0.0,0.0,0.0,0.0,0.0,0.0,0.0,0.0,0.0,0.0,0.0,0.0,0.0,0.0,0.0,0.0,0.0,0.0,0.0,0.0,0.0,0.0,0.0,0.0,0.0,0.0,0.0,0.0,0.0,0.0,0.0,0.0,0.0,0.0,0.0,0.0,0.0,0.0,0.0,0.0,0.0,0.0,0.0,0.0,0.0,0.0,0.0,0.0,0.0,0.0,0.0,0.0,0.0,0.0,0.0,0.0,0.0,0.0,0.0,0.0,0.0,0.0,0.0,0.0,0.0,0.0,0.0,0.0,0.0,0.0,0.0,0.0,0.0,0.0,0.0,0.0,0.0,0.0,0.0,0.0,0.0,0.0,0.0,0.0,0.0,0.0,0.0,0.0,0.0,0.0,0.0,0.0,0.0,0.0,0.0,0.0,0.0,0.0,0.0,0.0,0.0,0.0,0.0,0.0,0.0,0.0,0.0,0.0,0.0,0.0,0.0,0.0,0.0,0.0,0.0,0.0,0.0,0.0,0.0,0.0,0.0,0.0,0.0,0.0,0.0,0.0,0.0,0.0,0.0,0.0,0.0,0.0,0.0,0.0,0.0,0.0,0.0,0.0,0.0,0.0,0.0,0.0,0.0,0.0,0.0,0.0,0.0,0.0,0.0,0.0,0.0,0.0,0.0,0.0,0.0,0.0,0.0,0.0,0.0,0.0,0.0,0.0,0.0,0.0,0.0,0.0,0.0,0.0,0.0,0.0,0.0,0.0,0.0,0.0,0.0,0.0,0.0,0.0,0.0,0.0,0.0,0.0,0.0,0.0,0.0,0.0,0.0,0.0,0.0,0.0,0.0,0.0,0.0,0.0,0.0,0.0,0.0,0.0,0.0,0.0,0.0,0.0,0.0,0.0,0.0,0.0,0.0,0.0,0.0,0.0,0.0,0.0,0.0,0.0,0.0,0.0,0.0,0.0,0.0,0.0,0.0,0.0,0.0,0.0,0.0,0.0,0.0,0.0,0.0,0.0,0.0,0.0,0.0,0.0,0.0,0.0,0.0,0.0,0.0,0.0,0.0,0.0,0.0,0.0,0.0,0.0,0.0,0.0,0.0,0.0,0.0,0.0,0.0,0.0,0.0,0.0,0.0,0.0,0.0,0.0,0.0,0.0,0.0,0.0,0.0,0.0,0.0,0.0,0.0,0.0,0.0,0.0,0.0,0.0,0.0,0.0,0.0,0.0,0.0,0.0,0.0,0.0,0.0,0.0,0.0,0.0,0.0,0.0,0.0,0.0,0.0,0.0,0.0,0.0,0.0,0.0,0.0,0.0,0.0,0.0,0.0,0.0,0.0,0.0,0.0,0.0,0.0,0.0,0.0,0.0,0.0,0.0,0.0,0.0,0.0,0.0,0.0,0.0,0.0,0.0,0.0,0.0,0.0,0.0,0.0,0.0,0.0,0.0,0.0,0.0,0.0,0.0,0.0,0.0,0.0,0.0,0.0,0.0,0.0,0.0,0.0,0.0,0.0,0.0,0.0,0.0,0.0,0.0,0.0,0.0,0.0,0.0,0.0,0.0,0.0,0.0,0.0,0.0,0.0,0.0,0.0,0.0,0.0,0.0,0.0,0.0,0.0,0.0,0.0,0.0,0.0,0.0,0.0,0.0,0.0,0.0,0.0,0.0,0.0,0.0,0.0,0.0,0.0,0.0,0.0,0.0,0.0,0.0,0.0,0.0,0.0,0.0,0.0,0.0,0.0,0.0,0.0,0.0,0.0,0.0,0.0,0.0,0.0,0.0,0.0,0.0,0.0,0.0,0.0,0.0,0.0,0.0,0.0,0.0,0.0,0.0,0.0,0.0,0.0,0.0,0.0,0.0,0.0,0.0,0.0,0.0,0.0,0.0,0.0,0.0,0.0,0.0,0.0,0.0,0.0,0.0,0.0,0.0,0.0,0.0,0.0,0.0,0.0,0.0,0.0,0.0,0.0,0.0,0.0,0.0,0.0,0.0,0.0,0.0,0.0,0.0,0.0,0.0,0.0,0.0,0.0,0.0,0.0,0.0,0.0,0.0,0.0,0.0,0.0,0.0,0.0,0.0,0.0,0.0,0.0,0.0,0.0,0.0,0.0,0.0,0.0,0.0,0.0,0.0,0.0,0.0,0.0,0.0,0.0,0.0,0.0,0.0,0.0,0.0,0.0,0.0,0.0,0.0,0.0,0.0,0.0,0.0,0.0,0.0,0.0,0.0,0.0,0.0,0.0,0.0,0.0,0.0,0.0,0.0,0.0,0.0,0.0,0.0,0.0,0.0,0.0,0.0,0.0,0.0,0.0,0.0,0.0,0.0,0.0,0.0,0.0,0.0,0.0,0.0,0.0,0.0,0.0,0.0,0.0,0.0,0.0,0.0,0.0,0.0,0.0,0.0,0.0,0.0,0.0,0.0,0.0,0.0,0.0,0.0,0.0,0.0,0.0,0.0,0.0,0.0,0.0,0.0,0.0,0.0,0.0,0.0,0.0,0.0,0.0,0.0,0.0,0.0,0.0,0.0,0.0,0.0,0.0,0.0,0.0,0.0,0.0,0.0,0.0,0.0,0.0,0.0,0.0,0.0,0.0,0.0,0.0,0.0,0.0,0.0,0.0,0.0,0.0,0.0,0.0,0.0,0.0,0.0,0.0,0.0,0.0,0.0,0.0,0.0,0.0,0.0,0.0,0.0,0.0,0.0,0.0,0.0,0.0,0.0,0.0,0.0,0.0,0.0,0.0,0.0,0.0,0.0,0.0,0.0,0.0,0.0,0.0,0.0,0.0,0.0,0.0,0.0,0.0,0.0,0.0,0.0,0.0,0.0,0.0,0.0,0.0,0.0,0.0,0.0,0.0,0.0,0.0,0.0,0.0,0.0,0.0,0.0,0.0,0.0,0.0,0.0,0.0,0.0,0.0,0.0,0.0,0.0,0.0,0.0,0.0,0.0,0.0,0.0,0.0,0.0,0.0,0.0,0.0,0.0,0.0,0.0,0.0,0.0,0.0,0.0,0.0,0.0,0.0,0.0,0.0,0.0,0.0,0.0,0.0,0.0,0.0,0.0,0.0,0.0,0.0,0.0,0.0,0.0,0.0,0.0,0.0,0.0,0.0,0.0,0.0,0.0,0.0,0.0,0.0,0.0,0.0,0.0,0.0,0.0,0.0,0.0,0.0,0.0,0.0,0.0,0.0,0.0,0.0,0.0,0.0,0.0,0.0,0.0,0.0,0.0,0.0,0.0,0.0,0.0,0.0,0.0,0.0,0.0,0.0,0.0,0.0,0.0,0.0,0.0,0.0,0.0,0.0,0.0,0.0,0.0,0.0,0.0,0.0,0.0,0.0,0.0,0.0,0.0,0.0,0.0,0.0,0.0,0.0,0.0,0.0,0.0,0.0,0.0,0.0,0.0,0.0,0.0,0.0,0.0,0.0,0.0,0.0,0.0,0.0,0.0,0.0,0.0,0.0,0.0,0.0,0.0,0.0,0.0,0.0,0.0,0.0,0.0,0.0,0.0,0.0,0.0,0.0,0.0,0.0,0.0,0.0,0.0,0.0,0.0,0.0,0.0,0.0,0.0,0.0,0.0,0.0,0.0,0.0,0.0,0.0,0.0,0.0,0.0,0.0,0.0,0.0,0.0,0.0,0.0,0.0,0.0,0.0,0.0,0.0,0.0,0.0,0.0,0.0,0.0,0.0,0.0,0.0,0.0,0.0,0.0,0.0,0.0,0.0,0.0,0.0,0.0,0.0,0.0,0.0,0.0,0.0,0.0,0.0,0.0,0.0,0.0,0.0,0.0,0.0,0.0,0.0,0.0,0.0,0.0,0.0,0.0,0.0,0.0,0.0,0.0,0.0,0.0,0.0,0.0,0.0,0.0,0.0,0.0,0.0,0.0,0.0,0.0,0.0,0.0,0.0,0.0,0.0,0.0,0.0,0.0,0.0,0.0,0.0,0.0,0.0,0.0,0.0,0.0,0.0,0.0,0.0,0.0,0.0,0.0,0.0,0.0,0.0,0.0,0.0,0.0,0.0,0.0,0.0,0.0,0.0,0.0,0.0,0.0,0.0,0.0,0.0,0.0,0.0,0.0,0.0,0.0,0.0,0.0,0.0,0.0,0.0,0.0,0.0,0.0,0.0,0.0,0.0,0.0,0.0,0.0,0.0,0.0,0.0,0.0,0.0,0.0,0.0,0.0,0.0,0.0,0.0,0.0,0.0,0.0,0.0,0.0,0.0,0.0,0.0,0.0,0.0,0.0,0.0,0.0,0.0,0.0,0.0,0.0,0.0,0.0,0.0,0.0,0.0,0.0,0.0,0.0,0.0,0.0,0.0,0.0,0.0,0.0,0.0,0.0,0.0,0.0,0.0,0.0,0.0,0.0,0.0,0.0,0.0,0.0,0.0,0.0,0.0,0.0,0.0,0.0,0.0,0.0,0.0,0.0,0.0,0.0,0.0,0.0,0.0,0.0,0.0,0.0,0.0,0.0,0.0,0.0,0.0,0.0,0.0,0.0,0.0,0.0,0.0,0.0,0.0,0.0,0.0,0.0,0.0,0.0,0.0,0.0,0.0,0.0,0.0,0.0,0.0,0.0,0.0,0.0,0.0,0.0,0.0,0.0,0.0,0.0,0.0,0.0,0.0,0.0,0.0,0.0,0.0,0.0,0.0,0.0,0.0,0.0,0.0,0.0,0.0,0.0,0.0,0.0,0.0,0.0,0.0,0.0,0.0,0.0,0.0,0.0,0.0,0.0,0.0,0.0,0.0,0.0,0.0,0.0,0.0,0.0,0.0,0.0,0.0,0.0,0.0,0.0,0.0,0.0,0.0,0.0,0.0,0.0,0.0,0.0,0.0,0.0,0.0,0.0,0.0,0.0,0.0,0.0,0.0,0.0,0.0,0.0,0.0,0.0,0.0,0.0,0.0,0.0,0.0,0.0,0.0,-0.504,-0.5512,0.0,0.0,0.0,0.0,0.0,0.0,0.0,0.0,0.0,0.0,0.0,0.0,0.0,0.0,0.0,0.0,0.0,0.0,0.0,0.0,0.0,0.0,0.0,-0.0448,0.0,0.0,0.0,0.0,0.0,0.0,0.0,0.0,0.0,0.0,0.0,0.0,0.0,0.0,0.0,0.0,0.0,0.0,0.0,0.0,0.0,0.0,0.0,0.0,0.0,0.0,0.0,0.0,0.0,0.0,0.0,0.0,0.0,0.0,0.0,0.0,0.0,0.0,0.0,0.0,0.0,0.0,0.0,0.0,0.0,0.0,0.0,0.0,0.0,0.0,0.0,0.0,0.0,0.0,0.0,0.0,0.0,0.0,0.0,0.0,0.0,0.0,0.0,0.0,0.0,0.0,0.0,0.0,0.0,0.0,0.0,0.0,0.0,0.0,0.0,0.0,0.0,0.0,0.0,0.0,0.0,0.0,0.0,0.0,0.0,0.0,0.0,0.0,0.0,0.0,-0.505,-0.5786,0.0,0.0,0.0,0.0,0.0,0.0,0.0,0.0,0.0,0.0,0.0,0.0,0.0,0.0,0.0,0.0,0.0,0.0,0.0,0.0,0.0,-0.1734,-0.0508,-0.0141,0.0,0.0,0.0,0.0,0.0,0.0,0.0,0.0,0.0,0.0,0.0,0.0,0.0,0.0,0.0,0.0,0.0,0.0,0.0,0.0,0.0,0.0,0.0,0.0,0.0,0.0,0.0,0.0,0.0,0.0,0.0,0.0,0.0,0.0,0.0,0.0,0.0,0.0,0.0,0.0,0.0,0.0,0.0,0.0,0.0,0.0,0.0,0.0,0.0,0.0,0.0,0.0,0.0,0.0,0.0,0.0,0.0,0.0,0.0,0.0,0.0,0.0,0.0,0.0,0.0,0.0,0.0,0.0,0.0,0.0,0.0,0.0,0.0,0.0,0.0,0.0,0.0,0.0,0.0,0.0,0.0,0.0,0.0,0.0,0.0,0.0,0.0,-0.0213,-0.1325,-0.3176,-0.4951,-0.5963,-0.6334,-0.631,0.0,0.0,0.0,0.0,0.0,0.0,0.0,0.0,0.0,0.0,0.0,0.0,0.0,0.0,0.0,0.0,0.0,0.0,0.0,-0.2115,-0.1945,-0.0768,0.0,0.0,0.0,0.0,0.0,0.0,0.0,0.0,0.0,0.0,0.0,0.0,0.0,0.0,0.0,0.0,0.0,0.0,0.0,0.0,0.0,0.0,0.0,0.0,0.0,0.0,0.0,0.0,0.0,0.0,0.0,0.0,0.0,0.0,0.0,0.0,0.0,0.0,0.0,0.0,0.0,0.0,0.0,0.0,0.0,0.0,0.0,0.0,0.0,0.0,0.0,0.0,0.0,0.0,0.0,0.0,0.0,0.0,0.0,0.0,0.0,0.0,0.0,0.0,0.0,0.0,0.0,0.0,0.0,0.0,0.0,0.0,0.0,0.0,0.0,0.0,0.0,0.0,0.0,0.0,0.0,0.0,0.0,0.0,0.0,0.0,-0.0042,-0.0967,-0.1556,-0.1885,-0.3037,0.0,-0.6474,-0.6351,0.0,0.0,0.0,0.0,0.0,0.0,0.0,0.0,0.0,0.0,0.0,0.0,0.0,0.0,0.0,0.0,0.0,0.0,0.0,0.0,0.0,-0.0649,0.0,0.0,0.0,0.0,0.0,0.0,0.0,0.0,0.0,0.0,0.0,0.0,0.0,0.0,0.0,0.0,0.0,0.0,0.0,0.0,0.0,0.0,0.0,0.0,0.0,0.0,0.0,0.0,0.0,0.0,0.0,0.0,0.0,0.0,0.0,0.0,0.0,0.0,0.0,0.0,0.0,0.0,0.0,0.0,0.0,0.0,0.0,0.0,0.0,0.0,0.0,0.0,0.0,0.0,0.0,0.0,0.0,0.0,0.0,0.0,0.0,0.0,0.0,0.0,0.0,0.0,0.0,0.0,0.0,0.0,0.0,0.0,0.0,0.0,0.0,0.0,0.0,0.0,0.0,0.0,0.0,0.0,0.0,0.0,0.0,0.0,0.0,-0.0477,-0.1089,-0.1739,-0.2104,-0.3181,-0.474,-0.5295,-0.5897,-0.6491,0.0,0.0,0.0,0.0,-0.6098,-0.6088,0.0,0.0,0.0,0.0,0.0,0.0,0.0,0.0,0.0,0.0,0.0,0.0,-0.1438,-0.0558,0.0,0.0,0.0,0.0,0.0,0.0,0.0,0.0,0.0,0.0,0.0,0.0,0.0,0.0,0.0,0.0,0.0,0.0,0.0,0.0,0.0,0.0,0.0,0.0,0.0,0.0,0.0,0.0,0.0,0.0,0.0,0.0,0.0,0.0,0.0,0.0,0.0,0.0,0.0,0.0,0.0,0.0,0.0,0.0,0.0,0.0,0.0,0.0,0.0,0.0,0.0,0.0,0.0,0.0,0.0,0.0,0.0,0.0,0.0,0.0,0.0,0.0,0.0,0.0,0.0,0.0,0.0,0.0,0.0,0.0,0.0,0.0,0.0,0.0,0.0,0.0,0.0,0.0,0.0,0.0,0.0,0.0,0.0,0.0,0.0,0.0,0.0,0.0,-0.0494,-0.1343,-0.1233,-0.1836,-0.3006,-0.4364,-0.5444,-0.6271,-0.6451,-0.6569,-0.6559,-0.6453,-0.6412,-0.6412,0.0,0.0,0.0,0.0,0.0,0.0,0.0,0.0,0.0,0.0,0.0,-0.2196,-0.2136,-0.0856,0.0,0.0,0.0,0.0,0.0,0.0,0.0,0.0,0.0,0.0,0.0,0.0,0.0,0.0,0.0,0.0,0.0,0.0,0.0,0.0,0.0,0.0,0.0,0.0,0.0,0.0,0.0,0.0,0.0,0.0,0.0,0.0,0.0,0.0,0.0,0.0,0.0,0.0,0.0,0.0,0.0,0.0,0.0,0.0,0.0,0.0,0.0,0.0,0.0,0.0,0.0,0.0,0.0,0.0,0.0,0.0,0.0,0.0,0.0,0.0,0.0,0.0,0.0,0.0,0.0,0.0,0.0,0.0,0.0,0.0,0.0,0.0,0.0,0.0,0.0,0.0,0.0,0.0,0.0,0.0,0.0,0.0,0.0,0.0,0.0,0.0,0.0,0.0,-0.0045,-0.009,-0.009,-0.0761,-0.2048,-0.4051,-0.4944,-0.5111,-0.6233,-0.6688,-0.6688,-0.6681,-0.6678,-0.6678,0.0,0.0,0.0,-0.4498,-0.4491,-0.4491,-0.4491,-0.4491,-0.4491,-0.4491,-0.3157,-0.2206,-0.2209,-0.0887,0.0,0.0,0.0,0.0,0.0,0.0,0.0,0.0,0.0,0.0,0.0,0.0,0.0,0.0,0.0,0.0,0.0,0.0,0.0,0.0,0.0,0.0,0.0,0.0,0.0,0.0,0.0,0.0,0.0,0.0,0.0,0.0,0.0,0.0,0.0,0.0,0.0,0.0,0.0,0.0,0.0,0.0,0.0,0.0,0.0,0.0,0.0,0.0,0.0,0.0,0.0,0.0,0.0,0.0,0.0,0.0,0.0,0.0,0.0,0.0,0.0,0.0,0.0,0.0,0.0,0.0,0.0,0.0,0.0,0.0,0.0,0.0,0.0,0.0,0.0,0.0,0.0,0.0,0.0,0.0,0.0,0.0,0.0,0.0,0.0,0.0,0.0,0.0,0.0,0.0,0.0,-0.0225,-0.0762,-0.2289,-0.3364,-0.4189,-0.5412,-0.5852,-0.5927,-0.658,-0.6905,-0.6913,0.0,0.0,0.0,-0.4491,-0.4491,-0.4491,-0.4491,-0.4491,-0.4528,-0.4631,-0.3199,-0.225,-0.2371,-0.0967,0.0,0.0,0.0,0.0,0.0,0.0,0.0,0.0,0.0,0.0,0.0,0.0,0.0,0.0,0.0,0.0,0.0,0.0,0.0,0.0,0.0,0.0,0.0,0.0,0.0,0.0,0.0,0.0,0.0,0.0,0.0,0.0,0.0,0.0,0.0,0.0,0.0,0.0,0.0,0.0,0.0,0.0,0.0,0.0,0.0,0.0,0.0,0.0,0.0,0.0,0.0,0.0,0.0,0.0,0.0,0.0,0.0,0.0,0.0,0.0,0.0,0.0,0.0,0.0,0.0,0.0,0.0,0.0,0.0,0.0,0.0,0.0,0.0,0.0,0.0,0.0,0.0,0.0,0.0,0.0,0.0,0.0,0.0,0.0,0.0,0.0,0.0,0.0,0.0,0.0,0.0,0.0,-0.0045,-0.0852,-0.1657,-0.2592,-0.4599,-0.5403,-0.5528,-0.6595,-0.7014,-0.7068,0.0,0.0,-0.4491,-0.4491,-0.4491,-0.4491,-0.4491,-0.4491,-0.46,-0.4877,-0.3331,-0.2329,-0.2671,-0.1066,0.0,0.0,0.0,0.0,0.0,0.0,0.0,0.0,0.0,0.0,0.0,0.0,0.0,0.0,0.0,0.0,0.0,0.0,0.0,0.0,0.0,0.0,0.0,0.0,0.0,0.0,0.0,0.0,0.0,0.0,0.0,0.0,0.0,0.0,0.0,0.0,0.0,0.0,0.0,0.0,0.0,0.0,0.0,0.0,0.0,0.0,0.0,0.0,0.0,0.0,0.0,0.0,0.0,0.0,0.0,0.0,0.0,0.0,0.0,0.0,0.0,0.0,0.0,0.0,0.0,0.0,0.0,0.0,0.0,0.0,0.0,0.0,0.0,0.0,0.0,0.0,0.0,0.0,0.0,0.0,0.0,0.0,0.0,0.0,0.0,0.0,0.0,0.0,0.0,0.0,0.0,0.0,0.0,0.0,0.0,-0.0359,-0.3888,-0.5314,-0.5492,-0.6605,-0.7051,-0.7095,-0.4576,-0.4518,-0.4491,-0.4491,-0.4491,-0.4491,-0.4491,-0.4491,-0.46,-0.4877,-0.3331,-0.2329,-0.2671,-0.1066,0.0,0.0,0.0,0.0,0.0,0.0,0.0,0.0,0.0,0.0,0.0,0.0,0.0,0.0,0.0,0.0,0.0,0.0,0.0,0.0,0.0,0.0,0.0,0.0,0.0,0.0,0.0,0.0,0.0,0.0,0.0,0.0,0.0,0.0,0.0,0.0,0.0,0.0,0.0,0.0,0.0,0.0,0.0,0.0,0.0,0.0,0.0,0.0,0.0,0.0,0.0,0.0,0.0,0.0,0.0,0.0,0.0,0.0,0.0,0.0,0.0,0.0,0.0,0.0,0.0,0.0,0.0,0.0,0.0,0.0,0.0,0.0,0.0,0.0,0.0,0.0,0.0,0.0,0.0,0.0,0.0,0.0,0.0,0.0,0.0,0.0,0.0,0.0,0.0,0.0,0.0,0.0,0.0,0.0,0.0,-0.018,-0.2058,-0.3306,-0.4239,-0.5445,-0.6381,-0.7095,-0.4508,-0.4491,-0.4491,-0.4491,-0.4491,-0.4491,-0.4491,-0.4491,-0.4644,-0.505,-0.3806,-0.2864,-0.2861,-0.154,-0.0471,-0.0039,0.0,0.0,0.0,0.0,0.0,0.0,0.0,0.0,0.0,0.0,0.0,0.0,0.0,0.0,0.0,0.0,0.0,0.0,0.0,0.0,0.0,0.0,0.0,0.0,0.0,0.0,0.0,0.0,0.0,0.0,0.0,0.0279,0.079,0.1551,0.0,0.0,0.0,0.0,0.0,0.0,0.0,0.0,0.0,0.0,0.0,0.0,0.0,0.0,0.0,0.0,0.0,0.0,0.0,0.0,0.0,0.0,0.0,0.0,0.0,0.0,0.0,0.0,0.0,0.0,0.0,0.0,0.0,0.0,0.0,0.0,0.0,0.0,0.0,0.0,0.0,0.0,0.0,0.0,0.0,0.0,0.0,0.0,0.0,0.0,0.0,0.0,0.0,0.0,0.0,0.0,0.0,0.0,0.0,-0.0135,0.0,0.0,0.0,0.0,-0.5802,-0.6473,-0.4542,-0.4528,-0.4515,-0.4515,-0.4501,-0.4491,-0.4491,-0.4505,-0.4726,-0.5317,-0.4461,-0.3639,-0.3168,-0.219,-0.1176,-0.0079,0.0,0.0,0.0,0.0,0.0,0.0,0.0,0.0,0.0,0.0,0.0,0.0,0.0,0.0,0.0,0.0,0.0,0.0,0.0,0.0,0.0,0.0,0.0,0.0,0.0,0.0,0.0,0.0,0.0,0.0,0.0152,0.0815,0.1679,0.2059,0.0,0.0,0.0,0.0,0.0,0.0,0.0,0.0,0.0,0.0,0.0,0.0,0.0,0.0,0.0,0.0,0.0,0.0,0.0,0.0,0.0,0.0,0.0,0.0,0.0,0.0,0.0,0.0,0.0,0.0,0.0,0.0,0.0,0.0,0.0,0.0,0.0,0.0,0.0,0.0,0.0,0.0,0.0,0.0,0.0,0.0,0.0,0.0,0.0,0.0,0.0,0.0,0.0,0.0,0.0,0.0,0.0,0.0,0.0,-0.0135,-0.1344,-0.179,-0.2103,-0.451,-0.5403,-0.5581,-0.483,-0.4731,-0.4646,-0.4646,-0.4573,-0.4491,-0.4491,-0.4597,-0.4849,-0.533,-0.4574,-0.3752,-0.3175,-0.219,-0.1176,-0.0079,0.0,0.0,0.0,0.0,0.0,0.0,0.0,0.0,0.0,0.0,0.0,0.0,0.0,0.0,0.0,0.0,0.0,0.0,0.0,0.0,0.0,0.0,0.0,0.0,0.0,0.0,0.0,0.0,0.0,0.0117,0.1113,0.159,0.2063,0.4049,0.4773,0.4983,0.5962,0.626,0.0,0.0,0.0,0.0,0.0,0.0,0.0,0.0,0.0,0.0,0.0,0.0,0.0,0.0,0.0,0.0,0.0,0.0,0.0,0.0,0.0,0.0,0.0,0.0,0.0,0.0,0.0,0.0,0.0,0.0,0.0,0.0,0.0,0.0,0.0,0.0,0.0,0.0,0.0,0.0,0.0,0.0,0.0,0.0,0.0,0.0,0.0,0.0,0.0,0.0,0.0,0.0,0.0,0.0,0.0,-0.0135,-0.1344,-0.179,-0.2103,-0.451,-0.5403,-0.5581,-0.5125,-0.4958,-0.4806,-0.4806,-0.4741,-0.4691,-0.4691,-0.4755,-0.4969,-0.545,-0.5089,-0.4542,-0.3884,-0.2925,-0.1878,-0.0743,-0.0257,0.0,0.0,0.0,0.0,0.0,0.0,0.0,0.0,0.0,0.0,0.0,0.0,0.0,0.0,0.0,0.0,0.0,0.0,0.0,0.0,0.0,0.0,0.0,0.0,0.0,0.0,0.0,0.0,0.016,0.1372,0.1755,0.207,0.4576,0.5244,0.5199,0.6405,0.6715,0.6566,0.0,0.0,0.0,0.0,0.0,0.0,0.0,0.0,0.0,0.0,0.0,0.0,0.0,0.0,0.0,0.0,0.0,0.0,0.0,0.0,0.0,0.0,0.0,0.0,0.0,0.0,0.0,0.0,0.0,0.0,0.0,0.0,0.0,0.0,0.0,0.0,0.0,0.0,0.0,0.0,0.0,0.0,0.0,0.0,0.0,0.0,0.0,0.0,0.0,0.0,0.0,0.0,0.0,0.0,-0.0045,-0.0673,-0.0897,-0.1121,-0.295,-0.3974,-0.4688,-0.5412,-0.5213,-0.503,-0.4938,-0.4908,-0.4887,-0.4887,-0.4911,-0.5101,-0.5494,-0.5569,-0.5297,-0.4538,-0.373,-0.2745,-0.139,-0.0482,0.0,0.0,0.0,0.0,0.0,0.0,0.0,0.0,0.0,0.0,0.0,0.0,0.0,0.0,0.0,0.0,0.0,0.0,0.0,0.0,0.0,0.0,0.0,0.0,0.0,0.0,0.0,0.0,0.0164,0.1354,0.1745,0.1989,0.4276,0.5089,0.5308,0.6316,0.6751,0.6903,0.682,0.6787,0.0,0.0,0.0,0.0,0.0,0.0,0.0,0.0,0.3138,0.2421,0.0426,0.0,0.0,0.0,0.0,0.0,0.0,0.0,0.0,0.0,0.0,0.0,0.0,0.0,0.0,0.0,0.0,0.0,0.0,0.0,0.0,0.0,0.0,0.0,0.0,0.0,0.0,0.0,0.0,0.0,0.0,0.0,0.0,0.0,0.0,0.0,0.0,0.0,0.0,0.0,0.0,0.0,0.0,0.0,0.0,-0.0135,-0.1344,-0.2547,-0.3792,-0.5562,-0.5538,-0.543,-0.5123,-0.4972,-0.4887,-0.4887,-0.4995,-0.5176,-0.5395,-0.5539,-0.5262,-0.4323,-0.4022,-0.3155,-0.1285,-0.0422,0.0,0.0,0.0,0.0,0.0,0.0,0.0,0.0,0.0,0.0,0.0,0.0,0.0,0.0,0.0,0.0,0.0,0.0,0.0,0.0,0.0,0.0,0.0,0.0,0.0,0.0,0.0,0.0,0.0168,0.1368,0.181,0.1993,0.3358,0.449,0.5383,0.5518,0.6272,0.7068,0.7051,0.7048,0.7082,0.7278,0.6533,0.5679,0.5586,0.4758,0.3604,0.0,0.2003,0.16,0.0268,0.0,0.0,0.0,0.0,0.0,0.0,0.0,0.0,0.0,0.0,0.0,0.0,0.0,0.0,0.0,0.0,0.0,0.0,0.0,0.0,0.0,0.0,0.0,0.0,0.0,0.0,0.0,0.0,0.0,0.0,0.0,0.0,0.0,0.0,0.0,0.0,0.0,0.0,0.0,0.0,0.0,0.0,0.0,0.0,-0.0135,-0.1344,-0.2547,-0.3792,-0.5589,-0.5657,-0.5674,-0.5542,-0.5403,-0.5281,-0.5189,-0.5301,-0.542,-0.5521,-0.5549,-0.5436,-0.507,-0.4345,-0.3145,-0.1248,-0.0835,-0.0456,-0.0036,0.0,0.0,0.0,0.0,0.0,0.0,0.0,0.0,0.0,0.0,0.0,0.0,0.0,0.0,0.0,0.0,0.0,0.0,0.0,0.0,0.0,0.0,0.0,0.0,0.0,0.0,0.0175,0.1346,0.1356,0.0,0.2939,0.3482,0.3528,0.4956,0.5665,0.6118,0.6997,0.721,0.6996,0.6506,0.604,0.5488,0.4589,0.3972,0.3304,0.2057,0.179,0.1478,0.0269,0.0,0.0,0.0,0.0,0.0,0.0,0.0,0.0,0.0,0.0,0.0,0.0,0.0,0.0,0.0,0.0,0.0,0.0,0.0,0.0,0.0,0.0,0.0,0.0,0.0,0.0,0.0,0.0,0.0,0.0,0.0,0.0,0.0,0.0,0.0,0.0,0.0,0.0,0.0,0.0,0.0,0.0,0.0,0.0,-0.0135,-0.1344,-0.2547,-0.3792,-0.5647,-0.5766,-0.585,-0.581,-0.5718,-0.5596,-0.5481,-0.5518,-0.5562,-0.5562,-0.5491,-0.5433,-0.5348,-0.4387,-0.3216,-0.1909,-0.1364,-0.0877,-0.0385,-0.015,0.0,0.0,0.0,0.0,0.0,0.0,0.0,0.0,0.0,0.0,0.0,0.0,0.0,0.0,0.0,0.0,0.0,0.0,0.0,0.0,0.0,0.0,0.0,0.0,0.0,0.0132,0.1002,0.0746,0.0267,0.2012,0.223,0.2108,0.3836,0.4536,0.4927,0.609,0.6328,0.6141,0.57,0.5169,0.4485,0.3358,0.2871,0.2372,0.1487,0.1304,0.1076,0.018,0.0,0.0,0.0,0.0,0.0,0.0,0.0,0.0,0.0,0.0,0.0,0.0,0.0,0.0,0.0,0.0,0.0,0.0,0.0,0.0,0.0,0.0,0.0,0.0,0.0,0.0,0.0,0.0,0.0,0.0,0.0,0.0,0.0,0.0,0.0,0.0,0.0,0.0,0.0,0.0,0.0,0.0,0.0,0.0,-0.0135,-0.1344,-0.2547,-0.3703,-0.5793,-0.5918,-0.5939,-0.5827,-0.5796,-0.5745,-0.5603,-0.5494,-0.5402,-0.5402,-0.5237,-0.5005,-0.4748,-0.4057,-0.3579,-0.3516,-0.2051,-0.1155,-0.1254,-0.0478,0.0,0.0,0.0,0.0,0.0,0.0,0.0,0.0,0.0,0.0,0.0,0.0,0.0,0.0,0.0,0.0,0.0,0.0,0.0,0.0,0.0,0.0,0.0,0.0,0.0,0.0,0.0043,0.0044,0.0,0.0083,0.0868,0.18,0.1882,0.2721,0.3679,0.384,0.4,0.4295,0.5327,0.3875,0.2079,0.1891,0.0956,0.009,0.0046,0.0046,0.0045,0.0,0.0,0.0,0.0,0.0,0.0,0.0,0.0,0.0,0.0,0.0,0.0,0.0,0.0,0.0,0.0,0.0,0.0,0.0,0.0,0.0,0.0,0.0,0.0,0.0,0.0,0.0,0.0,0.0,0.0,0.0,0.0,0.0,0.0,0.0,0.0,0.0,0.0,0.0,0.0,0.0,0.0,0.0,0.0,0.0,-0.0135,-0.1344,-0.2547,-0.3614,-0.5964,-0.6006,-0.6166,-0.6153,-0.602,-0.5901,-0.5752,-0.5606,-0.5511,-0.5409,-0.5347,0.0,0.0,0.0,0.0,0.0,-0.3228,-0.2435,-0.1358,-0.1017,-0.0594,-0.0042,0.0,0.0,0.0,0.0,0.0,0.0,0.0,0.0,0.0,0.0,0.0,0.0,0.0,0.0,0.0,0.0,0.0,0.0,0.0,0.0,0.0,0.0,0.0,0.0,0.0,0.0,0.0,0.0,0.0279,0.0764,0.1536,0.2016,0.2475,0.3401,0.3824,0.3887,0.3346,0.2636,0.179,0.0849,0.0279,0.0,0.0,0.0,0.0,0.0,0.0,0.0,0.0,0.0,0.0,0.0,0.0,0.0,0.0,0.0,0.0,0.0,0.0,0.0,0.0,0.0,0.0,0.0,0.0,0.0,0.0,0.0,0.0,0.0,0.0,0.0,0.0,0.0,0.0,0.0,0.0,0.0,0.0,0.0,0.0,0.0,0.0,0.0,0.0,0.0,0.0,0.0,0.0,0.0,-0.0135,-0.1344,-0.2547,-0.3703,-0.6194,-0.6204,-0.6361,-0.631,-0.6132,0.0,0.0,0.0,0.0,0.0,0.0,0.0,0.0,0.0,0.0,0.0,0.0,-0.3374,-0.2318,-0.1664,-0.1044,-0.0491,-0.0165,0.0,0.0,0.0,0.0,0.0,0.0,0.0,0.0,0.0,0.0,0.0,0.0,0.0,0.0,0.0,0.0,0.0,0.0,0.0,0.0,0.0,0.0,0.0,0.0,0.0,0.0,0.0,0.0,0.0117,0.0905,0.1082,0.1273,0.2568,0.2781,0.247,0.2067,0.1601,0.1087,0.0192,0.0,0.0,0.0,0.0,0.0,0.0,0.0,0.0,0.0,0.0,0.0,0.0,0.0,0.0,0.0,0.0,0.0,0.0,0.0,0.0,0.0,0.0,0.0,0.0,0.0,0.0,0.0,0.0,0.0,0.0,0.0,0.0,0.0,0.0,0.0,0.0,0.0,0.0,0.0,0.0,0.0,0.0,0.0,0.0,0.0,0.0,0.0,0.0,0.0,-0.0269,-0.0718,-0.1522,-0.2815,-0.4374,-0.6458,-0.6416,-0.647,0.0,0.0,0.0,0.0,0.0,0.0,0.0,0.0,0.0,0.0,0.0,0.0,0.0,0.0,0.0,-0.3995,-0.2375,-0.1413,-0.1286,-0.0498,-0.0039,0.0,0.0,0.0,0.0,0.0,0.0,0.0,0.0,0.0,0.0,0.0,0.0,0.0,0.0,0.0,0.0,0.0,0.0,0.0,0.0,0.0,0.0,0.0,0.0,0.0,0.0,0.0,0.0,0.0,0.0,0.0218,0.1391,0.0883,0.0271,0.138,0.0879,0.0,0.0,0.0,0.0,0.0,0.0,0.0,0.0,0.0,0.0,0.0,0.0,0.0,0.0,0.0,0.0,0.0,0.0,0.0,0.0,0.0,0.0,0.0,0.0,0.0,0.0,0.0,0.0,0.0,0.0,0.0,0.0,0.0,0.0,0.0,0.0,0.0,0.0,0.0,0.0,0.0,0.0,0.0,0.0,0.0,0.0,0.0,0.0,0.0,0.0,0.0,-0.0718,-0.179,-0.1879,-0.3396,-0.5403,0.0,0.0,0.0,0.0,0.0,0.0,0.0,0.0,0.0,0.0,0.0,0.0,0.0,0.0,0.0,0.0,0.0,0.0,-0.4037,-0.3553,-0.2706,-0.137,-0.108,-0.0665,0.0,0.0,0.0,0.0,0.0,0.0,0.0,0.0,0.0,0.0,0.0,0.0,0.0,0.0,0.0,0.0,0.0,0.0,0.0,0.0,0.0,0.0,0.0,0.0,0.0,0.0,0.0,0.0,0.0,0.0,0.0045,0.0358,0.0226,0.0046,0.0376,0.0234,0.0,0.0,0.0,0.0,0.0,0.0,0.0,0.0,0.0,0.0,0.0,0.0,0.0,0.0,0.0,0.0,0.0,0.0,0.0,0.0,0.0,0.0,0.0,0.0,0.0,0.0,0.0,0.0,0.0,0.0,0.0,0.0,0.0,0.0,0.0,0.0,0.0,0.0,0.0,0.0,0.0,0.0,0.0,0.0,0.0,0.0,0.0,0.0,0.0,0.0,0.0,-0.0718,-0.1924,-0.2815,-0.4107,-0.5536,0.0,0.0,0.0,0.0,0.0,0.0,0.0,0.0,0.0,0.0,0.0,0.0,0.0,0.0,0.0,0.0,0.0,0.0,0.0,-0.424,-0.3547,-0.2513,-0.1721,-0.107,-0.0598,-0.0188,0.0,0.0,0.0,0.0,0.0,0.0,0.0,0.0,0.0,0.0,0.0,0.0,0.0,0.0,0.0,0.0,0.0,0.0,0.0,0.0,0.0,0.0,0.0,0.0,0.0,0.0,0.0,0.0,0.0,0.0,0.0,0.0,0.0,0.0,0.0,0.0,0.0,0.0,0.0,0.0,0.0,0.0,0.0,0.0,0.0,0.0,0.0,0.0,0.0,0.0,0.0,0.0,0.0,0.0,0.0,0.0,0.0,0.0,0.0,0.0,0.0,0.0,0.0,0.0,0.0,0.0,0.0,0.0,0.0,0.0,0.0,0.0,0.0,0.0,0.0,0.0,0.0,0.0,0.0,0.0,0.0,0.0,0.0,0.0,0.0,-0.1076,-0.2681,-0.3349,-0.4685,-0.6248,0.0,0.0,0.0,0.0,0.0,0.0,0.0,0.0,0.0,-0.5528,-0.5481,-0.5453,-0.5453,-0.5453,0.0,0.0,0.0,0.0,0.0,0.0,-0.4149,-0.4042,-0.2514,-0.1562,-0.1361,-0.0582,-0.0106,0.0,0.0,0.0,0.0,0.0,0.0,0.0,0.0,0.0,0.0,0.0,0.0,0.0,0.0,0.0,0.0,0.0,0.0,0.0,0.0,0.0,0.0,0.0,0.0,0.0,0.0,0.0,0.0,0.0,0.0,0.0,0.0,0.0,0.0,0.0,0.0,0.0,0.0,0.0,0.0,0.0,0.0,0.0,0.0,0.0,0.0,0.0,0.0,0.0,0.0,0.0,0.0,0.0,0.0,0.0,0.0,0.0,0.0,0.0,0.0,0.0,0.0,0.0,0.0,0.0,0.0,0.0,0.0,0.0,0.0,0.0,0.0,0.0,0.0,0.0,0.0,0.0,0.0,0.0,0.0,0.0,0.0,0.0,-0.018,-0.1612,-0.3614,-0.3792,-0.5218,-0.7095,0.0,0.0,0.0,0.0,0.0,0.0,0.0,0.0,0.0,0.0,-0.5921,-0.5725,0.0,0.0,0.0,0.0,0.0,0.0,0.0,0.0,0.0,-0.4186,-0.377,-0.2916,-0.1571,-0.1252,-0.0736,0.0,0.0,0.0,0.0,0.0,0.0,0.0,0.0,0.0,0.0,0.0,0.0,0.0,0.0,0.0,0.0,0.0,0.0,0.0,0.0,0.0,0.0,0.0,0.0,0.0,0.0,0.0,0.0,0.0,0.0,0.0,0.0,0.0,0.0,0.0,0.0,0.0,0.0,0.0,0.0,0.0,0.0,0.0,0.0,0.0,0.0,0.0,0.0,0.0,0.0,0.0,0.0,0.0,0.0,0.0,0.0,0.0,0.0,0.0,0.0,0.0,0.0,0.0,0.0,0.0,0.0,0.0,0.0,0.0,0.0,0.0,0.0,0.0,0.0,0.0,0.0,0.0,0.0,0.0,0.0,0.0,0.0,-0.009,-0.1076,-0.237,-0.3703,-0.4732,-0.5935,-0.7095,0.0,0.0,0.0,0.0,0.0,0.0,0.0,-0.6213,-0.6346,-0.6576,-0.6542,-0.638,-0.6074,-0.5969,-0.5888,0.0,0.0,0.0,0.0,0.0,0.0,-0.4957,0.0,0.0,-0.2868,-0.1845,-0.111,-0.0679,0.0,0.0,0.0,0.0,0.0,0.0,0.0,0.0,0.0,0.0,0.0,0.0,0.0,0.0,0.0,0.0,0.0,0.0,0.0,0.0,0.0,0.0,0.0,0.0,0.0,0.0,0.0,0.0,0.0,0.0,0.0,0.0,0.0,0.0,0.0,0.0,0.0,0.0,0.0,0.0,0.0,0.0,0.0,0.0,0.0,0.0,0.0,0.0,0.0,0.0,0.0,0.0,0.0,0.0,0.0,0.0,0.0,0.0,0.0,0.0,0.0,0.0,0.0,0.0,0.0,0.0,0.0,0.0,0.0,0.0,0.0,0.0,0.0,0.0,0.0,0.0,0.0,0.0,0.0,0.0,0.0,-0.0135,-0.1344,-0.2547,-0.3748,-0.4954,-0.6115,-0.7095,0.0,0.0,0.0,0.0,0.0,0.0,0.0,-0.6549,-0.6692,-0.7027,-0.7125,-0.7048,-0.6593,-0.6332,-0.6111,0.0,0.0,0.0,0.0,0.0,0.0,0.0,0.0,0.0,0.0,0.0,0.0,-0.1381,-0.0454,0.0,0.0,0.0,0.0,0.0,0.0,0.0,0.0,0.0,0.0,0.0,0.0,0.0,0.0,0.0,0.0,0.0,0.0,0.0,0.0,0.0,0.0,0.0,0.0,0.0,0.0,0.0,0.0,0.0,0.0,0.0,0.0,0.0,0.0,0.0,0.0,0.0,0.0,0.0,0.0,0.0,0.0,0.0,0.0,0.0,0.0,0.0,0.0,0.0,0.0,0.0,0.0,0.0,0.0,0.0,0.0,0.0,0.0,0.0,0.0,0.0,0.0,0.0,0.0,0.0,0.0,0.0,0.0,0.0,0.0,0.0,0.0,0.0,0.0,0.0,0.0,0.0,0.0,0.0,0.0,-0.0135,-0.1612,-0.2769,-0.3792,-0.522,-0.6337,-0.7095,0.0,0.0,0.0,0.0,0.0,0.0,0.0,-0.6797,-0.7044,-0.7482,-0.755,-0.7482,-0.7337,-0.7017,-0.6729,0.0,0.0,0.0,0.0,0.0,0.0,0.0,0.0,0.0,0.0,0.0,0.0,-0.1563,-0.0507,0.0,0.0,0.0,0.0,0.0,0.0,0.0,0.0,0.0,0.0,0.0,0.0,0.0,0.0,0.0,0.0,0.0,0.0,0.0,0.0,0.0,0.0,0.0,0.0,0.0,0.0,0.0,0.0,0.0,0.0,0.0,0.0,0.0,0.0,0.0,0.0,0.0,0.0,0.0,0.0,0.0,0.0,0.0,0.0,0.0,0.0,0.0,0.0,0.0,0.0,0.0,0.0,0.0,0.0,0.0,0.0,0.0,0.0,0.0,0.0,0.0,0.0,0.0,0.0,0.0,0.0,0.0,0.0,0.0,0.0,0.0,0.0,0.0,0.0,0.0,0.0,0.0,0.0,0.0,0.0,-0.0225,-0.2547,-0.3481,-0.3881,-0.6113,-0.7007,-0.7095,0.0,0.0,0.0,0.0,0.0,0.0,-0.7044,-0.7078,-0.7206,-0.7794,-0.7784,-0.7702,-0.7641,-0.7455,-0.7136,-0.6651,0.0,0.0,0.0,0.0,0.0,0.0,0.0,0.0,0.0,0.0,-0.3452,-0.2379,-0.1511,0.0,0.0,0.0,0.0,0.0,0.0,0.0,0.0,0.0,0.0,0.0,0.0,0.0,0.0,0.0,0.0,0.0,0.0,0.0,0.0,0.0,0.0,0.0,0.0,0.0,0.0,0.0,0.0,0.0,0.0,0.0,0.0,0.0,0.0,0.0,0.0,0.0,0.0,0.0,0.0,0.0,0.0,0.0,0.0,0.0,0.0,0.0,0.0,0.0,0.0,0.0,0.0,0.0,0.0,0.0,0.0,0.0,0.0,0.0,0.0,0.0,0.0,0.0,0.0,0.0,0.0,0.0,0.0,0.0,0.0,0.0,0.0,0.0,0.0,0.0,0.0,0.0,0.0,0.0,-0.0449,-0.1254,-0.2948,-0.4061,-0.4865,-0.6514,-0.7095,-0.7095,0.0,0.0,0.0,0.0,0.0,-0.6837,-0.7241,-0.7248,-0.7394,-0.7857,-0.7879,-0.7811,-0.7811,-0.7685,-0.7428,-0.7004,-0.6746,0.0,0.0,0.0,0.0,0.0,0.0,0.0,0.0,0.0,-0.424,-0.2999,-0.2196,-0.1169,0.0,0.0,0.0,0.0,0.0,0.0,0.0,0.0,0.0,0.0,0.0,0.0,0.0,0.0,0.0,0.0,0.0,0.0,0.0,0.0,0.0,0.0,0.0,0.0,0.0,0.0,0.0,0.0,0.0,0.0,0.0,0.0,0.0,0.0,0.0,0.0,0.0,0.0,0.0,0.0,0.0,0.0,0.0,0.0,0.0,0.0,0.0,0.0,0.0,0.0,0.0,0.0,0.0,0.0,0.0,0.0,0.0,0.0,0.0,0.0,0.0,0.0,0.0,0.0,0.0,0.0,0.0,0.0,0.0,0.0,0.0,0.0,0.0,0.0,0.0,0.0,0.0,0.0,-0.0718,-0.1924,-0.3126,-0.433,-0.5536,-0.6694,-0.7095,-0.7095,0.0,0.0,0.0,0.0,0.0,0.0,-0.7055,-0.7272,-0.7475,-0.7773,-0.7814,-0.7811,-0.7811,-0.7685,-0.7597,-0.759,-0.718,0.0,0.0,0.0,0.0,0.0,0.0,0.0,0.0,0.0,-0.4513,-0.3305,-0.2311,-0.1201,0.0,0.0,0.0,0.0,0.0,0.0,0.0,0.0,0.0,0.0,0.0,0.0,0.0,0.0,0.0,0.0,0.0,0.0,0.0,0.0,0.0,0.0,0.0,0.0,0.0,0.0,0.0,0.0,0.0,0.0,0.0,0.0,0.0,0.0,0.0,0.0,0.0,0.0,0.0,0.0,0.0,0.0,0.0,0.0,0.0,0.0,0.0,0.0,0.0,0.0,0.0,0.0,0.0,0.0,0.0,0.0,0.0,0.0,0.0,0.0,0.0,0.0,0.0,0.0,0.0,0.0,0.0,0.0,0.0,0.0,0.0,0.0,0.0,0.0,0.0,0.0,0.0,0.0,-0.0718,-0.1924,-0.3126,-0.433,-0.5536,-0.6694,-0.7095,-0.7095,0.0,0.0,0.0,0.0,0.0,0.0,0.0,-0.7251,-0.7356,-0.7756,-0.7634,-0.7628,-0.7884,-0.7746,-0.7638,-0.7736,-0.7287,0.0,0.0,0.0,0.0,0.0,0.0,0.0,0.0,-0.5644,-0.455,-0.3374,-0.2318,-0.1199,0.0,0.0,0.0,0.0,0.0,0.0,0.0,0.0,0.0,0.0,0.0,0.0,0.0,0.0,0.0,0.0,0.0,0.0,0.0,0.0,0.0,0.0,0.0,0.0,0.0,0.0,0.0,0.0,0.0,0.0,0.0,0.0,0.0,0.0,0.0,0.0,0.0,0.0,0.0,0.0,0.0,0.0,0.0,0.0,0.0,0.0,0.0,0.0,0.0,0.0,0.0,0.0,0.0,0.0,0.0,0.0,0.0,0.0,0.0,0.0,0.0,0.0,0.0,0.0,0.0,0.0,0.0,0.0,0.0,0.0,0.0,0.0,0.0,0.0,0.0,0.0,0.0,0.0,-0.121,-0.3081,-0.3436,-0.4816,-0.6605,-0.6962,-0.7095,-0.7095,0.0,0.0,0.0,0.0,0.0,0.0,0.0,-0.7217,-0.7305,-0.7529,-0.7448,-0.7519,-0.7864,-0.7743,-0.7682,-0.7879,-0.754,0.0,0.0,0.0,0.0,0.0,0.0,0.0,-0.622,-0.5107,-0.3944,-0.2806,-0.2107,-0.119,0.0,0.0,0.0,0.0,0.0,0.0,0.0,0.0,0.0,0.0,0.0,0.0,0.0,0.0,0.0,0.0,0.0,0.0,0.0,0.0,0.0,0.0,0.0,0.0,0.0,0.0,0.0,0.0,0.0,0.0,0.0,0.0,0.0,0.0,0.0,0.0,0.0,0.0,0.0,0.0,0.0,0.0,0.0,0.0,0.0,0.0,0.0,0.0,0.0,0.0,0.0,0.0,0.0,0.0,0.0,0.0,0.0,0.0,0.0,0.0,0.0,0.0,0.0,0.0,0.0,0.0,0.0,0.0,0.0,0.0,0.0,0.0,0.0,0.0,0.0,0.0,0.0,-0.0494,-0.1835,-0.3659,-0.4105,-0.5442,-0.7095,-0.7095,-0.7095,-0.7095,0.0,0.0,0.0,0.0,0.0,0.0,0.0,-0.7163,-0.7292,-0.7112,-0.7265,-0.7472,-0.7777,-0.7685,-0.7719,-0.7965,0.0,0.0,0.0,0.0,0.0,0.0,0.0,0.0,-0.5401,-0.4119,-0.2944,-0.1804,-0.1702,-0.1099,0.0,0.0,0.0,0.0,0.0,0.0,0.0,0.0,0.0,0.0,0.0,0.0,0.0,0.0,0.0,0.0,0.0,0.0,0.0,0.0,0.0,0.0,0.0,0.0,0.0,0.0,0.0,0.0,0.0,0.0,0.0,0.0,0.0,0.0,0.0,0.0,0.0,0.0,0.0,0.0,0.0,0.0,0.0,0.0,0.0,0.0,0.0,0.0,0.0,0.0,0.0,0.0,0.0,0.0,0.0,0.0,0.0,0.0,0.0,0.0,0.0,0.0,0.0,0.0,0.0,0.0,0.0,0.0,0.0,0.0,0.0,0.0,0.0,0.0,0.0,0.0,-0.009,-0.121,-0.2413,-0.3703,-0.4821,-0.6024,-0.7095,-0.7095,-0.7095,-0.7095,0.0,0.0,0.0,0.0,0.0,0.0,0.0,0.0,0.0,0.0,-0.7129,-0.7353,-0.7767,-0.7685,-0.7719,0.0,0.0,0.0,0.0,0.0,0.0,0.0,0.0,0.0,-0.5403,-0.3319,-0.2068,-0.1795,-0.0882,-0.0299,0.0,0.0,0.0,0.0,0.0,0.0,0.0,0.0,0.0,0.0,0.0,0.0,0.0,0.0,0.0,0.0,0.0,0.0,0.0,0.0,0.0,0.0,0.0,0.0,0.0,0.0,0.0,0.0,0.0,0.0,0.0,0.0,0.0,0.0,0.0,0.0,0.0,0.0,0.0,0.0,0.0,0.0,0.0,0.0,0.0,0.0,0.0,0.0,0.0,0.0,0.0,0.0,0.0,0.0,0.0,0.0,0.0,0.0,0.0,0.0,0.0,0.0,0.0,0.0,0.0,0.0,0.0,0.0,0.0,0.0,0.0,0.0,0.0,0.0,0.0,0.0,0.0,-0.0314,-0.1656,-0.3614,-0.3927,-0.5262,-0.7095,-0.7095,-0.7095,-0.7082,0.0,0.0,0.0,0.0,0.0,0.0,0.0,0.0,0.0,0.0,0.0,-0.7216,-0.7577,-0.7604,0.0,0.0,0.0,0.0,0.0,0.0,0.0,0.0,0.0,-0.433,-0.3753,-0.1938,-0.0991,-0.0952,-0.0344,0.0,0.0,0.0,0.0,0.0,0.0,0.0,0.0,0.0,0.0,0.0,0.0,0.0,0.0,0.0,0.0,0.0,0.0,0.0,0.0,0.0,0.0,0.0,0.0,0.0,0.0,0.0,0.0,0.0,0.0,0.0,0.0,0.0,0.0,0.0,0.0,0.0,0.0,0.0,0.0,0.0,0.0,0.0,0.0,0.0,0.0,0.0,0.0,0.0,0.0,0.0,0.0,0.0,0.0,0.0,0.0,0.0,0.0,0.0,0.0,0.0,0.0,0.0,0.0,0.0,0.0,0.0,0.0,0.0,0.0,0.0,0.0,0.0,0.0,0.0,0.0,0.0,-0.009,-0.121,-0.2413,-0.3703,-0.4772,-0.5977,-0.7095,-0.7095,-0.7055,-0.6991,0.0,0.0,0.0,0.0,0.0,0.0,0.0,0.0,0.0,0.0,0.0,0.0,0.0,0.0,0.0,0.0,0.0,0.0,0.0,0.0,0.0,0.0,-0.4213,-0.3041,-0.1843,-0.0597,0.0,0.0,0.0,0.0,0.0,0.0,0.0,0.0,0.0,0.0,0.0,0.0,0.0,0.0,0.0,0.0,0.0,0.0,0.0,0.0,0.0,0.0,0.0,0.0,0.0,0.0,0.0,0.0,0.0,0.0,0.0,0.0,0.0,0.0,0.0,0.0,0.0,0.0,0.0,0.0,0.0,0.0,0.0,0.0,0.0,0.0,0.0,0.0,0.0,0.0,0.0,0.0,0.0,0.0,0.0,0.0,0.0,0.0,0.0,0.0,0.0,0.0,0.0,0.0,0.0,0.0,0.0,0.0,0.0,0.0,0.0,0.0,0.0,0.0,0.0,0.0,0.0,0.0,0.0,0.0,-0.018,-0.2413,-0.3436,-0.3837,-0.5977,-0.6962,-0.7095,-0.7095,-0.7007,-0.6879,0.0,0.0,0.0,0.0,0.0,0.0,0.0,0.0,0.0,0.0,0.0,0.0,0.0,0.0,0.0,0.0,0.0,0.0,0.0,0.0,0.0,-0.4361,-0.3818,-0.3018,-0.1838,-0.061,0.0,0.0,0.0,0.0,0.0,0.0,0.0,0.0,0.0,0.0,0.0,0.0,0.0,0.0,0.0,0.0,0.0,0.0,0.0,0.0,0.0,0.0,0.0,0.0,0.0,0.0,0.0,0.0,0.0,0.0,0.0,0.0,0.0,0.0,0.0,0.0,0.0,0.0,0.0,0.0,0.0,0.0,0.0,0.0,0.0,0.0,0.0,0.0,0.0,0.0,0.0,0.0,0.0,0.0,0.0,0.0,0.0,0.0,0.0,0.0,0.0,0.0,0.0,0.0,0.0,0.0,0.0,0.0,0.0,0.0,0.0,0.0,0.0,0.0,0.0,0.0,0.0,0.0,0.0,0.0,-0.009,-0.1522,-0.2681,-0.3748,-0.5132,-0.6248,-0.7095,-0.7095,-0.7007,-0.6849,0.0,0.0,0.0,0.0,0.0,0.0,0.0,0.0,0.0,0.0,0.0,0.0,0.0,0.0,0.0,0.0,0.0,0.0,0.0,0.0,0.0,-0.4058,-0.3113,-0.2044,-0.0846,-0.0288,0.0,0.0,0.0,0.0,0.0,0.0,0.0,0.0,0.0,0.0,0.0,0.0,0.0,0.0,0.0,0.0,0.0,0.0,0.0,0.0,0.0,0.0,0.0,0.0,0.0,0.0,0.0,0.0,0.0,0.0,0.0,0.0,0.0,0.0,0.0,0.0,0.0,0.0,0.0,0.0,0.0,0.0,0.0,0.0,0.0,0.0,0.0,0.0,0.0,0.0,0.0,0.0,0.0,0.0,0.0,0.0,0.0,0.0,0.0,0.0,0.0,0.0,0.0,0.0,0.0,0.0,0.0,0.0,0.0,0.0,0.0,0.0,0.0,0.0,0.0,0.0,0.0,0.0,0.0,0.0,-0.0135,-0.2013,-0.3081,-0.3792,-0.5622,-0.6605,-0.6964,-0.6841,-0.6739,-0.6651,0.0,0.0,0.0,0.0,0.0,0.0,0.0,0.0,0.0,0.0,0.0,0.0,0.0,0.0,0.0,0.0,0.0,0.0,0.0,0.0,-0.5161,-0.3592,-0.2429,-0.1252,-0.0048,0.0,0.0,0.0,0.0,0.0,0.0,0.0,0.0,0.0,0.0,0.0,0.0,0.0,0.0,0.0,0.0,0.0,0.0,0.0,0.0,0.0,0.0,0.0,0.0,0.0,0.0,0.0,0.0,0.0,0.0,0.0,0.0,0.0,0.0,0.0,0.0,0.0,0.0,0.0,0.0,0.0,0.0,0.0,0.0,0.0,0.0,0.0,0.0,0.0,0.0,0.0,0.0,0.0,0.0,0.0,0.0,0.0,0.0,0.0,0.0,0.0,0.0,0.0,0.0,0.0,0.0,0.0,0.0,0.0,0.0,0.0,0.0,0.0,0.0,0.0,0.0,0.0,0.0,0.0,0.0,-0.018,-0.0583,-0.2726,-0.3748,-0.4239,-0.629,-0.7011,-0.6849,-0.6583,-0.6511,-0.6491,0.0,0.0,0.0,0.0,0.0,0.0,0.0,0.0,0.0,0.0,0.0,0.0,0.0,0.0,0.0,0.0,0.0,0.0,0.0,0.0,-0.4812,-0.226,-0.2056,-0.1344,-0.0049,0.0,0.0,0.0,0.0,0.0,0.0,0.0,0.0,0.0,0.0,0.0,0.0,0.0,0.0,0.0,0.0,0.0,0.0,0.0,0.0,0.0,0.0,0.0,0.0,0.0,0.0,0.0,0.0,0.0,0.0,0.0,0.0,0.0,0.0,0.0,0.0,0.0,0.0,0.0,0.0,0.0,0.0,0.0,0.0,0.0,0.0,0.0,0.0,0.0,0.0,0.0,0.0,0.0,0.0,0.0,0.0,0.0,0.0,0.0,0.0,0.0,0.0,0.0,0.0,0.0,0.0,0.0,0.0,0.0,0.0,0.0,0.0,0.0,0.0,0.0,0.0,0.0,0.0,0.0,0.0,-0.0628,-0.179,-0.3081,-0.4239,-0.5403,-0.6605,-0.7011,-0.6849,-0.6583,-0.6511,-0.6491,0.0,0.0,0.0,0.0,0.0,0.0,0.0,0.0,0.0,0.0,0.0,0.0,0.0,0.0,0.0,0.0,0.0,0.0,0.0,-0.4375,-0.3066,-0.2063,-0.1209,-0.05,0.0,0.0,0.0,0.0,0.0,0.0,0.0,0.0,0.0,0.0,0.0,0.0,0.0,0.0,0.0,0.0,0.0,0.0,0.0,0.0,0.0,0.0,0.0,0.0,0.0,0.0,0.0,0.0,0.0,0.0,0.0,0.0,0.0,0.0,0.0,0.0,0.0,0.0,0.0,0.0,0.0,0.0,0.0,0.0,0.0,0.0,0.0,0.0,0.0,0.0,0.0,0.0,0.0,0.0,0.0,0.0,0.0,0.0,0.0,0.0,0.0,0.0,0.0,0.0,0.0,0.0,0.0,0.0,0.0,0.0,0.0,0.0,0.0,0.0,0.0,0.0,0.0,0.0,0.0,0.0,0.0,-0.0673,-0.1879,-0.3081,-0.4251,-0.5323,-0.6331,-0.6692,-0.662,-0.6457,-0.6378,-0.6371,0.0,0.0,0.0,0.0,0.0,0.0,0.0,0.0,0.0,0.0,0.0,0.0,0.0,0.0,0.0,0.0,0.0,0.0,-0.5177,-0.3517,-0.2224,-0.1386,-0.0496,0.0,0.0,0.0,0.0,0.0,0.0,0.0,0.0,0.0,0.0,0.0,0.0,0.0,0.0,0.0,0.0,0.0,0.0,0.0,0.0,0.0,0.0,0.0,0.0,0.0,0.0,0.0,0.0,0.0,0.0,0.0,0.0,0.0,0.0,0.0,0.0,0.0,0.0,0.0,0.0,0.0,0.0,0.0,0.0,0.0,0.0,0.0,0.0,0.0,0.0,0.0,0.0,0.0,0.0,0.0,0.0,0.0,0.0,0.0,0.0,0.0,0.0,0.0,0.0,0.0,0.0,0.0,0.0,0.0,0.0,0.0,0.0,0.0,0.0,0.0,0.0,0.0,0.0,0.0,0.0,0.0,0.0,-0.0897,-0.2413,-0.326,-0.4406,-0.5726,-0.6301,-0.6511,-0.6494,-0.6354,-0.63,-0.63,0.0,0.0,0.0,0.0,0.0,0.0,0.0,0.0,0.0,0.0,0.0,0.0,0.0,0.0,0.0,0.0,0.0,0.0,-0.3776,-0.3708,-0.266,-0.0095,0.0,0.0,0.0,0.0,0.0,0.0,0.0,0.0,0.0,0.0,0.0,0.0,0.0,0.0,0.0,0.0,0.0,0.0,0.0,0.0,0.0,0.0,0.0,0.0,0.0,0.0,0.0,0.0,0.0,0.0,0.0,0.0,0.0,0.0,0.0,0.0,0.0,0.0,0.0,0.0,0.0,0.0,0.0,0.0,0.0,0.0,0.0,0.0,0.0,0.0,0.0,0.0,0.0,0.0,0.0,0.0,0.0,0.0,0.0,0.0,0.0,0.0,0.0,0.0,0.0,0.0,0.0,0.0,0.0,0.0,0.0,0.0,0.0,0.0,0.0,0.0,0.0,0.0,0.0,0.0,0.0,0.0,0.0,-0.1389,-0.3614,-0.3612,-0.4934,-0.6852,-0.659,-0.6511,-0.6494,-0.6351,-0.63,-0.63,0.0,0.0,0.0,0.0,0.0,0.0,0.0,0.0,0.0,0.0,0.0,0.0,0.0,0.0,0.0,0.0,0.0,0.0,-0.3811,-0.2084,-0.0809,-0.0048,0.0,0.0,0.0,0.0,0.0,0.0,0.0,0.0,0.0,0.0,0.0,0.0,0.0,0.0,0.0,0.0,0.0,0.0,0.0,0.0,0.0,0.0,0.0,0.0,0.0,0.0,0.0,0.0,0.0,0.0,0.0,0.0,0.0,0.0,0.0,0.0,0.0,0.0,0.0,0.0,0.0,0.0,0.0,0.0,0.0,0.0,0.0,0.0,0.0,0.0,0.0,0.0,0.0,0.0,0.0,0.0,0.0,0.0,0.0,0.0,0.0,0.0,0.0,0.0,0.0,0.0,0.0,0.0,0.0,0.0,0.0,0.0,0.0,0.0,0.0,0.0,0.0,0.0,0.0,0.0,0.0,0.0,0.0,-0.1389,-0.3694,-0.5185,-0.6107,-0.6586,-0.6436,-0.6364,-0.6358,-0.6317,-0.63,-0.63,0.0,0.0,0.0,0.0,0.0,0.0,0.0,0.0,0.0,0.0,-0.7894,-0.7931,0.0,0.0,0.0,-0.7027,-0.5479,-0.4081,-0.3051,-0.1586,-0.0513,0.0,0.0,0.0,0.0,0.0,0.0,0.0,0.0,0.0,0.0,0.0,0.0,0.0,0.0,0.0,0.0,0.0,0.0,0.0,0.0,0.0,0.0,0.0,0.0,0.0,0.0,0.0,0.0,0.0,0.0,0.0,0.0,0.0,0.0,0.0,0.0,0.0,0.0,0.0,0.0,0.0,0.0,0.0,0.0,0.0,0.0,0.0,0.0,0.0,0.0,0.0,0.0,0.0,0.0,0.0,0.0,0.0,0.0,0.0,0.0,0.0,0.0,0.0,0.0,0.0,0.0,0.0,0.0,0.0,0.0,0.0,0.0,0.0,0.0,0.0,0.0,0.0,0.0,0.0,0.0,0.0,0.0,-0.0045,-0.1031,-0.2226,-0.3694,-0.5819,-0.661,-0.6497,-0.6354,-0.63,-0.63,-0.63,-0.63,-0.63,0.0,0.0,0.0,0.0,0.0,0.0,0.0,0.0,0.0,-0.7794,-0.7923,-0.7911,0.0,0.0,0.0,-0.5891,-0.5462,-0.4286,-0.1985,-0.1722,-0.113,-0.0046,0.0,0.0,0.0,0.0,0.0,0.0,0.0,0.0,0.0,0.0,0.0,0.0,0.0,0.0,0.0,0.0,0.0,0.0,0.0,0.0,0.0,0.0,0.0,0.0,0.0,0.0,0.0,0.0,0.0,0.0,0.0,0.0,0.0,0.0,0.0,0.0,0.0,0.0,0.0,0.0,0.0,0.0,0.0,0.0,0.0,0.0,0.0,0.0,0.0,0.0,0.0,0.0,0.0,0.0,0.0,0.0,0.0,0.0,0.0,0.0,0.0,0.0,0.0,0.0,0.0,0.0,0.0,0.0,0.0,0.0,0.0,0.0,0.0,0.0,0.0,0.0,0.0,0.0,0.0,0.0,0.0,-0.0135,-0.2547,-0.3525,-0.3533,-0.5784,-0.6603,-0.648,-0.6351,-0.63,-0.63,-0.63,-0.63,-0.63,0.0,0.0,0.0,0.0,0.0,0.0,0.0,0.0,-0.777,-0.7658,-0.777,-0.7804,-0.7662,-0.678,0.0,-0.5821,-0.3926,-0.2538,-0.1985,-0.0952,-0.0272,0.0,0.0,0.0,0.0,0.0,0.0,0.0,0.0,0.0,0.0,0.0,0.0,0.0,0.0,0.0,0.0,0.0,0.0,0.0,0.0,0.0,0.0,0.0,0.0,0.0,0.0,0.0,0.0,0.0,0.0,0.0,0.0,0.0,0.0,0.0,0.0,0.0,0.0,0.0,0.0,0.0,0.0,0.0,0.0,0.0,0.0,0.0,0.0,0.0,0.0,0.0,0.0,0.0,0.0,0.0,0.0,0.0,0.0,0.0,0.0,0.0,0.0,0.0,0.0,0.0,0.0,0.0,0.0,0.0,0.0,0.0,0.0,0.0,0.0,0.0,0.0,0.0,0.0,0.0,0.0,0.0,0.0,-0.0135,-0.2547,-0.3451,-0.333,-0.5705,-0.6542,-0.634,-0.6313,-0.63,-0.63,-0.63,-0.63,-0.63,0.0,0.0,0.0,0.0,0.0,0.0,0.0,0.0,-0.7784,-0.7709,-0.7767,-0.7784,-0.7709,-0.6582,0.0,0.0,-0.3078,-0.1709,-0.1063,-0.0409,0.0,0.0,0.0,0.0,0.0,0.0,0.0,0.0,0.0,0.0,0.0,0.0,0.0,0.0,0.0,0.0,0.0,0.0,0.0,0.0,0.0,0.0,0.0,0.0,0.0,0.0,0.0,0.0,0.0,0.0,0.0,0.0,0.0,0.0,0.0,0.0,0.0,0.0,0.0,0.0,0.0,0.0,0.0,0.0,0.0,0.0,0.0,0.0,0.0,0.0,0.0,0.0,0.0,0.0,0.0,0.0,0.0,0.0,0.0,0.0,0.0,0.0,0.0,0.0,0.0,0.0,0.0,0.0,0.0,0.0,0.0,0.0,0.0,0.0,0.0,0.0,0.0,0.0,0.0,0.0,0.0,0.0,0.0,-0.0135,-0.2478,-0.3368,-0.3263,-0.5624,-0.6501,-0.63,-0.63,-0.63,-0.63,-0.63,-0.63,-0.63,0.0,0.0,0.0,0.0,0.0,0.0,0.0,0.0,0.0,-0.7773,-0.7578,-0.743,-0.743,-0.607,-0.4669,0.0,0.0,0.0,-0.0092,0.0,0.0,0.0,0.0,0.0,0.0,0.0,0.0,0.0,0.0,0.0,0.0,0.0,0.0,0.0,0.0,0.0,0.0,0.0,0.0,0.0,0.0,0.0,0.0,0.0,0.0,0.0,0.0,0.0,0.0,0.0,0.0,0.0,0.0,0.0,0.0,0.0,0.0,0.0,0.0,0.0,0.0,0.0,0.0,0.0,0.0,0.0,0.0,0.0,0.0,0.0,0.0,0.0,0.0,0.0,0.0,0.0,0.0,0.0,0.0,0.0,0.0,0.0,0.0,0.0,0.0,0.0,0.0,0.0,0.0,0.0,0.0,0.0,0.0,0.0,0.0,0.0,0.0,0.0,0.0,0.0,0.0,0.0,0.0,-0.0134,-0.2403,-0.3285,-0.3283,-0.5543,-0.6429,-0.63,-0.63,-0.63,-0.63,-0.63,-0.63,-0.63,0.0,0.0,0.0,0.0,0.0,0.0,0.0,0.0,0.0,0.0,-0.6715,-0.6044,-0.6044,-0.3854,-0.2281,-0.2062,-0.0965,-0.0175,0.0,0.0,0.0,0.0,0.0,0.0,0.0,0.0,0.0,0.0,0.0,0.0,0.0,0.0,0.0,0.0,0.0,0.0,0.0,0.0,0.0,0.0,0.0,0.0,0.0,0.0,0.0,0.0,0.0,0.0,0.0,0.0,0.0,0.0,0.0,0.0,0.0,0.0,0.0,0.0,0.0,0.0,0.0,0.0,0.0,0.0,0.0,0.0,0.0,0.0,0.0,0.0,0.0,0.0,0.0,0.0,0.0,0.0,0.0,0.0,0.0,0.0,0.0,0.0,0.0,0.0,0.0,0.0,0.0,0.0,0.0,0.0,0.0,0.0,0.0,0.0,0.0,0.0,0.0,0.0,0.0,0.0,0.0,0.0,0.0,-0.0131,-0.2343,-0.3214,-0.329,-0.5545,-0.6429,-0.63,-0.63,-0.63,-0.63,-0.63,-0.63,-0.63,0.0,0.0,0.0,0.0,0.0,0.0,0.0,0.0,0.0,0.0,0.0,-0.5413,-0.4758,-0.2977,-0.1801,-0.1779,-0.0695,0.0,0.0,0.0,0.0,0.0,0.0,0.0,0.0,0.0,0.0,0.0,0.0,0.0,0.0,0.0,0.0,0.0,0.0,0.0,0.0,0.0,0.0,0.0,0.0,0.0,0.0,0.0,0.0,0.0,0.0,0.0,0.0,0.0,0.0,0.0,0.0,0.0,0.0,0.0,0.0,0.0,0.0,0.0,0.0,0.0,0.0,0.0,0.0,0.0,0.0,0.0,0.0,0.0,0.0,0.0,0.0,0.0,0.0,0.0,0.0,0.0,0.0,0.0,0.0,0.0,0.0,0.0,0.0,0.0,0.0,0.0,0.0,0.0,0.0,0.0,0.0,0.0,0.0,0.0,0.0,0.0,0.0,0.0,0.0,0.0,0.0,-0.013,-0.2267,-0.317,-0.3273,-0.5467,-0.6358,-0.63,-0.63,-0.63,-0.63,-0.63,-0.63,-0.63,0.0,0.0,0.0,0.0,0.0,0.0,0.0,0.0,0.0,0.0,0.0,-0.4332,-0.3456,0.0,0.0,0.0,-0.0515,0.0,0.0,0.0,0.0,0.0,0.0,0.0,0.0,0.0,0.0,0.0,0.0,0.0,0.0,0.0,0.0,0.0,0.0,0.0,0.0,0.0,0.0,0.0,0.0,0.0,0.0,0.0,0.0,0.0,0.0,0.0,0.0,0.0,0.0,0.0,0.0,0.0,0.0,0.0,0.0,0.0,0.0,0.0,0.0,0.0,0.0,0.0,0.0,0.0,0.0,0.0,0.0,0.0,0.0,0.0,0.0,0.0,0.0,0.0,0.0,0.0,0.0,0.0,0.0,0.0,0.0,0.0,0.0,0.0,0.0,0.0,0.0,0.0,0.0,0.0,0.0,0.0,0.0,0.0,0.0,0.0,0.0,0.0,0.0,0.0,0.0,-0.0129,-0.2182,-0.3115,-0.3284,-0.5433,-0.63,-0.63,-0.63,-0.63,-0.63,-0.63,-0.63,-0.63,0.0,0.0,0.0,0.0,0.0,0.0,0.0,0.0,0.0,0.0,0.0,-0.217,-0.2078,-0.0876,-0.0084,-0.0084,-0.0041,0.0,0.0,0.0,0.0,0.0,0.0,0.0,0.0,0.0,0.0,0.0,0.0,0.0,0.0,0.0,0.0,0.0,0.0,0.0,0.0,0.0,0.0,0.0,0.0,0.0,0.0,0.0,0.0,0.0,0.0,0.0,0.0,0.0,0.0,0.0,0.0,0.0,0.0,0.0,0.0,0.0,0.0,0.0,0.0,0.0,0.0,0.0,0.0,0.0,0.0,0.0,0.0,0.0,0.0,0.0,0.0,0.0,0.0,0.0,0.0,0.0,0.0,0.0,0.0,0.0,0.0,0.0,0.0,0.0,0.0,0.0,0.0,0.0,0.0,0.0,0.0,0.0,0.0,0.0,0.0,0.0,0.0,0.0,0.0,0.0,0.0,-0.0126,-0.2213,-0.3119,-0.3285,-0.5395,-0.63,-0.63,-0.63,-0.63,-0.63,-0.63,-0.63,-0.63,0.0,0.0,0.0,0.0,0.0,0.0,0.0,0.0,0.0,0.0,0.0,0.0,0.0,-0.0305,0.0,0.0,0.0,0.0,0.0,0.0,0.0,0.0,0.0,0.0,0.0,0.0,0.0,0.0,0.0,0.0,0.0,0.0,0.0,0.0,0.0,0.0,0.0,0.0,0.0,0.0,0.0,0.0,0.0,0.0,0.0,0.0,0.0,0.0,0.0,0.0,0.0,0.0,0.0,0.0,0.0,0.0,0.0,0.0,0.0,0.0,0.0,0.0,0.0,0.0,0.0,0.0,0.0,0.0,0.0,0.0,0.0,0.0,0.0,0.0,0.0,0.0,0.0,0.0,0.0,0.0,0.0,0.0,0.0,0.0,0.0,0.0,0.0,0.0,0.0,0.0,0.0,0.0,0.0,0.0,0.0,0.0,0.0,0.0,0.0,0.0,0.0,0.0,-0.0379,-0.1109,-0.248,-0.311,-0.3279,-0.5434,-0.63,-0.63,-0.63,-0.63,-0.63,-0.63,-0.63,-0.63,0.0,0.0,0.0,0.0,0.0,0.0,0.0,0.0,-0.2726,-0.1924,0.0,0.0,0.0,0.0,0.0,0.0,0.0,0.0,0.0,0.0,0.0,0.0,0.0,0.0,0.0,0.0,0.0,0.0,0.0,0.0,0.0,0.0,0.0,0.0,0.0,0.0,0.0,0.0,0.0,0.0,0.0,0.0,0.0,0.0,0.0,0.0,0.0,0.0,0.0,0.0,0.0,0.0,0.0,0.0,0.0,0.0,0.0,0.0,0.0,0.0,0.0,0.0,0.0,0.0,0.0,0.0,0.0,0.0,0.0,0.0,0.0,0.0,0.0,0.0,0.0,0.0,0.0,0.0,0.0,0.0,0.0,0.0,0.0,0.0,0.0,0.0,0.0,0.0,0.0,0.0,0.0,0.0,0.0,0.0,0.0,0.0,0.0,0.0,0.0,0.0,0.0,0.0,-0.0582,-0.1662,-0.2646,-0.3318,-0.3787,-0.555,-0.63,-0.63,-0.63,-0.63,-0.63,-0.63,-0.63,-0.63,0.0,0.0,0.0,0.0,0.0,0.0,0.0,0.0,-0.1746,-0.1746,0.0,0.0,0.0,0.0,0.0,0.0,0.0,0.0,0.0,0.0,0.0,0.0,0.0,0.0,0.0,0.0,0.0,0.0,0.0,0.0,0.0,0.0,0.0,0.0,0.0,0.0,0.0,0.0,0.0,0.0,0.0,0.0,0.0,0.0,0.0,0.0,0.0,0.0,0.0,0.0,0.0,0.0,0.0,0.0,0.0,0.0,0.0,0.0,0.0,0.0,0.0,0.0,0.0,0.0,0.0,0.0,0.0,0.0,0.0,0.0,0.0,0.0,0.0,0.0,0.0,0.0,0.0,0.0,0.0,0.0,0.0,0.0,0.0,0.0,0.0,0.0,0.0,0.0,0.0,0.0,0.0,0.0,0.0,0.0,0.0,0.0,0.0,0.0,0.0,0.0,0.0,0.0,-0.0581,-0.1701,-0.2684,-0.3709,-0.4844,-0.5867,-0.63,-0.63,-0.63,-0.63,-0.63,-0.63,-0.63,-0.63,0.0,0.0,0.0,0.0,0.0,-0.252,-0.252,-0.1381,-0.0494,0.0,0.0,0.0,0.0,0.0,0.0,0.0,0.0,0.0,0.0,0.0,0.0,0.0,0.0,0.0,0.0,0.0,0.0,0.0,0.0,0.0,0.0,0.0,0.0,0.0,0.0,0.0,0.0,0.0,0.0,0.0,0.0,0.0,0.0,0.0,0.0,0.0,0.0,0.0,0.0,0.0,0.0,0.0,0.0,0.0,0.0,0.0,0.0,0.0,0.0,0.0,0.0,0.0,0.0,0.0,0.0,0.0,0.0,0.0,0.0,0.0,0.0,0.0,0.0,0.0,0.0,0.0,0.0,0.0,0.0,0.0,0.0,0.0,0.0,0.0,0.0,0.0,0.0,0.0,0.0,0.0,0.0,0.0,0.0,0.0,0.0,0.0,0.0,0.0,0.0,0.0,0.0,0.0,-0.0987,-0.2682,-0.2976,-0.4139,-0.5867,-0.618,-0.63,-0.63,-0.63,-0.63,-0.63,-0.63,-0.63,-0.63,0.0,0.0,-0.2964,-0.2414,-0.1671,-0.1157,-0.1157,-0.0517,0.0,0.0,0.0,0.0,0.0,0.0,0.0,0.0,0.0,0.0,0.0,0.0,0.0,0.0,0.0,0.0,0.0,0.0,0.0,0.0,0.0,0.0,0.0,0.0,0.0,0.0,0.0,0.0,0.0,0.0,0.0,0.0,0.0,0.0,0.0,0.0,0.0,0.0,0.0,0.0,0.0,0.0,0.0,0.0,0.0,0.0,0.0,0.0,0.0,0.0,0.0,0.0,0.0,0.0,0.0,0.0,0.0,0.0,0.0,0.0,0.0,0.0,0.0,0.0,0.0,0.0,0.0,0.0,0.0,0.0,0.0,0.0,0.0,0.0,0.0,0.0,0.0,0.0,0.0,0.0,0.0,0.0,0.0,0.0,0.0,0.0,0.0,0.0,0.0,0.0,0.0,0.0,0.0,-0.0462,-0.1555,-0.3124,-0.3591,-0.4727,-0.63,-0.63,-0.63,-0.63,-0.63,-0.63,-0.63,-0.63,-0.63,-0.63,0.0,0.0,-0.141,-0.0202,0.0,0.0,0.0,0.0,0.0,0.0,0.0,0.0,0.0,0.0,0.0,0.0,0.0,0.0,0.0,0.0,0.0,0.0,0.0,0.0,0.0,0.0,0.0,0.0,0.0,0.0,0.0,0.0,0.0,0.0,0.0,0.0,0.0,0.009,0.0093,0.0,0.0,0.0,0.0,0.0,0.0,0.0,0.0,0.0,0.0,0.0,0.0,0.0,0.0,0.0,0.0,0.0,0.0,0.0,0.0,0.0,0.0,0.0,0.0,0.0,0.0,0.0,0.0,0.0,0.0,0.0,0.0,0.0,0.0,0.0,0.0,0.0,0.0,0.0,0.0,0.0,0.0,0.0,0.0,0.0,0.0,0.0,0.0,0.0,0.0,0.0,0.0,0.0,0.0,0.0,0.0,0.0,0.0,0.0,0.0,0.0,-0.0042,-0.1091,-0.2166,-0.3163,-0.4217,-0.5315,-0.63,-0.63,-0.63,-0.63,-0.63,-0.63,-0.63,-0.63,-0.63,-0.63,-0.044,-0.0398,-0.0303,-0.0051,0.0,0.0,0.0,0.0,0.0,0.0,0.0,0.0,0.0,0.0,0.0,0.0,0.0,0.0,0.0,0.0,0.0,0.0,0.0,0.0,0.0,0.0,0.0,0.0,0.0,0.0,0.0,0.0,0.0,0.0,0.0,0.0,0.006,0.0746,0.0656,0.0,0.0,0.0,0.0,0.0,0.0,0.0,0.0,0.0,0.0,0.0,0.0,0.0,0.0,0.0,0.0,0.0,0.0,0.0,0.0,0.0,0.0,0.0,0.0,0.0,0.0,0.0,0.0,0.0,0.0,0.0,0.0,0.0,0.0,0.0,0.0,0.0,0.0,0.0,0.0,0.0,0.0,0.0,0.0,0.0,0.0,0.0,0.0,0.0,0.0,0.0,0.0,0.0,0.0,0.0,0.0,0.0,0.0,0.0,0.0,0.0,-0.0042,-0.1091,-0.2166,-0.3163,-0.4217,-0.5315,-0.63,-0.63,-0.63,-0.63,-0.63,-0.63,-0.63,-0.63,-0.63,-0.63,0.0,0.0,0.0,0.0,0.0,0.0,0.0,0.0,0.0,0.0,0.0,0.0,0.0,0.0,0.0,0.0,0.0,0.0,0.0,0.0,0.0,0.0,0.0,0.0,0.0,0.0,0.0,0.0,0.0,0.0,0.0,0.0,0.0,0.0,0.0,0.0,0.0063,0.0854,0.0958,0.0554,0.0627,0.0,0.0,0.0,0.0,0.0,0.0,0.0,0.0,0.0,0.0,0.0,0.0,0.0,0.0,0.0,0.0,0.0,0.0,0.0,0.0,0.0,0.0,0.0,0.0,0.0,0.0,0.0,0.0,0.0,0.0,0.0,0.0,0.0,0.0,0.0,0.0,0.0,0.0,0.0,0.0,0.0,0.0,0.0,0.0,0.0,0.0,0.0,0.0,0.0,0.0,0.0,0.0,0.0,0.0,0.0,0.0,0.0,0.0,0.0,-0.0043,-0.1097,-0.2138,-0.3178,-0.424,-0.5315,-0.63,-0.63,-0.63,-0.63,-0.63,-0.63,-0.63,-0.63,-0.63,-0.63,0.0,0.0,0.0,0.0,0.0,0.0,0.0,0.0,0.0,0.0,0.0,0.0,0.0,0.0,0.0,0.0,0.0,0.0,0.0,0.0,0.0,0.0,0.0,0.0,0.0,0.0,0.0,0.0,0.0,0.0,0.0,0.0,0.0,0.0,0.0,0.0,0.0,0.0,0.0,0.1316,0.0,0.1237,0.0178,0.0048,0.0,0.0,0.0,0.0,0.0,0.0,0.0,0.0,0.0,0.0,0.0,0.0,0.0,0.0,0.0,0.0,0.0,0.0,0.0,0.0,0.0,0.0,0.0,0.0,0.0,0.0,0.0,0.0,0.0,0.0,0.0,0.0,0.0,0.0,0.0,0.0,0.0,0.0,0.0,0.0,0.0,0.0,0.0,0.0,0.0,0.0,0.0,0.0,0.0,0.0,0.0,0.0,0.0,0.0,0.0,0.0,-0.0043,-0.1102,-0.2151,-0.3152,-0.4221,-0.5315,-0.63,-0.63,-0.63,-0.63,-0.63,-0.63,-0.63,-0.63,-0.63,-0.63,0.0,0.0,0.0,0.0,0.0,0.0,0.0,0.0,0.0,0.0,0.0,0.0,0.0,0.0,0.0,0.0,0.0,0.0,0.0,0.0,0.0,0.0,0.0,0.0,0.0,0.0,0.0,0.0,0.0,0.0,0.0,0.0,0.0,0.0,0.0,0.0,0.0,0.0,0.2165,0.0,0.354,0.2876,0.0,0.0259,0.0,0.0,0.0,0.0,0.0,0.0,0.0,0.0,0.0,0.0,0.0,0.0,0.0,0.0,0.0,0.0,0.0,0.0,0.0,0.0,0.0,0.0,0.0,0.0,0.0,0.0,0.0,0.0,0.0,0.0,0.0,0.0,0.0,0.0,0.0,0.0,0.0,0.0,0.0,0.0,0.0,0.0,0.0,0.0,0.0,0.0,0.0,0.0,0.0,0.0,0.0,0.0,0.0,0.0,0.0,0.0,-0.0043,-0.1102,-0.2151,-0.3152,-0.4221,-0.5315,-0.63,-0.63,-0.63,-0.63,-0.63,-0.63,-0.63,-0.63,-0.63,-0.63,0.0,0.0,0.0,0.0,0.0,0.0,0.0,0.0,0.0,0.0,0.0,0.0,0.0,0.0,0.0,0.0,0.0,0.0,0.0,0.0,0.0,0.0,0.0,0.0,0.0,0.0,0.0,0.0,0.0,0.0,0.0,0.0,0.0,0.0,0.0,0.0,0.0108,0.0,0.2342,0.0,0.0,0.3848,0.0,0.2487,0.1824,0.1062,0.03,0.0,0.0,0.0,0.0,0.0,0.0,0.0,0.0,0.0,0.0,0.0,0.0,0.0,0.0,0.0,0.0,0.0,0.0,0.0,0.0,0.0,0.0,0.0,0.0,0.0,0.0,0.0,0.0,0.0,0.0,0.0,0.0,0.0,0.0,0.0,0.0,0.0,0.0,0.0,0.0,0.0,0.0,0.0,0.0,0.0,0.0,0.0,0.0,0.0,0.0,0.0,0.0,0.0,0.0,-0.0467,-0.1244,-0.2307,-0.3315,-0.4373,-0.5434,-0.6025,-0.63,-0.63,-0.63,-0.63,-0.63,-0.63,-0.63,-0.63,0.0,0.0,0.0,0.0,0.0,0.0,0.0,0.0,0.0,0.0,0.0,0.0,0.0,0.0,0.0,0.0,0.0,0.0,0.0,0.0,0.0,0.0,0.0,0.0,0.0,0.0,0.0,0.0,0.0,0.0,0.0,0.0,0.0,0.0,0.0,0.0217,0.0624,0.0,0.2875,0.3366,0.4675,0.5214,0.5167,0.432,0.3158,0.1862,0.0907,0.0303,0.0,0.0,0.0,0.0,0.0,0.0,0.0,0.0,0.0,0.0,0.0,0.0,0.0,0.0,0.0,0.0,0.0,0.0,0.0,0.0,0.0,0.0,0.0,0.0,0.0,0.0,0.0,0.0,0.0,0.0,0.0,0.0,0.0,0.0,0.0,0.0,0.0,0.0,0.0,0.0,0.0,0.0,0.0,0.0,0.0,0.0,0.0,0.0,0.0,0.0,0.0,0.0,0.0,0.0,-0.0754,-0.2044,-0.2791,-0.3888,-0.5198,-0.5983,-0.63,-0.63,-0.63,-0.63,-0.63,-0.63,-0.63,-0.63,0.0,0.0,0.0,0.0,0.0,0.0,0.0,0.0,0.0,0.0,0.0,0.0,0.0,0.0,0.0,0.0,0.0,0.0,0.0,0.0,0.0,0.0,0.0,0.0,0.0,0.0,0.0,0.0,0.0,0.0,0.0,0.0,0.0,0.0,0.0,0.0718,0.1984,0.2746,0.4144,0.5964,0.67,0.7346,0.7599,0.0,0.3156,0.2013,0.1962,0.1109,0.0,0.0,0.0,0.0,0.0,0.0,0.0,0.0,0.0,0.0,0.0,0.0,0.0,0.0,0.0,0.0,0.0,0.0,0.0,0.0,0.0,0.0,0.0,0.0,0.0,0.0,0.0,0.0,0.0,0.0,0.0,0.0,0.0,0.0,0.0,0.0,0.0,0.0,0.0,0.0,0.0,0.0,0.0,0.0,0.0,0.0,0.0,0.0,0.0,0.0,0.0,0.0,0.0,0.0,-0.1114,-0.305,-0.3102,-0.4309,-0.6261,-0.63,-0.63,-0.63,-0.63,-0.63,-0.63,-0.63,-0.63,-0.63,0.0,0.0,0.0,0.0,0.0,0.0,0.0,0.0,0.0,0.0,0.0,0.0,0.0,0.0,0.0,0.0,0.0,0.0,0.0,0.0,0.0,0.0,0.0,0.0,0.0,0.0,0.0,0.0,0.0,0.0,0.0,0.0,0.0,0.0,0.0,0.0734,0.0,0.0,0.0,0.0,0.0,0.7322,0.7416,0.5918,0.4469,0.3215,0.2314,0.1159,0.0,0.0,0.0,0.0,0.0,0.0,0.0,0.0,0.0,0.0,0.0,0.0,0.0,0.0,0.0,0.0,0.0,0.0,0.0,0.0,0.0,0.0,0.0,0.0,0.0,0.0,0.0,0.0,0.0,0.0,0.0,0.0,0.0,0.0,0.0,0.0,0.0,0.0,0.0,0.0,0.0,0.0,0.0,0.0,0.0,0.0,0.0,0.0,0.0,0.0,0.0,0.0,-0.0044,-0.0828,-0.1585,-0.2301,-0.3679,-0.4713,-0.5436,-0.6025,-0.63,-0.63,-0.63,-0.63,-0.63,-0.63,-0.63,-0.63,0.0,0.0,0.0,0.0,0.0,0.0,0.0,0.0,0.0,0.0,0.0,0.0,0.0,0.0,0.0,0.0,0.0,0.0,0.0,0.0,0.0,0.0,0.0,0.0,0.0,0.0,0.0,0.0,0.0,0.0,0.0,0.0,0.0,0.0,0.0,0.1016,0.2767,0.3376,0.4577,0.0,0.0,0.7519,0.0,0.6938,0.5802,0.4397,0.3692,0.2265,0.0706,0.0706,0.0397,0.0,0.0,0.0,0.0,0.0,0.0,0.0,0.0,0.0,0.0,0.0,0.0,0.0,0.0,0.0,0.0,0.0,0.0,0.0,0.0,0.0,0.0,0.0,0.0,0.0,0.0,0.0,0.0,0.0,0.0,0.0,0.0,0.0,0.0,0.0,0.0,0.0,0.0,0.0,0.0,0.0,0.0,0.0,0.0,0.0,0.0,0.0,0.0,0.0,-0.0044,-0.1229,-0.1993,-0.2414,-0.4138,-0.51,-0.5494,-0.6084,-0.63,-0.63,-0.63,-0.63,-0.63,-0.63,-0.63,-0.63,0.0,0.0,0.0,0.0,0.0,0.0,0.0,0.0,0.0,0.0,0.0,0.0,0.0,0.0,0.0,0.0,0.0,0.0,0.0,0.0,0.0,0.0,0.0,0.0,0.0,0.0,0.0,0.0,0.0,0.0,0.0,0.0,0.0,0.0,0.0,0.0,0.3888,0.399,0.5552,0.7988,0.7988,0.7975,0.7961,0.7982,0.6936,0.5524,0.5858,0.4271,0.2013,0.2013,0.1109,0.0,0.0,0.0,0.0,0.0,0.0,0.0,0.0,0.0,0.0,0.0,0.0,0.0,0.0,0.0,0.0,0.0,0.0,0.0,0.0,0.0,0.0,0.0,0.0,0.0,0.0,0.0,0.0,0.0,0.0,0.0,0.0,0.0,0.0,0.0,0.0,0.0,0.0,0.0,0.0,0.0,0.0,0.0,0.0,0.0,0.0,0.0,0.0,-0.0045,-0.0135,-0.1344,-0.2432,-0.3464,-0.4533,-0.5591,-0.6511,-0.6368,-0.6306,-0.63,-0.63,-0.63,-0.63,-0.63,-0.63,-0.63,0.0,0.0,0.0,0.0,0.0,0.0,0.0,0.0,0.0,0.0,0.0,0.0,0.0,0.0,0.0,0.0,0.0,0.0,0.0,0.0,0.0,0.0,0.0,0.0,0.0,0.0,0.0,0.0,0.0,0.0,0.0,0.0,0.0,0.0,0.0,0.0922,0.2589,0.3592,0.557,0.7988,0.7988,0.7841,0.758,0.7864,0.752,0.6826,0.6203,0.4271,0.2013,0.2013,0.1109,0.0,0.0,0.0,0.0,0.0,0.0,0.0,0.0,0.0,0.0,0.0,0.0,0.0,0.0,0.0,0.0,0.0,0.0,0.0,0.0,0.0,0.0,0.0,0.0,0.0,0.0,0.0,0.0,0.0,0.0,0.0,0.0,0.0,0.0,0.0,0.0,0.0,0.0,0.0,0.0,0.0,0.0,0.0,0.0,0.0,0.0,0.0,0.0,-0.0449,-0.1389,-0.2592,-0.3783,-0.4912,-0.5938,-0.6486,-0.663,-0.6518,-0.6395,-0.63,-0.63,-0.63,-0.63,-0.63,-0.63,-0.63,0.0,0.0,0.0,0.0,0.0,0.0,0.0,0.0,0.0,0.0,0.0,0.0,0.0,0.0,0.0,0.0,0.0,0.0,0.0,0.0,0.0,0.0,0.0,0.0,0.0,0.0,0.0,0.0,0.0,0.0,0.0,0.0,0.0,0.0,0.0,0.0732,0.2141,0.4057,0.6003,0.7767,0.7911,0.7889,0.0,0.7894,0.7882,0.76,0.7054,0.5172,0.2864,0.2864,0.1611,0.0,0.0,0.0,0.0,0.0,0.0,0.0,0.0,0.0,0.0,0.0,0.0,0.0,0.0,0.0,0.0,0.0,0.0,0.0,0.0,0.0,0.0,0.0,0.0,0.0,0.0,0.0,0.0,0.0,0.0,0.0,0.0,0.0,0.0,0.0,0.0,0.0,0.0,0.0,0.0,0.0,0.0,0.0,0.0,0.0,-0.0267,-0.0807,-0.0807,-0.1433,-0.2637,-0.3838,-0.4776,-0.5442,-0.6467,-0.6844,-0.6688,-0.6536,-0.6429,-0.63,-0.63,-0.63,-0.63,-0.63,-0.63,-0.63,0.0,0.0,0.0,0.0,0.0,0.0,0.0,0.0,0.0,0.0,0.0,0.0,0.0,0.0,0.0,0.0,0.0,0.0,0.0,0.0,0.0,0.0,0.0,0.0,0.0,0.0,0.0,0.0,0.0,0.0,0.0,0.0,0.0,0.0,0.0,0.0,0.0,0.4737,0.6428,0.7492,0.7882,0.7988,0.7988,0.7988,0.7988,0.7988,0.7988,0.6376,0.4218,0.4066,0.2314,0.0252,0.005,0.0,0.0,0.0,0.0,0.0,0.0,0.0,0.0,0.0,0.0,0.0,0.0,0.0,0.0,0.0,0.0,0.0,0.0,0.0,0.0,0.0,0.0,0.0,0.0,0.0,0.0,0.0,0.0,0.0,0.0,0.0,0.0,0.0,0.0,0.0,0.0,0.0,0.0,0.0,0.0,0.0,0.0,0.0,-0.0616,-0.1783,-0.1788,-0.2504,-0.3881,-0.4912,-0.5492,-0.5664,-0.653,-0.6858,-0.6692,-0.6556,-0.6446,-0.63,-0.63,-0.63,-0.63,-0.63,-0.63,-0.63,0.0,0.0,0.0,0.0,0.0,0.0,0.0,0.0,0.0,0.0,0.0,0.0,0.0,0.0,0.0,0.0,0.0,0.0,0.0,0.0,0.0,0.0,0.0,0.0,0.0,0.0,0.0,0.0,0.0,0.0,0.0,0.0,0.0,0.0,0.0,0.0,0.3697,0.4152,0.5732,0.788,0.7958,0.7988,0.7988,0.7988,0.7988,0.7988,0.7988,0.6983,0.5475,0.4368,0.2964,0.146,0.0353,0.0,0.0,0.0,0.0,0.0,0.0,0.0,0.0,0.0,0.0,0.0,0.0,0.0,0.0,0.0,0.0,0.0,0.0,0.0,0.0,0.0,0.0,0.0,0.0,0.0,0.0,0.0,0.0,0.0,0.0,0.0,0.0,0.0,0.0,0.0,0.0,0.0,0.0,0.0,0.0,0.0,0.0,0.0,-0.062,-0.1787,-0.182,-0.295,-0.509,-0.5314,-0.5894,-0.6827,-0.698,-0.6906,-0.6698,-0.6671,-0.6502,-0.63,-0.63,-0.63,-0.63,-0.63,-0.63,-0.63,0.0,0.0,0.0,0.0,0.0,0.0,0.0,0.0,0.0,0.0,0.0,0.0,0.0,0.0,0.0,0.0,0.0,0.0,0.0,0.0,0.0,0.0,0.0,0.0,0.0,0.0,0.0,0.0,0.0,0.0,0.0,0.0,0.0,0.0,0.0,0.0968,0.0,0.3596,0.5011,0.6747,0.7648,0.7988,0.7988,0.7988,0.7988,0.7988,0.7988,0.7587,0.6731,0.4668,0.2665,0.0857,0.0202,0.0,0.0,0.0,0.0,0.0,0.0,0.0,0.0,0.0,0.0,0.0,0.0,0.0,0.0,0.0,0.0,0.0,0.0,0.0,0.0,0.0,0.0,0.0,0.0,0.0,0.0,0.0,0.0,0.0,0.0,0.0,0.0,0.0,0.0,0.0,0.0,0.0,0.0,0.0,0.0,0.0,0.0,-0.0618,-0.1542,-0.2728,-0.3379,-0.4599,-0.6293,-0.6293,-0.6561,-0.7095,-0.7095,-0.693,-0.6688,-0.6536,-0.6429,-0.63,-0.63,-0.63,-0.63,-0.63,-0.63,-0.63,0.0,0.0,0.0,0.0,0.0,0.0,0.0,0.0,0.0,0.0,0.0,0.0,0.0,0.0,0.0,0.0,0.0,0.0,0.0,0.0,0.0,0.0,0.0,0.0,0.0,0.0,0.0,0.0,0.0,0.0,0.0,0.0,0.0,0.0,0.0,0.0546,0.1578,0.3285,0.4593,0.5657,0.7355,0.7988,0.7988,0.7988,0.7988,0.7988,0.7988,0.7839,0.7232,0.4818,0.2614,0.0756,0.0202,0.0,0.0,0.0,0.0,0.0,0.0,0.0,0.0,0.0,0.0,0.0,0.0,0.0,0.0,0.0,0.0,0.0,0.0,0.0,0.0,0.0,0.0,0.0,0.0,0.0,0.0,0.0,0.0,0.0,0.0,0.0,0.0,0.0,0.0,0.0,0.0,0.0,0.0,0.0,0.0,0.0,0.0,0.0,-0.2412,-0.3636,-0.4812,-0.5983,-0.7095,-0.7095,-0.7095,-0.7095,-0.7095,-0.693,-0.6678,-0.6422,-0.63,-0.63,-0.63,-0.63,-0.63,-0.63,-0.63,-0.63,0.0,0.0,0.0,0.0,0.0,0.0,0.0,0.0,0.0,0.0,0.0,0.0,0.0,0.0,0.0,0.0,0.0,0.0,0.0,0.0,0.0,0.0,0.0,0.0,0.0,0.0,0.0,0.0,0.0,0.0,0.0,0.0,0.0,0.0,0.0,0.0705,0.2027,0.3409,0.4752,0.6085,0.7422,0.7988,0.7988,0.7988,0.7988,0.7988,0.7988,0.7235,0.5977,0.4518,0.3815,0.3215,0.0756,0.0,0.0,0.0,0.0,0.0,0.0,0.0,0.0,0.0,0.0,0.0,0.0,0.0,0.0,0.0,0.0,0.0,0.0,0.0,0.0,0.0,0.0,0.0,0.0,0.0,0.0,0.0,0.0,0.0,0.0,0.0,0.0,0.0,0.0,0.0,0.0,0.0,0.0,0.0,0.0,0.0,0.0,-0.1204,-0.2388,-0.3606,-0.4824,-0.5983,-0.7095,-0.7095,-0.7095,-0.7095,-0.7095,-0.693,-0.6678,-0.6422,-0.63,-0.63,-0.63,-0.63,-0.63,-0.63,-0.63,-0.63,0.0,0.0,0.0,0.0,0.0,0.0,0.0,0.0,0.0,0.0,0.0,0.0,0.0,0.0,0.0,0.0,0.0,0.0,0.0,0.0,0.0,0.0,0.0,0.0,0.0,0.0,0.0,0.0,0.0,0.0,0.0,0.0,0.0,0.0,0.0,0.0299,0.0945,0.3086,0.4328,0.497,0.7132,0.7988,0.7988,0.7988,0.7988,0.7988,0.7988,0.7135,0.5777,0.4468,0.3465,0.2464,0.0605,0.0,0.0,0.0,0.0,0.0,0.0,0.0,0.0,0.0,0.0,0.0,0.0,0.0,0.0,0.0,0.0,0.0,0.0,0.0,0.0,0.0,0.0,0.0,0.0,0.0,0.0,0.0,0.0,0.0,0.0,0.0,0.0,0.0,0.0,0.0,0.0,0.0,0.0,0.0,0.0,0.0,0.0,-0.1898,-0.3112,-0.3617,-0.5513,-0.665,-0.7095,-0.7095,-0.7095,-0.7092,-0.7007,-0.6895,-0.6685,-0.6515,-0.6378,-0.63,-0.63,-0.63,-0.63,-0.63,-0.6354,-0.6426,0.0,0.0,0.0,0.0,0.0,0.0,0.0,0.0,0.0,0.0,0.0,0.0,0.0,0.0,0.0,0.0,0.0,0.0,0.0,0.0,0.0,0.0,0.0,0.0,0.0,0.0,0.0,0.0,0.0,0.0,0.0,0.0,0.0,0.0,0.0,0.0,0.014,0.2458,0.3615,0.4216,0.6476,0.7637,0.7988,0.7988,0.7988,0.7988,0.7988,0.7135,0.5777,0.4468,0.3115,0.1762,0.0404,0.0,0.0,0.0,0.0,0.0,0.0,0.0,0.0,0.0,0.0,0.0,0.0,0.0,0.0,0.0,0.0,0.0,0.0,0.0,0.0,0.0,0.0,0.0,0.0,0.0,0.0,0.0,0.0,0.0,0.0,0.0,0.0,0.0,0.0,0.0,0.0,0.0,0.0,0.0,0.0,0.0,0.0,-0.2381,-0.3614,-0.3614,-0.5977,-0.7095,-0.7095,-0.7095,-0.7095,-0.7088,-0.6947,-0.6844,-0.6688,-0.6536,-0.6429,-0.63,-0.63,-0.6323,-0.6361,-0.6361,-0.6453,-0.6539,0.0,0.0,0.0,0.0,0.0,0.0,0.0,0.0,0.0,0.0,0.0,0.0,0.0,0.0,0.0,0.0,0.0,0.0,0.0,0.0,0.0,0.0,0.0,0.0,0.0,0.0,0.0,0.0,0.0,0.0,0.0,0.0,0.0,0.0,0.0,0.0,0.0101,0.146,0.2765,0.4116,0.5475,0.6833,0.7988,0.7988,0.7988,0.7988,0.7988,0.7135,0.5777,0.4468,0.3115,0.1762,0.0404,0.0,0.0,0.0,0.0,0.0,0.0,0.0,0.0,0.0,0.0,0.0,0.0,0.0,0.0,0.0,0.0,0.0,0.0,0.0,0.0,0.0,0.0,0.0,0.0,0.0,0.0,0.0,0.0,0.0,0.0,0.0,0.0,0.0,0.0,0.0,0.0,0.0,0.0,0.0,0.0,0.0,0.0,-0.2381,-0.3614,-0.3614,-0.5977,-0.7095,-0.7095,-0.7095,-0.7095,-0.7088,-0.6947,-0.6844,-0.6688,-0.6536,-0.6429,-0.63,-0.63,-0.6385,-0.6511,-0.6511,-0.6566,-0.6698,0.0,0.0,0.0,0.0,0.0,0.0,0.0,0.0,0.0,0.0,0.0,0.0,0.0,0.0,0.0,0.0,0.0,0.0,0.0,0.0,0.0,0.0,0.0,0.0,0.0,0.0,0.0,0.0,0.0,0.0,0.0,0.0,0.0,0.0,0.0,0.0,0.0101,0.1411,0.2264,0.2815,0.5072,0.6279,0.6734,0.7637,0.7437,0.6631,0.6631,0.5172,0.3217,0.2765,0.1762,0.0555,0.0151,0.0,0.0,0.0,0.0,0.0,0.0,0.0,0.0,0.0,0.0,0.0,0.0,0.0,0.0,0.0,0.0,0.0,0.0,0.0,0.0,0.0,0.0,0.0,0.0,0.0,0.0,0.0,0.0,0.0,0.0,0.0,0.0,0.0,0.0,0.0,0.0,0.0,0.0,0.0,0.0,0.0,0.0,-0.2381,-0.3614,-0.3614,-0.5977,-0.7095,-0.7095,-0.7095,-0.7095,-0.7095,-0.7048,-0.6889,-0.6698,-0.6647,-0.6521,-0.63,-0.63,-0.6385,-0.6511,-0.6511,-0.6634,-0.6858,0.0,0.0,0.0,0.0,0.0,0.0,0.0,0.0,0.0,0.0,0.0,0.0,0.0,0.0,0.0,0.0,0.0,0.0,0.0,0.0,0.0,0.0,0.0,0.0,0.0,0.0,0.0,0.0,0.0,0.0,0.0,0.0,0.0,0.0,0.0,0.0,0.005,0.0907,0.1561,0.2213,0.437,0.5575,0.6129,0.7487,0.7484,0.6681,0.6179,0.4622,0.2665,0.2163,0.1109,0.0,0.0,0.0,0.0,0.0,0.0,0.0,0.0,0.0,0.0,0.0,0.0,0.0,0.0,0.0,0.0,0.0,0.0,0.0,0.0,0.0,0.0,0.0,0.0,0.0,0.0,0.0,0.0,0.0,0.0,0.0,0.0,0.0,0.0,0.0,0.0,0.0,0.0,0.0,0.0,0.0,0.0,0.0,0.0,-0.241,-0.3614,-0.3614,-0.5977,-0.7095,-0.7095,-0.7095,-0.7095,-0.7095,-0.7095,-0.693,-0.6702,-0.6702,-0.6525,-0.63,-0.63,-0.6422,-0.6559,-0.6559,-0.6749,-0.6964,0.0,0.0,0.0,0.0,0.0,0.0,0.0,0.0,0.0,0.0,0.0,0.0,0.0,0.0,0.0,0.0,0.0,0.0,0.0,0.0,0.0,0.0,0.0,0.0,0.0,0.0,0.0,0.0,0.0,0.0,0.0,0.0,0.0,0.0,0.0,0.0,0.0,0.0,0.0706,0.1963,0.3416,0.477,0.6029,0.7434,0.7889,0.7537,0.6329,0.4922,0.3516,0.2264,0.1008,0.0,0.0,0.0,0.0,0.0,0.0,0.0,0.0,0.0,0.0,0.0,0.0,0.0,0.0,0.0,0.0,0.0,0.0,0.0,0.0,0.0,0.0,0.0,0.0,0.0,0.0,0.0,0.0,0.0,0.0,0.0,0.0,0.0,0.0,0.0,0.0,0.0,0.0,0.0,0.0,0.0,0.0,0.0,0.0,-0.2413,-0.3703,-0.3881,-0.6065,-0.7095,-0.7095,-0.7095,-0.7095,-0.7095,-0.7095,-0.6937,-0.6715,-0.6705,-0.6532,-0.6313,-0.6303,-0.648,-0.6702,-0.6702,-0.6888,-0.7095,0.0,0.0,0.0,0.0,0.0,0.0,0.0,0.0,0.0,0.0,0.0,0.0,0.0,0.0,0.0,0.0,0.0,0.0,0.0,0.0,0.0,0.0,0.0,0.0,0.0,0.0,0.0,0.0,0.0,0.0,0.0,0.0,0.0,0.0,0.0,0.0,0.0,0.0,0.0202,0.0656,0.3065,0.4166,0.4718,0.708,0.6728,0.4918,0.4568,0.2966,0.0907,0.0605,0.0252,0.0,0.0,0.0,0.0,0.0,0.0,0.0,0.0,0.0,0.0,0.0,0.0,0.0,0.0,0.0,0.0,0.0,0.0,0.0,0.0,0.0,0.0,0.0,0.0,0.0,0.0,0.0,0.0,0.0,0.0,0.0,0.0,0.0,0.0,0.0,0.0,0.0,0.0,0.0,0.0,0.0,0.0,0.0,0.0,-0.2413,-0.4505,-0.629,-0.6827,-0.7095,-0.7095,-0.7095,-0.7095,-0.7095,-0.7095,-0.6997,-0.6865,-0.6749,-0.659,-0.645,-0.634,-0.648,-0.6702,-0.6702,-0.6888,-0.7095,0.0,0.0,0.0,0.0,0.0,0.0,0.0,0.0,0.0,0.0,0.0,0.0,0.0,0.0,0.0,0.0,0.0,0.0,0.0,0.0,0.0,0.0,0.0,0.0,0.0,0.0,0.0,0.0,0.0,0.0,0.0,0.0,0.0,0.0,0.0,0.0,0.0,0.0,0.0,0.0252,0.2914,0.4016,0.4216,0.6276,0.6176,0.477,0.3516,0.2163,0.0807,0.0202,0.0,0.0,0.0,0.0,0.0,0.0,0.0,0.0,0.0,0.0,0.0,0.0,0.0,0.0,0.0,0.0,0.0,0.0,0.0,0.0,0.0,0.0,0.0,0.0,0.0,0.0,0.0,0.0,0.0,0.0,0.0,0.0,0.0,0.0,0.0,0.0,0.0,0.0,0.0,0.0,0.0,0.0,0.0,0.0,0.0,-0.2413,-0.4772,-0.7095,-0.7095,-0.7095,-0.7095,-0.7095,-0.7095,-0.7095,-0.7095,-0.7014,-0.6873,-0.6763,-0.661,-0.6497,-0.6354,-0.648,-0.6702,-0.6702,-0.6888,-0.7095,0.0,0.0,0.0,0.0,0.0,0.0,0.0,0.0,0.0,0.0,0.0,0.0,0.0,0.0,0.0,0.0,0.0,0.0,0.0,0.0,0.0,0.0,0.0,0.0,0.0,0.0,0.0,0.0,0.0,0.0,0.0,0.0,0.0,0.0,0.0,0.0,0.0,0.0,0.0,0.0252,0.2914,0.3865,0.3865,0.5425,0.5727,0.5074,0.2816,0.1862,0.1511,0.0404,0.0,0.0,0.0,0.0,0.0,0.0,0.0,0.0,0.0,0.0,0.0,0.0,0.0,0.0,0.0,0.0,0.0,0.0,0.0,0.0,0.0,0.0,0.0,0.0,0.0,0.0,0.0,0.0,0.0,0.0,0.0,0.0,0.0,0.0,0.0,0.0,0.0,0.0,0.0,0.0,0.0,0.0,0.0,-0.018,-0.0539,-0.2592,-0.4772,-0.7095,-0.7095,-0.7095,-0.7095,-0.7095,-0.7095,-0.7095,-0.7095,-0.7028,-0.6906,-0.6797,-0.6644,-0.6535,-0.6412,-0.6481,-0.6705,-0.6725,-0.6905,-0.7095,0.0,0.0,0.0,0.0,0.0,0.0,0.0,0.0,0.0,0.0,0.0,0.0,0.0,0.0,0.0,0.0,0.0,0.0,0.0,0.0,0.0,0.0,0.0,0.0,0.0,0.0,0.0,0.0,0.0,0.0,0.0,0.0,0.0,0.0,0.0,0.0,0.0,0.0,0.0,0.0252,0.2914,0.3316,0.2564,0.5074,0.4572,0.2565,0.2163,0.126,0.0303,0.005,0.0,0.0,0.0,0.0,0.0,0.0,0.0,0.0,0.0,0.0,0.0,0.0,0.0,0.0,0.0,0.0,0.0,0.0,0.0,0.0,0.0,0.0,0.0,0.0,0.0,0.0,0.0,0.0,0.0,0.0,0.0,0.0,0.0,0.0,0.0,0.0,0.0,0.0,0.0,0.0,0.0,0.0,0.0,-0.0986,-0.3037,-0.3392,-0.4772,-0.7095,-0.7095,-0.7095,-0.7095,-0.7095,-0.7095,-0.7095,-0.7095,-0.7085,-0.7051,-0.691,-0.6803,-0.6664,-0.6641,-0.6661,-0.6715,-0.6848,-0.6953,-0.7095,0.0,0.0,0.0,0.0,0.0,0.0,0.0,0.0,0.0,0.0,0.0,0.0,0.0,0.0,0.0,0.0,0.0,0.0,0.0,0.0,0.0,0.0,0.0,0.0,0.0,0.0,0.0,0.0,0.0,0.0,0.0,0.0,0.0,0.0,0.0,0.0,0.0,0.0,0.0,0.0151,0.2113,0.2564,0.2113,0.3369,0.3066,0.1913,0.1159,0.0504,0.0,0.0,0.0,0.0,0.0,0.0,0.0,0.0,0.0,0.0,0.0,0.0,0.0,0.0,0.0,0.0,0.0,0.0,0.0,0.0,0.0,0.0,0.0,0.0,0.0,0.0,0.0,0.0,0.0,0.0,0.0,0.0,0.0,0.0,0.0,0.0,0.0,0.0,0.0,0.0,0.0,0.0,0.0,0.0,0.0,-0.0852,-0.2592,-0.326,-0.4461,-0.6204,-0.6827,-0.7095,-0.7095,-0.7095,-0.7095,-0.7095,-0.7095,-0.7095,-0.7085,-0.6943,-0.6846,-0.6814,-0.6732,-0.6753,-0.6831,-0.6859,-0.6974,-0.7095,0.0,0.0,0.0,0.0,0.0,0.0,0.0,0.0,0.0,0.0,0.0,0.0,0.0,0.0,0.0,0.0,0.0,0.0,0.0,0.0,0.0,0.0,0.0,0.0,0.0,0.0,0.0,0.0,0.0,0.0,0.0,0.0,0.0,0.0,0.0,0.0,0.0,0.0,0.0,0.0151,0.1812,0.2113,0.1611,0.2213,0.2063,0.141,0.0353,0.0,0.0,0.0,0.0,0.0,0.0,0.0,0.0,0.0,0.0,0.0,0.0,0.0,0.0,0.0,0.0,0.0,0.0,0.0,0.0,0.0,0.0,0.0,0.0,0.0,0.0,0.0,0.0,0.0,0.0,0.0,0.0,0.0,0.0,0.0,0.0,0.0,0.0,0.0,0.0,0.0,0.0,0.0,0.0,0.0,0.0,-0.0584,-0.179,-0.2992,-0.4196,-0.5403,-0.6561,-0.7095,-0.7095,-0.7095,-0.7095,-0.7095,-0.7095,-0.7095,-0.7088,-0.6977,-0.6916,-0.6876,-0.6837,-0.6854,-0.6889,-0.6923,-0.7004,-0.7095,0.0,0.0,0.0,0.0,0.0,0.0,0.0,0.0,0.0,0.0,0.0,0.0,0.0,0.0,0.0,0.0,0.0,0.0,0.0,0.0,0.0,0.0,0.0,0.0,0.0,0.0,0.0,0.0,0.0,0.0,0.0,0.0,0.0,0.0,0.0,0.0,0.0,0.0,0.0,0.0202,0.2815,0.2363,0.0404,0.2914,0.2314,0.0151,0.0051,0.0,0.0,0.0,0.0,0.0,0.0,0.0,0.0,0.0,0.0,0.0,0.0,0.0,0.0,0.0,0.0,0.0,0.0,0.0,0.0,0.0,0.0,0.0,0.0,0.0,0.0,0.0,0.0,0.0,0.0,0.0,0.0,0.0,0.0,0.0,0.0,0.0,0.0,0.0,0.0,0.0,0.0,0.0,0.0,0.0,0.0,-0.0584,-0.179,-0.2992,-0.4196,-0.5403,-0.6561,-0.7095,-0.7095,-0.7095,-0.7095,-0.7095,-0.7095,-0.7095,-0.7095,-0.7085,-0.7004,-0.69,-0.7018,-0.6991,-0.6903,-0.7034,-0.7088,-0.7095,0.0,0.0,0.0,0.0,0.0,0.0,0.0,0.0,0.0,0.0,0.0,0.0,0.0,0.0,0.0,0.0,0.0,0.0,0.0,0.0,0.0,0.0,0.0,0.0,0.0,0.0,0.0,0.0,0.0,0.0,0.0,0.0,0.0,0.0,0.0,0.0,0.0,0.0,0.0504,0.131,0.2364,0.2163,0.136,0.2363,0.1611,0.0,0.0,0.0,0.0,0.0,0.0,0.0,0.0,0.0,0.0,0.0,0.0,0.0,0.0,0.0,0.0,0.0,0.0,0.0,0.0,0.0,0.0,0.0,0.0,0.0,0.0,0.0,0.0,0.0,0.0,0.0,0.0,0.0,0.0,0.0,0.0,0.0,0.0,0.0,0.0,0.0,0.0,0.0,0.0,0.0,0.0,0.0,0.0,-0.0225,-0.0673,-0.2637,-0.3838,-0.4285,-0.6201,-0.7095,-0.7095,-0.7095,-0.7095,-0.7095,-0.7095,-0.7095,-0.7095,-0.7095,-0.7065,-0.7021,-0.7075,-0.7061,-0.7021,-0.7078,-0.7095,-0.7095,0.0,0.0,0.0,0.0,0.0,0.0,0.0,0.0,0.0,0.0,0.0,0.0,0.0,0.0,0.0,0.0,0.0,0.0,0.0,0.0,0.0,0.0,0.0,0.0,0.0,0.0,0.0,0.0,0.0,0.0,0.0,0.0,0.0,0.0,0.0,0.0,0.0,0.0,0.0555,0.1461,0.2314,0.2363,0.2063,0.2464,0.1812,0.0555,0.0151,0.0,0.0,0.0,0.0,0.0,0.0,0.0,0.0,0.0,0.0,0.0,0.0,0.0,0.0,0.0,0.0,0.0,0.0,0.0,0.0,0.0,0.0,0.0,0.0,0.0,0.0,0.0,0.0,0.0,0.0,0.0,0.0,0.0,0.0,0.0,0.0,0.0,0.0,0.0,0.0,0.0,0.0,0.0,0.0,0.0,0.0,0.0,0.0,-0.2013,-0.3215,-0.3614,-0.5622,-0.6738,-0.7095,-0.7095,-0.7095,-0.7095,-0.7095,-0.7095,-0.7095,-0.7095,-0.7095,-0.7095,-0.7095,-0.7095,-0.7095,-0.7095,-0.7095,-0.7095,0.0,0.0,0.0,0.0,0.0,0.0,0.0,0.0,0.0,0.0,0.0,0.0,0.0,0.0,0.0,0.0,0.0,0.0,0.0,0.0,0.0,0.0,0.0,0.0,0.0,0.0,0.0,0.0,0.0,0.0,0.0,0.0,0.0,0.0,0.0,0.0,0.0,0.0,0.0,0.0252,0.2914,0.3165,0.2163,0.3465,0.3165,0.1812,0.0454,0.0,0.0,0.0,0.0,0.0,0.0,0.0,0.0,0.0,0.0,0.0,0.0,0.0,0.0,0.0,0.0,0.0,0.0,0.0,0.0,0.0,0.0,0.0,0.0,0.0,0.0,0.0,0.0,0.0,0.0,0.0,0.0,0.0,0.0,0.0,0.0,0.0,0.0,0.0,0.0,0.0,0.0,0.0,0.0,0.0,0.0,0.0,0.0,-0.121,-0.2413,-0.3614,-0.4821,-0.5983,-0.7095,-0.7095,-0.7095,-0.7095,-0.7095,-0.7095,-0.7095,-0.7095,-0.7095,-0.7095,-0.7095,-0.7095,-0.7095,-0.7095,-0.7095,-0.7095,0.0,0.0,0.0,0.0,0.0,0.0,0.0,0.0,0.0,0.0,0.0,0.0,0.0,0.0,0.0,0.0,0.0,0.0,0.0,0.0,0.0,0.0,0.0,0.0,0.0,0.0,0.0,0.0,0.0,0.0,0.0,0.0,0.0,0.0,0.0,0.0,0.0,0.0,0.0555,0.146,0.2264,0.2363,0.2063,0.2465,0.1762,0.0555,0.0151,0.0,0.0,0.0,0.0,0.0,0.0,0.0,0.0,0.0,0.0,0.0,0.0,0.0,0.0,0.0,0.0,0.0,0.0,0.0,0.0,0.0,0.0,0.0,0.0,0.0,0.0,0.0,0.0,0.0,0.0,0.0,0.0,0.0,0.0,0.0,0.0,0.0,0.0,0.0,0.0,0.0,0.0,0.0,0.0,0.0,0.0,0.0,0.0,-0.121,-0.2413,-0.3614,-0.4821,-0.5983,-0.7095,-0.7095,-0.7095,-0.7095,-0.7095,-0.7095,-0.7095,-0.7095,-0.7095,-0.7095,-0.7095,-0.7095,-0.7095,-0.7095,-0.7095,-0.7095,0.0,0.0,0.0,0.0,0.0,0.0,0.0,0.0,0.0,0.0,0.0,0.0,0.0,0.0,0.0,0.0,0.0,0.0,0.0,0.0,0.0,0.0,0.0,0.0,0.0,0.0,0.0,0.0,0.0,0.0,0.0,0.0,0.0,0.0,0.0,0.0,0.0,0.0,0.0454,0.126,0.1762,0.2013,0.2013,0.2013,0.1511,0.0706,0.0202,0.0,0.0,0.0,0.0,0.0,0.0,0.0,0.0,0.0,0.0,0.0,0.0,0.0,0.0,0.0,0.0,0.0,0.0,0.0,0.0,0.0,0.0,0.0,0.0,0.0,0.0,0.0,0.0,0.0,0.0,0.0,0.0,0.0,0.0,0.0,0.0,0.0,0.0,0.0,0.0,0.0,0.0,0.0,0.0,0.0,0.0,0.0,0.0,-0.0718,-0.1924,-0.3614,-0.433,-0.5534,-0.7095,-0.7095,-0.7095,-0.7095,-0.7095,-0.7095,-0.7095,-0.7095,-0.7095,-0.7095,-0.7095,-0.7095,-0.7095,-0.7095,-0.7095,-0.7095,0.0,0.0,0.0,0.0,0.0,0.0,0.0,0.0,0.0,0.0,0.0,0.0,0.0,0.0,0.0,0.0,0.0,0.0,0.0,0.0,0.0,0.0,0.0,0.0,0.0,0.0,0.0,0.0,0.0,0.0,0.0,0.0,0.0,0.0,0.0,0.005,0.0202,0.0202,0.0202,0.0303,0.1511,0.2013,0.1963,0.1862,0.1913,0.1862,0.0605,0.0101,0.0,0.0,0.0,0.0,0.0151,0.0202,0.0202,0.0202,0.0202,0.0151,0.0051,0.0,0.0,0.0,0.0,0.0,0.0,0.0,0.0,0.0,0.0,0.0,0.0,0.0,0.0,0.0,0.0,0.0,0.0,0.0,0.0,0.0,0.0,0.0,0.0,0.0,0.0,0.0,0.0,0.0,0.0,0.0,0.0,0.0,0.0,0.0,0.0,0.0,-0.1165,-0.3436,-0.357,-0.4772,-0.6962,-0.7051,-0.7095,-0.7095,-0.7095,-0.7095,-0.7095,-0.7095,-0.7095,-0.7095,-0.7095,-0.7095,-0.7095,-0.7095,-0.7095,-0.7095,0.0,0.0,0.0,0.0,0.0,0.0,0.0,0.0,0.0,0.0,0.0,0.0,0.0,0.0,0.0,0.0,0.0,0.0,0.0,0.0,0.0,0.0,0.0,0.0,0.0,0.0,0.0,0.0,0.0,0.0,0.0,0.0,0.0,0.0,0.0,0.0605,0.1561,0.1561,0.1561,0.1611,0.1862,0.2013,0.1862,0.0857,0.1109,0.1962,0.1661,0.0907,0.0,0.0,0.0,0.0202,0.126,0.1561,0.1561,0.1561,0.1561,0.136,0.0303,0.0,0.0,0.0,0.0,0.0,0.0,0.0,0.0,0.0,0.0,0.0,0.0,0.0,0.0,0.0,0.0,0.0,0.0,0.0,0.0,0.0,0.0,0.0,0.0,0.0,0.0,0.0,0.0,0.0,0.0,0.0,0.0,0.0,0.0,0.0,0.0,0.0,-0.0718,-0.2191,-0.317,-0.4372,-0.5802,-0.6694,-0.7095,-0.7095,-0.7095,-0.7095,-0.7095,-0.7095,-0.7095,-0.7095,-0.7095,-0.7095,-0.7095,-0.7095,-0.7095,-0.7095,0.0,0.0,0.0,0.0,0.0,0.0,0.0,0.0,0.0,0.0,0.0,0.0,0.0,0.0,0.0,0.0,0.0,0.0,0.0,0.0,0.0,0.0,0.0,0.0,0.0,0.0,0.0,0.0,0.0,0.0,0.0,0.0,0.0,0.0051,0.0656,0.136,0.2063,0.2665,0.2964,0.2964,0.2964,0.2964,0.2864,0.2163,0.2364,0.2964,0.2964,0.2514,0.1913,0.1913,0.146,0.1058,0.1762,0.2013,0.2013,0.2013,0.2464,0.2815,0.2113,0.1461,0.0958,0.0958,0.0454,0.0,0.0,0.0,0.0,0.0,0.0,0.0,0.0,0.0,0.0,0.0,0.0,0.0,0.0,0.0,0.0,0.0,0.0,0.0,0.0,0.0,0.0,0.0,0.0,0.0,0.0,0.0,0.0,0.0,0.0,0.0,0.0,0.0,-0.0314,-0.0941,-0.2769,-0.4239,-0.5447,-0.6561,-0.7095,-0.7095,-0.7095,-0.7095,-0.7095,-0.7095,-0.7095,-0.7095,-0.7095,-0.7095,-0.7095,-0.7095,-0.7095,-0.7095,0.0,0.0,0.0,0.0,0.0,0.0,0.0,0.0,0.0,0.0,0.0,0.0,0.0,0.0,0.0101,0.0303,0.0353,0.0353,0.0353,0.0555,0.0454,0.0,0.0202,0.0252,0.0,0.0,0.0,0.0,0.0,0.0,0.0,0.0,0.0,0.005,0.141,0.2113,0.2414,0.3767,0.4368,0.4368,0.4368,0.4368,0.4316,0.4066,0.4166,0.4368,0.4368,0.4368,0.4316,0.4066,0.3265,0.2363,0.2615,0.2666,0.2666,0.2666,0.3466,0.4268,0.4066,0.3165,0.2364,0.2364,0.1511,0.0603,0.0396,0.0148,0.0,0.0,0.0,0.0,0.0,0.0,0.0,0.0,0.0,0.0,0.0,0.0,0.0,0.0,0.0,0.0,0.0,0.0,0.0,0.0,0.0,0.0,0.0,0.0,0.0,0.0,0.0,0.0,0.0,0.0,0.0,-0.0045,-0.2458,-0.4105,-0.5134,-0.6473,-0.7095,-0.7095,-0.7095,-0.7095,-0.7095,-0.7095,-0.7095,-0.7095,-0.7095,-0.7095,-0.7095,-0.7095,-0.7095,-0.7095,0.0,0.0,0.0,0.0,0.0,0.0,0.0,0.0,0.0,0.0,0.0,0.0,0.0,0.0,0.0454,0.1611,0.1712,0.1712,0.1712,0.2815,0.2414,0.0101,0.1109,0.1209,0.0051,0.0,0.0,0.0,0.0,0.0,0.0,0.0,0.0,0.005,0.141,0.2665,0.3815,0.5172,0.5727,0.5727,0.5727,0.5727,0.5625,0.4418,0.4718,0.5727,0.5727,0.5727,0.5575,0.4368,0.3865,0.3917,0.5072,0.5477,0.5477,0.5477,0.5577,0.5475,0.4316,0.3865,0.3715,0.3715,0.3615,0.3162,0.2006,0.0854,0.0,0.0,0.0,0.0,0.0,0.0,0.0,0.0,0.0,0.0,0.0,0.0,0.0,0.0,0.0,0.0,0.0,0.0,0.0,0.0,0.0,0.0,0.0,0.0,0.0,0.0,0.0,0.0,0.0,0.0,0.0,-0.0045,-0.2458,-0.3703,-0.3927,-0.6113,-0.7095,-0.7095,-0.7095,-0.7095,-0.7095,-0.7095,-0.7095,-0.7095,-0.7095,-0.7095,-0.7095,-0.7095,-0.7095,-0.7095,0.0,0.0,0.0,0.0,0.0,0.0,0.0,0.0,0.0,0.0,0.0,0.0,0.0,0.0,0.0555,0.1862,0.2013,0.2314,0.3065,0.3665,0.3465,0.2264,0.2815,0.2865,0.2264,0.1511,0.1109,0.1109,0.0353,0.0,0.0,0.0756,0.1109,0.1209,0.3318,0.4572,0.5222,0.6528,0.7135,0.7135,0.7135,0.7135,0.7033,0.6476,0.6578,0.7135,0.7135,0.7135,0.7033,0.6426,0.5722,0.5222,0.5827,0.5979,0.5979,0.5979,0.6531,0.6983,0.6376,0.5672,0.5122,0.5122,0.4568,0.3865,0.3265,0.2063,0.0903,0.0148,0.0,0.0,0.0,0.0,0.0,0.0,0.0,0.0,0.0,0.0,0.0,0.0,0.0,0.0,0.0,0.0,0.0,0.0,0.0,0.0,0.0,0.0,0.0,0.0,0.0,0.0,0.0,0.0,0.0,0.0,-0.1745,-0.2948,-0.3659,-0.6021,-0.7095,-0.7095,-0.7095,-0.7095,-0.7095,-0.7095,-0.7095,-0.7095,-0.7095,-0.7095,-0.7105,-0.7238,-0.7272,-0.7282]}]]